ftp/pub/palmer/observations_modified/2019/November/AR191130_BASE.txt

Download

Sample DateTime	Unit Id	WS Avg 2min	WD Avg 2min	WGS 10min	WGD 10min	Air Temp	Rel Humidity	Dew Point	Pyranometer	Quantum	Air Pressure	Snow Level	Rainfall	PW Current	Visibility	CBase 1	CBase 2	CBase 3	Vert Vis
2019/11/30 00:00:00	BASE	0.00	65	1.08	65	3.7	81	0.8	139	0	994.4	NA	0.0000		9999	0	0	0	0
2019/11/30 00:01:00	BASE	0.00	74	1.08	65	3.7	81	0.7	139	0	994.4	NA	0.0000		9999	0	0	0	0
2019/11/30 00:02:00	BASE	0.00	89	1.08	65	3.7	81	0.8	139	0	994.4	NA	0.0000		9999	0	0	0	0
2019/11/30 00:03:00	BASE	0.00	115	1.08	65	3.7	81	0.8	139	0	994.4	NA	0.0000		9999	0	0	0	0
2019/11/30 00:04:00	BASE	0.00	211	1.08	65	3.7	81	0.8	138	0	994.4	NA	0.0000		9999	0	0	0	0
2019/11/30 00:05:00	BASE	0.00	242	M	M	3.7	81	0.8	137	0	994.4	NA	0.0000		9999	0	0	0	0
2019/11/30 00:06:00	BASE	0.00	251	M	M	3.8	81	0.9	116	0	994.4	NA	0.0000		9999	0	0	0	0
2019/11/30 00:07:00	BASE	0.00	329	M	M	3.8	81	1.0	73	0	994.4	NA	0.0000		9999	0	0	0	0
2019/11/30 00:08:00	BASE	0.00	10	M	M	3.9	81	1.0	63	0	994.4	NA	0.0000		9999	7220	0	0	0
2019/11/30 00:09:00	BASE	0.00	5	M	M	4.0	81	1.1	61	0	994.4	NA	0.0000		9999	0	0	0	0
2019/11/30 00:10:00	BASE	0.05	334	1.08	321	4.0	81	1.1	64	0	994.4	NA	0.0000		9999	7220	0	0	0
2019/11/30 00:11:00	BASE	0.78	311	1.90	307	3.9	81	1.0	58	0	994.3	NA	0.0000		9999	7220	0	0	0
2019/11/30 00:12:00	BASE	1.75	303	2.26	302	3.7	82	0.9	60	0	994.3	NA	0.0000		9999	7220	0	0	0
2019/11/30 00:13:00	BASE	2.28	300	2.68	302	3.5	83	0.9	56	0	994.3	NA	0.0000		9999	7190	0	0	0
2019/11/30 00:14:00	BASE	2.62	301	2.88	305	3.3	84	1.0	57	0	994.3	NA	0.0000		9999	7190	0	0	0
2019/11/30 00:15:00	BASE	2.78	303	3.19	302	3.1	86	1.0	56	0	994.4	NA	0.0000		9999	7150	0	0	0
2019/11/30 00:16:00	BASE	2.89	305	3.19	302	3.0	88	1.1	57	0	994.4	NA	0.0000		9999	7120	0	0	0
2019/11/30 00:17:00	BASE	2.71	310	3.19	302	2.8	89	1.2	57	0	994.4	NA	0.0000		9999	7150	0	0	0
2019/11/30 00:18:00	BASE	2.57	313	3.19	302	2.7	91	1.4	57	0	994.4	NA	0.0000		9999	7120	0	0	0
2019/11/30 00:19:00	BASE	2.84	314	3.45	320	2.5	92	1.4	56	0	994.4	NA	0.0000		9999	7120	0	0	0
2019/11/30 00:20:00	BASE	3.23	320	3.55	321	2.4	94	1.5	56	0	994.4	NA	0.0000		9999	7150	0	0	0
2019/11/30 00:21:00	BASE	3.36	324	3.55	321	2.3	95	1.7	55	0	994.4	NA	0.0000		9999	7120	0	0	0
2019/11/30 00:22:00	BASE	3.33	326	3.55	321	2.3	97	1.9	54	0	994.4	NA	0.0000		9999	7120	0	0	0
2019/11/30 00:23:00	BASE	3.22	327	3.55	321	2.3	98	2.0	54	0	994.4	NA	0.0000		9999	7150	0	0	0
2019/11/30 00:24:00	BASE	3.11	334	3.55	321	2.4	99	2.2	53	0	994.4	NA	0.0000		9999	7120	0	0	0
2019/11/30 00:25:00	BASE	3.41	339	3.81	338	2.4	99	2.2	51	0	994.4	NA	0.0000		9999	7120	0	0	0
2019/11/30 00:26:00	BASE	3.70	339	3.96	344	2.4	100	2.3	50	0	994.3	NA	0.0000		9999	7150	0	0	0
2019/11/30 00:27:00	BASE	3.80	341	4.01	342	2.3	100	2.3	48	0	994.3	NA	0.0000		9999	7090	0	0	0
2019/11/30 00:28:00	BASE	3.78	341	4.01	342	2.3	100	2.3	46	0	994.2	NA	0.0000		9999	7120	0	0	0
2019/11/30 00:29:00	BASE	3.55	340	4.01	342	2.2	100	2.2	45	0	994.3	NA	0.0000		9999	7120	0	0	0
2019/11/30 00:30:00	BASE	3.25	340	4.01	342	2.2	100	2.2	44	0	994.3	NA	0.0000		9999	7150	0	0	0
2019/11/30 00:31:00	BASE	3.10	341	4.01	342	2.2	100	2.2	42	0	994.4	NA	0.0000		9999	7150	0	0	0
2019/11/30 00:32:00	BASE	3.22	339	4.01	342	2.2	100	2.2	41	0	994.4	NA	0.0000		9999	7150	0	0	0
2019/11/30 00:33:00	BASE	3.30	338	4.01	342	2.2	100	2.2	39	0	994.4	NA	0.0000		9999	7190	0	0	0
2019/11/30 00:34:00	BASE	2.96	341	4.01	342	2.2	100	2.2	38	0	994.4	NA	0.0000		9999	7090	0	0	0
2019/11/30 00:35:00	BASE	2.86	339	4.01	342	2.2	100	2.2	36	0	994.4	NA	0.0000		9999	7120	0	0	0
2019/11/30 00:36:00	BASE	3.36	336	4.01	342	2.2	100	2.2	35	0	994.4	NA	0.0000		9999	7090	0	0	0
2019/11/30 00:37:00	BASE	3.74	331	4.37	324	2.2	100	2.2	33	0	994.4	NA	0.0000		9999	7120	0	0	0
2019/11/30 00:38:00	BASE	3.93	322	4.37	324	2.2	100	2.2	32	0	994.4	NA	0.0000		9999	7220	0	0	0
2019/11/30 00:39:00	BASE	3.82	319	4.37	324	2.1	100	2.1	30	0	994.5	NA	0.0000		9999	7190	0	0	0
2019/11/30 00:40:00	BASE	3.54	316	4.37	324	2.0	100	2.0	29	0	994.5	NA	0.0000		9999	7120	0	0	0
2019/11/30 00:41:00	BASE	3.36	310	4.37	324	1.8	100	1.8	29	0	994.5	NA	0.0000		9999	7220	0	0	0
2019/11/30 00:42:00	BASE	2.95	303	4.37	324	1.7	100	1.7	28	0	994.5	NA	0.0000		9999	7050	0	0	0
2019/11/30 00:43:00	BASE	2.67	299	4.37	324	1.7	100	1.7	27	0	994.5	NA	0.0000		9999	0	0	0	0
2019/11/30 00:44:00	BASE	2.72	295	4.37	324	1.6	100	1.6	27	0	994.5	NA	0.0000		9999	7050	0	0	0
2019/11/30 00:45:00	BASE	2.55	299	4.37	324	1.6	100	1.6	27	0	994.5	NA	0.0000		9999	7120	0	0	0
2019/11/30 00:46:00	BASE	2.18	305	4.37	324	1.6	100	1.6	26	0	994.5	NA	0.0000		9999	7090	0	0	0
2019/11/30 00:47:00	BASE	1.61	305	4.12	321	1.6	100	1.6	26	0	994.5	NA	0.0000		9999	7090	0	0	0
2019/11/30 00:48:00	BASE	1.13	304	3.76	317	1.6	100	1.6	26	0	994.5	NA	0.0000		9999	7120	0	0	0
2019/11/30 00:49:00	BASE	1.08	305	3.70	299	1.5	100	1.5	25	0	994.5	NA	0.0000		9999	7090	0	0	0
2019/11/30 00:50:00	BASE	1.20	303	3.70	299	1.5	100	1.5	25	0	994.5	NA	0.0000		9999	7090	0	0	0
2019/11/30 00:51:00	BASE	1.38	300	3.19	293	1.5	100	1.5	25	0	994.5	NA	0.0000		9999	7090	0	0	0
2019/11/30 00:52:00	BASE	1.39	312	2.98	293	1.6	100	1.6	25	0	994.5	NA	0.0000		9999	7120	0	0	0
2019/11/30 00:53:00	BASE	1.17	324	2.78	296	1.6	100	1.6	25	0	994.5	NA	0.0000		9999	7150	0	0	0
2019/11/30 00:54:00	BASE	1.04	332	2.62	295	1.6	100	1.6	24	0	994.5	NA	0.0000		9999	7120	0	0	0
2019/11/30 00:55:00	BASE	1.14	337	2.26	303	1.6	100	1.6	24	0	994.6	NA	0.0000		9999	7190	0	0	0
2019/11/30 00:56:00	BASE	1.30	336	1.75	305	1.6	100	1.6	24	0	994.6	NA	0.0000		9999	7150	0	0	0
2019/11/30 00:57:00	BASE	1.22	337	1.65	300	1.6	100	1.6	25	0	994.6	NA	0.0000		9999	7120	0	0	0
2019/11/30 00:58:00	BASE	1.11	335	1.65	300	1.6	100	1.6	24	0	994.6	NA	0.0000		9999	7120	0	0	0
2019/11/30 00:59:00	BASE	1.21	328	1.65	300	1.6	100	1.6	23	0	994.6	NA	0.0000		9999	7190	0	0	0
2019/11/30 01:00:00	BASE	1.32	323	1.65	300	1.5	100	1.5	22	0	994.6	NA	0.0000		9999	7120	0	0	0
2019/11/30 01:01:00	BASE	1.30	321	1.54	329	1.5	100	1.5	25	0	994.6	NA	0.0000		9999	7050	0	0	0
2019/11/30 01:02:00	BASE	1.32	316	1.54	329	1.5	100	1.5	26	0	994.6	NA	0.0000		9999	7050	0	0	0
2019/11/30 01:03:00	BASE	1.16	313	1.54	329	1.5	100	1.5	26	0	994.6	NA	0.0000		9999	7090	0	0	0
2019/11/30 01:04:00	BASE	0.84	308	1.54	329	1.6	100	1.6	28	0	994.6	NA	0.0000		9999	7150	0	0	0
2019/11/30 01:05:00	BASE	0.59	303	1.54	329	1.6	100	1.6	29	0	994.6	NA	0.0000		9999	7090	0	0	0
2019/11/30 01:06:00	BASE	0.32	304	1.54	329	1.6	100	1.6	31	0	994.6	NA	0.0000		9999	7150	0	0	0
2019/11/30 01:07:00	BASE	0.49	306	1.54	329	1.7	100	1.7	31	0	994.6	NA	0.0000		9999	7050	0	0	0
2019/11/30 01:08:00	BASE	0.54	309	1.54	329	1.7	100	1.7	31	0	994.5	NA	0.0000		9999	7120	0	0	0
2019/11/30 01:09:00	BASE	0.74	305	1.49	310	1.7	100	1.7	31	0	994.5	NA	0.0000		9999	7090	0	0	0
2019/11/30 01:10:00	BASE	0.96	301	1.49	310	1.7	100	1.7	31	0	994.5	NA	0.0000		9999	7150	0	0	0
2019/11/30 01:11:00	BASE	0.35	300	1.49	310	1.8	100	1.8	30	0	994.5	NA	0.0000		9999	7020	0	0	0
2019/11/30 01:12:00	BASE	0.05	299	1.44	299	1.8	100	1.8	28	0	994.5	NA	0.0000		9999	7090	0	0	0
2019/11/30 01:13:01	BASE	0.18	305	1.44	299	1.7	100	1.7	28	0	994.5	NA	0.0000		9999	7090	0	0	0
2019/11/30 01:14:00	BASE	0.41	308	1.44	299	1.7	100	1.7	27	0	994.5	NA	0.0000		9999	7090	0	0	0
2019/11/30 01:15:00	BASE	0.31	309	1.44	299	1.7	100	1.7	26	0	994.5	NA	0.0000		9999	7050	0	0	0
2019/11/30 01:16:00	BASE	0.04	321	1.44	299	1.6	100	1.6	26	0	994.5	NA	0.0000		9999	7090	0	0	0
2019/11/30 01:17:00	BASE	0.04	330	1.44	299	1.6	100	1.6	26	0	994.5	NA	0.0000		9999	7090	0	0	0
2019/11/30 01:18:00	BASE	0.37	334	1.44	299	1.6	100	1.6	25	0	994.5	NA	0.0000		9999	7090	0	0	0
2019/11/30 01:19:00	BASE	0.73	333	1.39	328	1.5	100	1.5	25	0	994.5	NA	0.0000		9999	7090	0	0	0
2019/11/30 01:20:00	BASE	0.67	327	1.39	328	1.6	100	1.6	24	0	994.5	NA	0.0000		9999	7050	0	0	0
2019/11/30 01:21:00	BASE	0.84	321	1.39	315	1.6	100	1.6	24	0	994.5	NA	0.0000		9999	7090	0	0	0
2019/11/30 01:22:00	BASE	1.08	313	1.44	314	1.6	100	1.6	23	0	994.5	NA	0.0000		9999	7090	0	0	0
2019/11/30 01:23:00	BASE	0.95	310	1.44	307	1.6	100	1.6	22	0	994.5	NA	0.0000		9999	7090	0	0	0
2019/11/30 01:24:00	BASE	0.74	306	1.44	307	1.7	100	1.7	22	0	994.5	NA	0.0000		9999	7090	0	0	0
2019/11/30 01:25:00	BASE	0.53	304	1.44	307	1.7	100	1.7	21	0	994.5	NA	0.0000		9999	7090	0	0	0
2019/11/30 01:26:00	BASE	0.69	303	1.44	307	1.7	100	1.7	20	0	994.5	NA	0.0000		9999	7090	0	0	0
2019/11/30 01:27:00	BASE	0.86	301	1.44	307	1.7	100	1.7	20	0	994.5	NA	0.0000		9999	7090	0	0	0
2019/11/30 01:28:00	BASE	0.68	300	1.44	307	1.7	100	1.7	19	0	994.5	NA	0.0000		9999	7090	0	0	0
2019/11/30 01:29:00	BASE	0.27	302	1.44	307	1.6	100	1.6	18	0	994.4	NA	0.0000		9999	7090	0	0	0
2019/11/30 01:30:00	BASE	0.00	305	1.44	307	1.6	100	1.6	18	0	994.4	NA	0.0000		9999	7120	0	0	0
2019/11/30 01:31:00	BASE	0.00	301	1.44	307	1.6	100	1.6	17	0	994.4	NA	0.0000		9999	7050	0	0	0
2019/11/30 01:32:00	BASE	0.00	307	1.44	307	1.7	100	1.7	16	0	994.4	NA	0.0000		9999	7090	0	0	0
2019/11/30 01:33:00	BASE	0.00	316	1.29	308	1.7	100	1.7	16	0	994.4	NA	0.0000		9999	7020	0	0	0
2019/11/30 01:34:00	BASE	0.00	314	1.29	308	1.8	100	1.8	16	0	994.4	NA	0.0000		9999	7020	0	0	0
2019/11/30 01:35:00	BASE	0.22	313	1.18	300	1.8	100	1.8	15	0	994.4	NA	0.0000		9999	7050	0	0	0
2019/11/30 01:36:00	BASE	0.22	319	1.18	300	1.8	100	1.8	15	0	994.4	NA	0.0000		9999	7050	0	0	0
2019/11/30 01:37:00	BASE	0.28	321	1.18	320	1.8	100	1.8	14	0	994.4	NA	0.0000		9999	6860	0	0	0
2019/11/30 01:38:00	BASE	0.86	313	1.29	301	1.8	100	1.8	14	0	994.4	NA	0.0000		9999	6960	0	0	0
2019/11/30 01:39:00	BASE	1.00	305	1.29	301	1.7	100	1.7	14	0	994.4	NA	0.0000		9999	6990	0	0	0
2019/11/30 01:40:00	BASE	0.82	302	1.29	303	1.7	100	1.7	13	0	994.4	NA	0.0000		9999	6990	0	0	0
2019/11/30 01:41:00	BASE	0.55	303	1.29	303	1.7	100	1.7	13	0	994.4	NA	0.0000		9999	6990	0	0	0
2019/11/30 01:42:00	BASE	0.18	310	1.29	303	1.6	100	1.6	13	0	994.4	NA	0.0000		9999	7020	0	0	0
2019/11/30 01:43:00	BASE	0.04	314	1.29	303	1.6	100	1.6	12	0	994.4	NA	0.0000		9999	6990	0	0	0
2019/11/30 01:44:00	BASE	0.00	309	1.29	303	1.6	100	1.6	12	0	994.4	NA	0.0000		9999	6990	0	0	0
2019/11/30 01:45:00	BASE	0.00	304	1.29	303	1.6	100	1.6	12	0	994.4	NA	0.0000		9999	6960	0	0	0
2019/11/30 01:46:00	BASE	0.00	300	1.29	303	1.6	100	1.6	11	0	994.4	NA	0.0000		9999	6990	0	0	0
2019/11/30 01:47:00	BASE	0.17	300	1.29	303	1.5	100	1.5	11	0	994.4	NA	0.0000		9999	6920	0	0	0
2019/11/30 01:48:00	BASE	0.22	302	1.29	303	1.5	100	1.5	10	0	994.4	NA	0.0000		9999	6990	0	0	0
2019/11/30 01:49:00	BASE	0.27	298	1.29	303	1.5	100	1.5	9	0	994.4	NA	0.0000		9999	6890	0	0	0
2019/11/30 01:50:00	BASE	0.31	291	1.08	279	1.5	100	1.5	8	0	994.4	NA	0.0000		9999	6960	0	0	0
2019/11/30 01:51:00	BASE	0.18	288	1.13	293	1.5	100	1.5	8	0	994.4	NA	0.0000		9999	6960	0	0	0
2019/11/30 01:52:00	BASE	0.68	284	1.49	285	1.5	100	1.5	7	0	994.4	NA	0.0000		9999	6920	0	0	0
2019/11/30 01:53:00	BASE	1.10	274	1.49	285	1.5	100	1.5	7	0	994.4	NA	0.0000		9999	6920	0	0	0
2019/11/30 01:54:00	BASE	1.18	267	1.49	285	1.4	100	1.4	7	0	994.4	NA	0.0000		9999	6920	0	0	0
2019/11/30 01:55:00	BASE	1.13	264	1.54	261	1.3	100	1.3	6	0	994.4	NA	0.0000		9999	6960	0	0	0
2019/11/30 01:56:00	BASE	1.11	262	1.54	271	1.3	100	1.3	6	0	994.4	NA	0.0000		9999	6960	0	0	0
2019/11/30 01:57:00	BASE	1.37	266	1.65	272	1.2	100	1.2	6	0	994.4	NA	0.0000		9999	6960	0	0	0
2019/11/30 01:58:00	BASE	1.46	270	1.65	282	1.2	100	1.2	6	0	994.4	NA	0.0000		9999	6890	0	0	0
2019/11/30 01:59:00	BASE	1.52	270	1.90	280	1.1	100	1.1	6	0	994.4	NA	0.0000		9999	6960	0	0	0
2019/11/30 02:00:00	BASE	1.75	270	2.11	266	1.1	100	1.1	6	0	994.3	NA	0.0000		9999	6920	0	0	0
2019/11/30 02:01:00	BASE	1.84	274	2.11	266	1.1	100	1.1	6	0	994.3	NA	0.0000		9999	6890	0	0	0
2019/11/30 02:02:00	BASE	1.63	279	2.11	266	1.0	100	1.0	6	0	994.3	NA	0.0000		9999	6990	0	0	0
2019/11/30 02:03:00	BASE	1.62	286	2.16	283	1.0	100	1.0	6	0	994.3	NA	0.0000		9999	6990	0	0	0
2019/11/30 02:04:00	BASE	1.79	289	2.16	283	1.1	100	1.1	6	0	994.3	NA	0.0000		9999	6920	0	0	0
2019/11/30 02:05:00	BASE	2.04	292	2.57	291	1.2	100	1.2	6	0	994.3	NA	0.0000		9999	6890	0	0	0
2019/11/30 02:06:00	BASE	2.30	294	2.57	291	1.3	100	1.3	5	0	994.3	NA	0.0000		9999	6920	0	0	0
2019/11/30 02:07:00	BASE	2.25	291	2.57	291	1.3	100	1.3	5	0	994.3	NA	0.0000		9999	6920	0	0	0
2019/11/30 02:08:00	BASE	2.03	293	2.57	291	1.3	100	1.3	5	0	994.4	NA	0.0000		9999	6960	0	0	0
2019/11/30 02:09:00	BASE	1.99	295	2.57	291	1.3	100	1.3	5	0	994.4	NA	0.0000		9999	6990	0	0	0
2019/11/30 02:10:00	BASE	2.06	295	2.57	291	1.2	100	1.2	5	0	994.3	NA	0.0000		9999	6960	0	0	0
2019/11/30 02:11:00	BASE	2.09	299	2.57	291	1.1	100	1.1	4	0	994.4	NA	0.0000		9999	6960	0	0	0
2019/11/30 02:12:00	BASE	1.97	299	2.57	291	1.1	100	1.1	4	0	994.4	NA	0.0000		9999	6960	0	0	0
2019/11/30 02:13:00	BASE	1.87	298	2.57	291	1.1	100	1.1	4	0	994.4	NA	0.0000		9999	6960	0	0	0
2019/11/30 02:14:00	BASE	1.89	298	2.57	291	1.1	100	1.1	4	0	994.4	NA	0.0000		9999	6890	0	0	0
2019/11/30 02:15:00	BASE	1.87	295	2.52	291	1.1	100	1.1	4	0	994.4	NA	0.0000		9999	6920	0	0	0
2019/11/30 02:16:00	BASE	1.82	296	2.37	287	1.2	100	1.2	4	0	994.4	NA	0.0000		9999	6920	0	0	0
2019/11/30 02:17:00	BASE	1.70	299	2.37	287	1.2	100	1.2	3	0	994.4	NA	0.0000		9999	6990	0	0	0
2019/11/30 02:18:00	BASE	1.58	303	2.37	287	1.2	100	1.2	3	0	994.4	NA	0.0000		9999	6990	0	0	0
2019/11/30 02:19:00	BASE	1.47	302	2.26	304	1.2	100	1.2	3	0	994.4	NA	0.0000		9999	6990	0	0	0
2019/11/30 02:20:00	BASE	1.35	298	2.26	304	1.2	100	1.2	3	0	994.4	NA	0.0000		9999	7050	0	0	0
2019/11/30 02:21:00	BASE	1.27	296	2.11	296	1.1	100	1.1	3	0	994.4	NA	0.0000		9999	7050	0	0	0
2019/11/30 02:22:00	BASE	1.38	297	2.11	296	1.1	100	1.1	3	0	994.4	NA	0.0000		9999	7020	0	0	0
2019/11/30 02:23:00	BASE	1.28	298	2.11	296	1.1	100	1.1	3	0	994.4	NA	0.0000		9999	7090	0	0	0
2019/11/30 02:24:00	BASE	1.00	297	2.11	296	1.1	100	1.1	3	0	994.2	NA	0.0000		9999	7120	0	0	0
2019/11/30 02:25:00	BASE	1.08	297	1.95	311	1.1	100	1.1	3	0	994.3	NA	0.0000		9999	7090	0	0	0
2019/11/30 02:26:00	BASE	1.27	296	1.95	311	1.1	100	1.1	3	0	994.2	NA	0.0000		9999	7090	0	0	0
2019/11/30 02:27:00	BASE	0.94	294	1.95	311	1.0	100	1.0	3	0	994.2	NA	0.0000		9999	7090	0	0	0
2019/11/30 02:28:00	BASE	0.56	296	1.65	297	1.0	100	1.0	3	0	994.2	NA	0.0000		9999	7120	0	0	0
2019/11/30 02:29:00	BASE	0.61	286	1.65	297	1.0	100	1.0	3	0	994.2	NA	0.0000		9999	7120	0	0	0
2019/11/30 02:30:00	BASE	0.86	274	1.65	297	0.9	100	0.9	3	0	994.2	NA	0.0000		9999	7090	0	0	0
2019/11/30 02:31:00	BASE	0.74	268	1.65	297	0.9	100	0.9	3	0	994.2	NA	0.0000		9999	7150	0	0	0
2019/11/30 02:32:00	BASE	0.68	269	1.49	284	0.9	100	0.9	3	0	994.2	NA	0.0000		9999	7150	0	0	0
2019/11/30 02:33:00	BASE	0.78	270	1.49	284	0.8	100	0.8	3	0	994.2	NA	0.0000		9999	7120	0	0	0
2019/11/30 02:34:00	BASE	0.92	267	1.49	284	0.8	100	0.8	2	0	994.2	NA	0.0000		9999	7120	0	0	0
2019/11/30 02:35:00	BASE	1.20	270	1.49	284	0.7	100	0.7	2	0	994.2	NA	0.0000		9999	7120	0	0	0
2019/11/30 02:36:00	BASE	0.95	268	1.44	267	0.7	100	0.7	2	0	994.2	NA	0.0000		9999	7120	0	0	0
2019/11/30 02:37:00	BASE	0.43	264	1.44	267	0.7	100	0.7	2	0	994.2	NA	0.0000		9999	7090	0	0	0
2019/11/30 02:38:00	BASE	0.14	262	1.44	267	0.7	100	0.7	2	0	994.2	NA	0.0000		9999	7150	0	0	0
2019/11/30 02:39:00	BASE	0.28	262	1.44	267	0.7	100	0.7	2	0	994.2	NA	0.0000		9999	7120	0	0	0
2019/11/30 02:40:00	BASE	0.20	261	1.44	267	0.7	100	0.7	2	0	994.2	NA	0.0000		9999	7150	0	0	0
2019/11/30 02:41:00	BASE	0.00	257	1.44	267	0.7	100	0.7	2	0	994.2	NA	0.0000		9999	7150	0	0	0
2019/11/30 02:42:00	BASE	0.05	255	1.44	267	0.7	100	0.7	2	0	994.1	NA	0.0000		9999	7150	0	0	0
2019/11/30 02:43:00	BASE	0.05	254	1.44	267	0.6	100	0.6	2	0	994.1	NA	0.0000		9999	7150	0	0	0
2019/11/30 02:44:00	BASE	0.00	252	1.44	267	0.6	100	0.6	2	0	994.1	NA	0.0000		9999	7090	0	0	0
2019/11/30 02:45:00	BASE	0.05	250	1.44	267	0.6	100	0.6	2	0	994.1	NA	0.0000		9999	7220	0	0	0
2019/11/30 02:46:00	BASE	0.05	250	1.29	262	0.5	100	0.5	2	0	994.1	NA	0.0000		9999	7220	0	0	0
2019/11/30 02:47:00	BASE	0.00	251	1.29	262	0.5	100	0.5	2	0	994.1	NA	0.0000		9999	7280	0	0	0
2019/11/30 02:48:00	BASE	0.00	255	1.29	262	0.5	100	0.5	2	0	994.1	NA	0.0000		9999	7250	0	0	0
2019/11/30 02:49:00	BASE	0.00	258	1.08	250	0.5	100	0.5	2	0	994.1	NA	0.0000		9999	0	0	0	460
2019/11/30 02:50:00	BASE	0.00	262	1.08	250	0.5	100	0.5	2	0	994.1	NA	0.0000		9999	7250	0	0	0
2019/11/30 02:51:00	BASE	0.09	265	1.08	263	0.5	100	0.5	2	0	994.1	NA	0.0000		9999	7190	0	0	0
2019/11/30 02:52:00	BASE	0.18	267	1.08	274	0.5	100	0.5	2	0	994.1	NA	0.0000		9999	490	7250	0	0
2019/11/30 02:53:00	BASE	0.13	270	1.08	274	0.5	100	0.5	2	0	994.1	NA	0.0000		9999	7280	0	0	0
2019/11/30 02:54:00	BASE	0.32	273	1.23	280	0.5	100	0.5	2	0	994.1	NA	0.0000		9999	7250	0	0	0
2019/11/30 02:55:00	BASE	0.71	273	1.29	260	0.5	100	0.5	2	0	994.1	NA	0.0000		9999	490	7250	0	0
2019/11/30 02:56:00	BASE	0.62	265	1.29	260	0.5	100	0.5	2	0	994.1	NA	0.0000		9999	7250	0	0	0
2019/11/30 02:57:00	BASE	0.47	261	1.29	260	0.5	100	0.5	2	0	994.1	NA	0.0000		9999	460	7280	0	0
2019/11/30 02:58:00	BASE	0.93	259	1.39	253	0.4	100	0.4	2	0	994.1	NA	0.0000		9999	430	7280	0	0
2019/11/30 02:59:00	BASE	1.35	259	1.59	260	0.4	100	0.4	2	0	994.1	NA	0.0000		9999	430	0	0	0
2019/11/30 03:00:00	BASE	1.36	263	1.75	259	0.4	100	0.4	1	0	994.1	NA	0.0000		9999	430	7280	0	0
2019/11/30 03:01:00	BASE	1.28	265	1.75	259	0.3	100	0.3	1	0	994.1	NA	0.0000		9999	430	0	0	0
2019/11/30 03:02:00	BASE	1.11	265	1.75	259	0.3	100	0.3	1	0	994.1	NA	0.0000		9999	0	0	0	430
2019/11/30 03:03:00	BASE	1.24	266	1.75	259	0.3	100	0.3	1	0	994.1	NA	0.0000		9999	430	0	0	0
2019/11/30 03:04:00	BASE	1.52	263	1.75	259	0.3	100	0.3	1	0	994.1	NA	0.0000		9999	390	0	0	0
2019/11/30 03:05:00	BASE	1.60	260	1.85	256	0.2	100	0.2	1	0	994.0	NA	0.0000		9999	430	0	0	0
2019/11/30 03:06:00	BASE	1.73	260	2.01	258	0.2	100	0.2	1	0	994.0	NA	0.0000		9999	430	0	0	0
2019/11/30 03:07:00	BASE	1.85	259	2.06	257	0.2	100	0.2	1	0	994.0	NA	0.0000		9999	430	0	0	0
2019/11/30 03:08:00	BASE	1.89	258	2.06	257	0.1	100	0.1	1	0	994.0	NA	0.0000		9999	0	0	0	430
2019/11/30 03:09:00	BASE	1.88	260	2.11	263	0.1	100	0.1	1	0	994.0	NA	0.0000		9999	0	0	0	360
2019/11/30 03:10:00	BASE	1.74	263	2.11	263	0.1	100	0.1	1	0	994.0	NA	0.0000		9999	0	0	0	330
2019/11/30 03:11:00	BASE	1.62	265	2.11	263	0.1	100	0.1	1	0	994.0	NA	0.0000		9999	0	0	0	300
2019/11/30 03:12:00	BASE	1.55	270	2.11	263	0.1	100	0.1	1	0	994.0	NA	0.0000		9999	0	0	0	300
2019/11/30 03:13:00	BASE	1.57	273	2.11	263	0.1	100	0.1	1	0	993.9	NA	0.0000		9999	0	0	0	360
2019/11/30 03:14:00	BASE	1.57	274	2.11	263	0.1	100	0.1	1	0	993.9	NA	0.0000		9999	230	0	0	0
2019/11/30 03:15:00	BASE	1.61	278	2.11	263	0.1	100	0.1	1	0	993.9	NA	0.0000		9999	160	0	0	0
2019/11/30 03:16:00	BASE	1.82	279	2.21	269	0.1	100	0.1	1	0	993.9	NA	0.0000		9999	0	0	0	520
2019/11/30 03:17:00	BASE	1.86	280	2.21	269	0.1	100	0.1	1	0	993.9	NA	0.0000		3200	0	0	0	490
2019/11/30 03:18:00	BASE	1.76	283	2.21	269	0.1	100	0.1	1	0	993.9	NA	0.0000	BR	1600	0	0	0	490
2019/11/30 03:19:00	BASE	1.83	283	2.31	283	0.0	100	0.0	1	0	993.9	NA	0.0000	BR	1500	0	0	0	360
2019/11/30 03:20:00	BASE	1.85	285	2.31	283	0.0	100	0.0	1	0	993.9	NA	0.0000	BR	0800	0	0	0	360
2019/11/30 03:21:00	BASE	1.92	290	2.31	283	0.0	100	0.0	1	0	993.9	NA	0.0000	BR	0750	0	0	0	360
2019/11/30 03:22:00	BASE	2.03	288	2.31	294	-0.0	100	-0.0	1	0	993.9	NA	0.0000	BR	0500	0	0	0	260
2019/11/30 03:23:00	BASE	2.00	283	2.52	288	-0.1	100	-0.1	1	0	993.9	NA	0.0000	BR	0500	0	0	0	260
2019/11/30 03:24:00	BASE	1.93	283	2.52	288	-0.1	100	-0.1	1	0	993.9	NA	0.0000	BR	0650	0	0	0	260
2019/11/30 03:25:00	BASE	2.02	283	2.52	281	-0.1	100	-0.1	1	0	993.9	NA	0.0000	BR	0650	0	0	0	260
2019/11/30 03:26:00	BASE	2.19	290	2.52	281	-0.1	100	-0.1	1	0	993.9	NA	0.0000	FZFG	0650	0	0	0	260
2019/11/30 03:27:00	BASE	2.14	292	2.52	281	-0.1	100	-0.1	1	0	993.9	NA	0.0000	FZFG	0500	0	0	0	230
2019/11/30 03:28:00	BASE	2.04	294	2.52	281	-0.2	100	-0.2	1	0	993.9	NA	0.0000	FZFG	0350	0	0	0	230
2019/11/30 03:29:00	BASE	2.04	298	2.52	281	-0.2	100	-0.2	1	0	993.9	NA	0.0000	FZFG	0450	0	0	0	230
2019/11/30 03:30:00	BASE	2.04	296	2.52	281	-0.2	100	-0.2	1	0	993.9	NA	0.0000	FZFG	0550	0	0	0	260
2019/11/30 03:31:00	BASE	1.93	295	2.52	281	-0.3	100	-0.3	1	0	993.9	NA	0.0000	FZFG	0450	0	0	0	300
2019/11/30 03:32:00	BASE	1.84	295	2.52	281	-0.3	100	-0.3	1	0	993.9	NA	0.0000	FZFG	0500	0	0	0	330
2019/11/30 03:33:00	BASE	1.78	294	2.52	281	-0.3	100	-0.3	1	0	993.9	NA	0.0000	FZFG	0500	0	0	0	390
2019/11/30 03:34:00	BASE	1.76	292	2.52	281	-0.3	100	-0.3	1	0	993.9	NA	0.0000	FZFG	0500	0	0	0	390
2019/11/30 03:35:00	BASE	1.75	293	2.37	300	-0.3	100	-0.3	0	0	993.9	NA	0.0000	FZFG	0500	0	0	0	360
2019/11/30 03:36:00	BASE	1.71	291	2.26	284	-0.3	100	-0.3	0	0	993.9	NA	0.0000	FZFG	0700	0	0	0	330
2019/11/30 03:37:00	BASE	1.66	292	2.21	299	-0.4	100	-0.4	0	0	993.9	NA	0.0000	FZFG	0900	0	0	0	300
2019/11/30 03:38:00	BASE	1.64	296	2.11	293	-0.3	100	-0.3	0	0	993.9	NA	0.0000	FZFG	0800	0	0	0	300
2019/11/30 03:39:00	BASE	1.74	297	2.06	293	-0.3	100	-0.3	0	0	993.9	NA	0.0000	FZFG	1100	0	0	0	260
2019/11/30 03:40:00	BASE	1.84	299	1.95	293	-0.3	100	-0.3	0	0	993.9	NA	0.0000	FZFG	1400	0	0	0	260
2019/11/30 03:41:00	BASE	1.85	296	2.06	293	-0.3	100	-0.3	0	0	993.9	NA	0.0000	FZFG	1300	0	0	0	260
2019/11/30 03:42:00	BASE	1.89	291	2.06	293	-0.3	100	-0.3	0	0	993.9	NA	0.0000	FZFG	0800	0	0	0	300
2019/11/30 03:43:00	BASE	1.90	293	2.06	293	-0.4	100	-0.4	0	0	993.9	NA	0.0000	FZFG	0650	0	0	0	300
2019/11/30 03:44:00	BASE	1.84	299	2.06	306	-0.4	100	-0.4	0	0	993.9	NA	0.0000	FZFG	0700	0	0	0	300
2019/11/30 03:45:00	BASE	1.86	302	2.11	301	-0.4	100	-0.4	0	0	993.9	NA	0.0000	FZFG	0750	0	0	0	260
2019/11/30 03:46:00	BASE	1.88	306	2.11	301	-0.4	100	-0.4	0	0	993.9	NA	0.0000	FZFG	0650	0	0	0	330
2019/11/30 03:47:00	BASE	1.83	307	2.11	301	-0.4	100	-0.4	0	0	993.9	NA	0.0000	FZFG	0650	0	0	0	300
2019/11/30 03:48:00	BASE	1.88	307	2.21	306	-0.4	100	-0.4	0	0	993.9	NA	0.0000	FZFG	1200	0	0	0	300
2019/11/30 03:49:00	BASE	2.01	311	2.21	315	-0.4	100	-0.4	0	0	993.9	NA	0.0000	FZFG	1100	0	0	0	260
2019/11/30 03:50:00	BASE	1.90	321	2.21	315	-0.4	100	-0.4	0	0	993.9	NA	0.0000	FZFG	1000	0	0	0	230
2019/11/30 03:51:00	BASE	1.69	328	2.21	315	-0.4	100	-0.4	0	0	993.9	NA	0.0000	FZFG	0700	0	0	0	260
2019/11/30 03:52:00	BASE	1.85	333	2.26	336	-0.4	100	-0.4	0	0	993.9	NA	0.0000	FZFG	0600	0	0	0	230
2019/11/30 03:53:00	BASE	1.91	342	2.26	336	-0.4	100	-0.4	0	0	993.8	NA	0.0000	FZFG	0500	0	0	0	230
2019/11/30 03:54:00	BASE	1.61	346	2.26	336	-0.4	100	-0.4	0	0	993.7	NA	0.0000	FZFG	0450	0	0	0	230
2019/11/30 03:55:00	BASE	1.66	339	2.26	336	-0.4	100	-0.4	0	0	993.7	NA	0.0000	FZFG	0750	0	0	0	230
2019/11/30 03:56:00	BASE	2.03	329	2.31	332	-0.4	100	-0.4	0	0	993.7	NA	0.0000	FZFG	0900	0	0	0	230
2019/11/30 03:57:00	BASE	2.12	326	2.42	328	-0.4	100	-0.4	0	0	993.7	NA	0.0000	FZFG	0750	0	0	0	230
2019/11/30 03:58:00	BASE	2.39	330	2.93	323	-0.4	100	-0.4	0	0	993.7	NA	0.0000	FZFG	0650	0	0	0	230
2019/11/30 03:59:00	BASE	2.48	341	2.93	323	-0.4	100	-0.4	0	0	993.7	NA	0.0000	FZFG	0400	0	0	0	200
2019/11/30 04:00:00	BASE	2.15	350	2.93	323	-0.4	100	-0.4	0	0	993.7	NA	0.0000	FZFG	0750	0	0	0	200
2019/11/30 04:02:00	BASE	1.82	343	2.93	323	-0.4	100	-0.4	0	0	993.7	NA	0.0000	FZFG	0500	0	0	0	160
2019/11/30 04:03:00	BASE	1.72	335	2.93	323	-0.4	100	-0.4	0	0	993.7	NA	0.0000	FZFG	0400	0	0	0	200
2019/11/30 04:04:00	BASE	1.56	331	2.93	323	-0.4	100	-0.4	0	0	993.7	NA	0.0000	FZFG	0400	0	0	0	230
2019/11/30 04:05:00	BASE	1.53	327	2.93	323	-0.4	100	-0.4	0	0	993.7	NA	0.0000	FZFG	0550	0	0	0	260
2019/11/30 04:06:00	BASE	1.73	329	2.93	323	-0.4	100	-0.4	0	0	993.6	NA	0.0000	FZFG	0500	0	0	0	260
2019/11/30 04:07:00	BASE	1.90	339	2.93	323	-0.5	100	-0.5	0	0	993.6	NA	0.0000	FZFG	0500	0	0	0	260
2019/11/30 04:08:00	BASE	1.96	344	2.83	327	-0.5	100	-0.5	0	0	993.7	NA	0.0000	FZFG	0450	0	0	0	260
2019/11/30 04:09:00	BASE	1.84	337	2.42	347	-0.5	100	-0.5	0	0	993.6	NA	0.0000	FZFG	0500	0	0	0	230
2019/11/30 04:10:00	BASE	1.63	337	2.31	348	-0.5	100	-0.5	0	0	993.7	NA	0.0000	FZFG	0600	0	0	0	230
2019/11/30 04:11:00	BASE	1.75	345	2.21	338	-0.5	100	-0.5	0	0	993.7	NA	0.0000	FZFG	0700	0	0	0	200
2019/11/30 04:12:00	BASE	1.87	344	2.21	338	-0.5	100	-0.5	0	0	993.7	NA	0.0000	FZFG	0600	0	0	0	200
2019/11/30 04:13:00	BASE	1.80	331	2.21	338	-0.5	100	-0.5	0	0	993.6	NA	0.0000	FZFG	0550	0	0	0	230
2019/11/30 04:14:00	BASE	1.88	322	2.21	322	-0.5	100	-0.5	0	0	993.6	NA	0.0000	FZFG	0500	0	0	0	230
2019/11/30 04:15:00	BASE	2.03	321	2.21	317	-0.5	100	-0.5	0	0	993.6	NA	0.0000	FZFG	0500	0	0	0	200
2019/11/30 04:16:00	BASE	1.98	322	2.21	317	-0.5	100	-0.5	0	0	993.6	NA	0.0000	FZFG	0550	0	0	0	230
2019/11/30 04:17:00	BASE	1.93	324	2.21	317	-0.5	100	-0.5	0	0	993.6	NA	0.0000	FZFG	0650	0	0	0	230
2019/11/30 04:18:00	BASE	1.96	324	2.21	317	-0.5	100	-0.5	0	0	993.6	NA	0.0000	FZFG	0700	0	0	0	260
2019/11/30 04:19:00	BASE	1.89	328	2.21	317	-0.5	100	-0.5	0	0	993.6	NA	0.0000	FZFG	0650	0	0	0	230
2019/11/30 04:20:00	BASE	1.84	337	2.21	317	-0.5	100	-0.5	0	0	993.6	NA	0.0000	FZFG	0800	0	0	0	200
2019/11/30 04:21:00	BASE	1.79	336	2.21	317	-0.5	100	-0.5	0	0	993.6	NA	0.0000	FZFG	1100	0	0	0	200
2019/11/30 04:22:00	BASE	1.79	330	2.21	317	-0.5	100	-0.5	0	0	993.6	NA	0.0000	FZFG	0900	0	0	0	230
2019/11/30 04:23:00	BASE	2.06	324	2.62	331	-0.5	100	-0.5	0	0	993.5	NA	0.0000	FZFG	0700	0	0	0	230
2019/11/30 04:24:00	BASE	2.43	333	2.73	351	-0.5	100	-0.5	0	0	993.5	NA	0.0000	FZFG	0600	0	0	0	200
2019/11/30 04:25:00	BASE	2.57	342	2.73	351	-0.5	100	-0.5	0	0	993.5	NA	0.0000	FZFG	0750	0	0	0	160
2019/11/30 04:26:00	BASE	2.36	335	2.73	351	-0.6	100	-0.6	0	0	993.5	NA	0.0000	FZFG	1300	0	0	0	160
2019/11/30 04:27:00	BASE	2.28	326	2.73	351	-0.6	100	-0.6	0	0	993.5	NA	0.0000	FZFG	1000	0	0	0	200
2019/11/30 04:28:00	BASE	2.44	320	2.73	351	-0.6	100	-0.6	0	0	993.5	NA	0.0000	FZFG	0400	0	0	0	200
2019/11/30 04:29:00	BASE	2.40	320	2.73	351	-0.6	100	-0.6	0	0	993.5	NA	0.0000	FZFG	0400	0	0	0	200
2019/11/30 04:30:00	BASE	2.44	317	2.78	315	-0.7	100	-0.7	0	0	993.5	NA	0.0000	FZFG	0400	0	0	0	200
2019/11/30 04:31:00	BASE	2.62	313	2.88	315	-0.7	100	-0.7	0	0	993.5	NA	0.0000	FZFG	0450	0	0	0	200
2019/11/30 04:32:00	BASE	2.64	311	2.88	315	-0.8	100	-0.8	0	0	993.5	NA	0.0000	FZFG	0400	0	0	0	200
2019/11/30 04:33:00	BASE	2.61	309	2.98	313	-0.8	100	-0.8	0	0	993.5	NA	0.0000	FZFG	0400	0	0	0	200
2019/11/30 04:34:00	BASE	2.64	307	2.98	313	-0.8	100	-0.8	0	0	993.5	NA	0.0000	FZFG	0550	0	0	0	200
2019/11/30 04:35:00	BASE	2.66	303	2.98	313	-0.8	100	-0.8	0	0	993.5	NA	0.0000	FZFG	0600	0	0	0	200
2019/11/30 04:36:00	BASE	2.66	301	2.98	313	-0.8	100	-0.8	0	0	993.5	NA	0.0000	FZFG	0550	0	0	0	230
2019/11/30 04:37:00	BASE	2.72	302	3.04	304	-0.8	100	-0.8	0	0	993.5	NA	0.0000	FZFG	0550	0	0	0	200
2019/11/30 04:38:00	BASE	2.68	301	3.04	304	-0.8	100	-0.8	0	0	993.5	NA	0.0000	FZFG	0500	0	0	0	200
2019/11/30 04:39:00	BASE	2.65	301	3.04	304	-0.8	100	-0.8	0	0	993.5	NA	0.0000	FZFG	0500	0	0	0	200
2019/11/30 04:40:00	BASE	2.70	304	3.04	304	-0.9	100	-0.9	0	0	993.5	NA	0.0000	FZFG	0500	0	0	0	200
2019/11/30 04:41:00	BASE	2.70	306	3.04	304	-0.9	100	-0.9	0	0	993.5	NA	0.0000	FZFG	0400	0	0	0	200
2019/11/30 04:42:00	BASE	2.58	307	3.04	304	-0.9	100	-0.9	0	0	993.5	NA	0.0000	FZFG	0350	0	0	0	200
2019/11/30 04:43:00	BASE	2.52	310	3.04	304	-0.9	100	-0.9	0	0	993.5	NA	0.0000	FZFG	0300	0	0	0	200
2019/11/30 04:44:00	BASE	2.60	312	3.04	304	-0.9	100	-0.9	0	0	993.5	NA	0.0000	FZFG	0300	0	0	0	160
2019/11/30 04:45:00	BASE	2.71	313	3.09	308	-1.0	100	-1.0	0	0	993.4	NA	0.0000	FZFG	0300	0	0	0	160
2019/11/30 04:46:00	BASE	2.75	315	3.09	308	-1.0	100	-1.0	0	0	993.4	NA	0.0000	FZFG	0300	0	0	0	160
2019/11/30 04:47:00	BASE	2.69	316	3.09	308	-1.0	100	-1.0	0	0	993.4	NA	0.0000	FZFG	0300	0	0	0	160
2019/11/30 04:48:00	BASE	2.62	315	3.09	308	-1.0	100	-1.0	0	0	993.4	NA	0.0000	FZFG	0300	0	0	0	160
2019/11/30 04:49:00	BASE	2.64	315	3.09	308	-1.0	100	-1.0	0	0	993.4	NA	0.0000	FZFG	0300	0	0	0	160
2019/11/30 04:50:00	BASE	2.67	312	3.09	308	-1.1	100	-1.1	0	0	993.4	NA	0.0000	FZFG	0300	0	0	0	160
2019/11/30 04:51:00	BASE	2.63	307	3.09	308	-1.1	100	-1.1	1	0	993.3	NA	0.0000	FZFG	0350	0	0	0	200
2019/11/30 04:52:00	BASE	2.68	304	3.09	308	-1.1	100	-1.1	0	0	993.3	NA	0.0000	FZFG	0350	0	0	0	160
2019/11/30 04:53:00	BASE	2.82	302	3.24	297	-1.1	100	-1.1	1	0	993.3	NA	0.0000	FZFG	0400	0	0	0	200
2019/11/30 04:54:01	BASE	2.85	300	3.24	297	-1.0	100	-1.0	1	0	993.3	NA	0.0000	FZFG	0400	0	0	0	160
2019/11/30 04:55:01	BASE	2.72	302	3.24	297	-1.0	100	-1.0	1	0	993.3	NA	0.0000	FZFG	0400	0	0	0	160
2019/11/30 04:56:01	BASE	2.47	305	3.24	297	-1.0	100	-1.0	1	0	993.3	NA	0.0000	FZFG	0350	0	0	0	160
2019/11/30 04:57:01	BASE	2.46	307	3.24	297	-1.0	100	-1.0	1	0	993.3	NA	0.0000	FZFG	0350	0	0	0	160
2019/11/30 04:58:01	BASE	2.48	305	3.24	297	-1.0	100	-1.0	1	0	993.3	NA	0.0000	FZFG	0350	0	0	0	160
2019/11/30 04:59:01	BASE	2.20	303	3.24	297	-1.0	100	-1.0	1	0	993.3	NA	0.0000	FZFG	0350	0	0	0	160
2019/11/30 05:00:01	BASE	1.97	309	3.24	297	-1.0	100	-1.0	1	0	993.2	NA	0.0000	FZFG	0350	0	0	0	160
2019/11/30 05:01:01	BASE	2.12	314	3.24	297	-1.0	100	-1.0	1	0	993.2	NA	0.0000	FZFG	0300	0	0	0	160
2019/11/30 05:02:01	BASE	2.56	320	3.24	297	-0.9	100	-0.9	1	0	993.2	NA	0.0000	FZFG	0300	0	0	0	160
2019/11/30 05:03:01	BASE	2.72	327	3.24	297	-0.9	100	-0.9	1	0	993.2	NA	0.0000	FZFG	0350	0	0	0	160
2019/11/30 05:04:01	BASE	2.77	330	3.19	327	-0.9	100	-0.9	1	0	993.2	NA	0.0000	FZFG	0350	0	0	0	200
2019/11/30 05:05:01	BASE	2.80	330	3.19	327	-0.9	100	-0.9	1	0	993.2	NA	0.0000	FZFG	0350	0	0	0	160
2019/11/30 05:06:01	BASE	2.68	332	3.19	327	-0.9	100	-0.9	1	0	993.2	NA	0.0000	FZFG	0400	0	0	0	200
2019/11/30 05:07:01	BASE	2.62	329	3.19	327	-0.9	100	-0.9	1	0	993.2	NA	0.0000	FZFG	0400	0	0	0	200
2019/11/30 05:08:01	BASE	2.82	314	3.34	307	-0.8	100	-0.8	1	0	993.2	NA	0.0000	FZFG	0350	0	0	0	160
2019/11/30 05:09:01	BASE	3.14	305	3.50	309	-0.8	100	-0.8	1	0	993.2	NA	0.0000	FZFG	0350	0	0	0	130
2019/11/30 05:10:01	BASE	3.06	306	3.50	309	-0.8	100	-0.8	1	0	993.2	NA	0.0000	FZFG	0350	0	0	0	160
2019/11/30 05:11:01	BASE	2.75	308	3.50	309	-0.8	100	-0.8	1	0	993.2	NA	0.0000	FZFG	0350	0	0	0	160
2019/11/30 05:12:01	BASE	2.85	311	3.50	329	-0.8	100	-0.8	1	0	993.2	NA	0.0000	FZFG	0300	0	0	0	160
2019/11/30 05:13:01	BASE	3.01	313	3.55	319	-0.9	100	-0.9	1	0	993.2	NA	0.0000	FZFG	0300	0	0	0	160
2019/11/30 05:14:01	BASE	3.10	310	3.55	319	-0.9	100	-0.9	1	0	993.2	NA	0.0000	FZFG	0300	0	0	0	160
2019/11/30 05:15:01	BASE	2.92	307	3.55	319	-1.0	100	-1.0	1	0	993.2	NA	0.0000	FZFG	0300	0	0	0	160
2019/11/30 05:16:01	BASE	2.84	309	3.55	319	-1.0	100	-1.0	1	0	993.2	NA	0.0000	FZFG	0300	0	0	0	160
2019/11/30 05:17:01	BASE	2.95	312	3.55	319	-1.1	100	-1.1	1	0	993.2	NA	0.0000	FZFG	0300	0	0	0	160
2019/11/30 05:18:01	BASE	2.82	311	3.55	319	-1.1	100	-1.1	1	0	993.2	NA	0.0000	FZFG	0300	0	0	0	160
2019/11/30 05:19:01	BASE	2.73	309	3.55	319	-1.2	100	-1.2	1	0	993.2	NA	0.0000	FZFG	0300	0	0	0	160
2019/11/30 05:20:01	BASE	2.62	311	3.55	319	-1.2	100	-1.2	1	0	993.2	NA	0.0000	FZFG	0300	0	0	0	160
2019/11/30 05:21:01	BASE	2.66	309	3.55	319	-1.2	100	-1.2	1	0	993.2	NA	0.0000	FZFG	0300	0	0	0	160
2019/11/30 05:22:01	BASE	2.99	309	3.55	319	-1.2	100	-1.2	1	0	993.2	NA	0.0000	FZFG	0300	0	0	0	160
2019/11/30 05:23:01	BASE	3.17	316	3.50	315	-1.2	100	-1.2	1	0	993.2	NA	0.0000	FZFG	0300	0	0	0	160
2019/11/30 05:24:01	BASE	2.96	316	3.50	315	-1.3	100	-1.3	1	0	993.2	NA	0.0000	FZFG	0300	0	0	0	200
2019/11/30 05:25:01	BASE	2.83	316	3.50	315	-1.3	100	-1.3	1	0	993.2	NA	0.0000	FZFG	0300	0	0	0	200
2019/11/30 05:26:01	BASE	2.91	317	3.45	315	-1.3	100	-1.3	1	0	993.2	NA	0.0000	FZFG	0350	0	0	0	160
2019/11/30 05:27:01	BASE	3.03	315	3.45	319	-1.3	100	-1.3	2	0	993.2	NA	0.0000	FZFG	0300	0	0	0	160
2019/11/30 05:28:01	BASE	2.93	310	3.45	319	-1.3	100	-1.3	2	0	993.2	NA	0.0000	FZFG	0300	0	0	0	160
2019/11/30 05:29:01	BASE	3.09	311	3.76	316	-1.3	100	-1.3	2	0	993.2	NA	0.0000	FZFG	0300	0	0	0	160
2019/11/30 05:30:01	BASE	3.28	314	3.76	316	-1.3	100	-1.3	2	0	993.1	NA	0.0000	FZFG	0300	0	0	0	160
2019/11/30 05:31:01	BASE	3.11	311	3.76	316	-1.4	100	-1.4	2	0	993.0	NA	0.0000	FZFG	0350	0	0	0	160
2019/11/30 05:32:01	BASE	3.04	313	3.76	316	-1.4	100	-1.4	2	0	993.0	NA	0.0000	FZFG	0350	0	0	0	200
2019/11/30 05:33:01	BASE	3.24	312	3.76	307	-1.3	100	-1.3	2	0	993.0	NA	0.0000	FZFG	0300	0	0	0	160
2019/11/30 05:34:01	BASE	3.62	311	4.12	320	-1.3	100	-1.3	2	0	993.0	NA	0.0000	FZFG	0300	0	0	0	160
2019/11/30 05:35:01	BASE	3.54	314	4.12	320	-1.3	100	-1.3	2	0	993.0	NA	0.0000	FZFG	0300	0	0	0	160
2019/11/30 05:36:01	BASE	3.43	315	4.12	320	-1.3	100	-1.3	2	0	993.0	NA	0.0000	FZFG	0300	0	0	0	160
2019/11/30 05:37:01	BASE	3.41	319	4.12	320	-1.3	100	-1.3	2	0	992.9	NA	0.0000	FZFG	0300	0	0	0	160
2019/11/30 05:38:01	BASE	3.19	316	4.12	320	-1.4	100	-1.4	2	0	992.9	NA	0.0000	FZFG	0300	0	0	0	160
2019/11/30 05:39:01	BASE	3.30	306	4.22	298	-1.4	100	-1.4	2	0	992.9	NA	0.0000	FZFG	0300	0	0	0	160
2019/11/30 05:40:01	BASE	3.81	303	4.32	302	-1.4	100	-1.4	2	0	992.9	NA	0.0000	FZFG	0400	0	0	0	160
2019/11/30 05:41:01	BASE	3.87	312	4.32	302	-1.4	100	-1.4	2	0	992.9	NA	0.0000	FZFG	0350	0	0	0	160
2019/11/30 05:42:01	BASE	3.54	318	4.32	302	-1.4	100	-1.4	2	0	992.9	NA	0.0000	FZFG	0300	0	0	0	160
2019/11/30 05:43:01	BASE	3.33	317	4.32	302	-1.5	100	-1.5	2	0	992.9	NA	0.0000	FZFG	0300	0	0	0	160
2019/11/30 05:44:01	BASE	3.41	319	4.32	302	-1.5	100	-1.5	2	0	992.9	NA	0.0000	FZFG	0300	0	0	0	160
2019/11/30 05:45:01	BASE	3.58	320	4.32	302	-1.5	100	-1.5	2	0	992.9	NA	0.0000	FZFG	0300	0	0	0	160
2019/11/30 05:46:01	BASE	3.75	320	4.32	302	-1.6	100	-1.6	2	0	992.9	NA	0.0000	FZFG	0300	0	0	0	160
2019/11/30 05:47:01	BASE	3.59	322	4.32	302	-1.6	100	-1.6	2	0	992.9	NA	0.0000	FZFG	0300	0	0	0	200
2019/11/30 05:48:01	BASE	3.36	319	4.32	302	-1.7	100	-1.7	2	0	992.9	NA	0.0000	FZFG	0350	0	0	0	200
2019/11/30 05:49:01	BASE	3.57	316	4.32	302	-1.7	100	-1.7	3	0	992.9	NA	0.0000	FZFG	0350	0	0	0	200
2019/11/30 05:50:01	BASE	3.55	315	4.17	319	-1.7	100	-1.7	3	0	992.9	NA	0.0000	FZFG	0350	0	0	0	200
2019/11/30 05:51:01	BASE	3.34	313	4.17	319	-1.8	100	-1.8	3	0	992.9	NA	0.0000	FZFG	0350	0	0	0	200
2019/11/30 05:52:01	BASE	3.40	311	4.17	319	-1.8	100	-1.8	2	0	992.9	NA	0.0000	FZFG	0350	0	0	0	200
2019/11/30 05:53:01	BASE	3.63	310	4.17	319	-1.8	100	-1.8	2	0	992.9	NA	0.0000	FZFG	0400	0	0	0	200
2019/11/30 05:54:01	BASE	3.73	312	4.17	319	-1.8	100	-1.8	3	0	992.9	NA	0.0000	FZFG	0400	0	0	0	160
2019/11/30 05:55:01	BASE	3.87	315	4.32	318	-1.7	100	-1.7	3	0	992.8	NA	0.0000	FZFG	0400	0	0	0	200
2019/11/30 05:56:01	BASE	3.93	313	4.32	318	-1.8	100	-1.8	3	0	992.9	NA	0.0000	FZFG	0400	0	0	0	200
2019/11/30 05:57:01	BASE	3.74	315	4.32	318	-1.8	100	-1.8	3	0	992.9	NA	0.0000	FZFG	0400	0	0	0	200
2019/11/30 05:58:01	BASE	3.41	316	4.32	318	-1.8	100	-1.8	3	0	992.9	NA	0.0000	FZFG	0350	0	0	0	160
2019/11/30 05:59:01	BASE	3.55	315	4.32	318	-1.8	100	-1.8	3	0	992.9	NA	0.0000	FZFG	0350	0	0	0	200
2019/11/30 06:00:01	BASE	3.75	314	4.32	318	-1.8	100	-1.8	3	0	992.9	NA	0.0000	FZFG	0400	0	0	0	200
2019/11/30 06:01:01	BASE	3.74	312	4.32	318	-1.8	100	-1.8	3	0	992.9	NA	0.0000	FZFG	0400	0	0	0	230
2019/11/30 06:02:01	BASE	3.93	312	4.63	310	-1.8	100	-1.8	3	0	992.9	NA	0.0000	FZFG	0450	0	0	0	200
2019/11/30 06:03:01	BASE	3.68	315	4.63	310	-1.8	100	-1.8	3	0	992.9	NA	0.0000	FZFG	0450	0	0	0	200
2019/11/30 06:04:01	BASE	3.63	317	4.63	310	-1.7	100	-1.7	3	0	992.9	NA	0.0000	FZFG	0450	0	0	0	200
2019/11/30 06:05:01	BASE	3.65	317	4.63	310	-1.7	100	-1.7	3	0	992.9	NA	0.0000	FZFG	0400	0	0	0	230
2019/11/30 06:06:01	BASE	3.44	316	4.63	310	-1.7	100	-1.7	3	0	992.9	NA	0.0000	FZFG	0400	0	0	0	200
2019/11/30 06:07:01	BASE	3.65	321	4.63	310	-1.8	100	-1.8	3	0	992.8	NA	0.0000	FZFG	0400	0	0	0	230
2019/11/30 06:08:01	BASE	3.49	328	4.63	310	-1.8	100	-1.8	3	0	992.8	NA	0.0000	FZFG	0400	0	0	0	230
2019/11/30 06:09:01	BASE	3.19	326	4.63	310	-1.8	100	-1.8	3	0	992.8	NA	0.0000	FZFG	0450	0	0	0	230
2019/11/30 06:10:01	BASE	3.58	321	4.63	310	-1.8	100	-1.8	3	0	992.8	NA	0.0000	FZFG	0400	0	0	0	200
2019/11/30 06:11:01	BASE	3.83	319	4.63	310	-1.8	100	-1.8	3	0	992.8	NA	0.0000	FZFG	0350	0	0	0	160
2019/11/30 06:12:01	BASE	3.57	325	4.48	328	-1.7	100	-1.7	3	0	992.8	NA	0.0000	FZFG	0350	0	0	0	200
2019/11/30 06:13:01	BASE	3.19	333	4.48	328	-1.7	100	-1.7	3	0	992.8	NA	0.0000	FZFG	0400	0	0	0	200
2019/11/30 06:14:01	BASE	3.17	325	4.48	328	-1.7	100	-1.7	3	0	992.8	NA	0.0000	FZFG	0500	0	0	0	230
2019/11/30 06:15:01	BASE	3.32	317	4.48	328	-1.8	100	-1.8	4	0	992.8	NA	0.0000	FZFG	0450	0	0	0	160
2019/11/30 06:16:01	BASE	3.25	315	4.48	328	-1.8	100	-1.8	4	0	992.8	NA	0.0000	FZFG	0400	0	0	0	200
2019/11/30 06:17:01	BASE	3.16	318	4.42	308	-1.8	100	-1.8	4	0	992.8	NA	0.0000	FZFG	0400	0	0	0	200
2019/11/30 06:18:01	BASE	2.94	329	4.42	308	-1.8	100	-1.8	4	0	992.8	NA	0.0000	FZFG	0400	0	0	0	230
2019/11/30 06:19:01	BASE	3.11	335	4.42	308	-1.8	100	-1.8	4	0	992.8	NA	0.0000	FZFG	0400	0	0	0	230
2019/11/30 06:20:01	BASE	3.57	338	4.42	308	-1.8	100	-1.8	4	0	992.7	NA	0.0000	FZFG	0450	0	0	0	200
2019/11/30 06:21:01	BASE	3.89	340	4.48	340	-1.7	100	-1.7	4	0	992.7	NA	0.0000	FZFG	0450	0	0	0	160
2019/11/30 06:22:01	BASE	4.04	340	4.48	340	-1.7	100	-1.7	4	0	992.8	NA	0.0000	FZFG	0450	0	0	0	200
2019/11/30 06:23:01	BASE	3.78	342	4.48	340	-1.7	100	-1.7	4	0	992.8	NA	0.0000	FZFG	0500	0	0	0	200
2019/11/30 06:24:01	BASE	3.39	333	4.48	340	-1.6	100	-1.6	4	0	992.8	NA	0.0000	FZFG	0500	0	0	0	160
2019/11/30 06:25:01	BASE	3.51	323	4.48	315	-1.6	100	-1.6	4	0	992.8	NA	0.0000	FZFG	0400	0	0	0	160
2019/11/30 06:26:01	BASE	3.71	321	4.48	315	-1.7	100	-1.7	4	0	992.8	NA	0.0000	FZFG	0400	0	0	0	160
2019/11/30 06:27:01	BASE	3.47	326	4.48	315	-1.7	100	-1.7	4	0	992.8	NA	0.0000	FZFG	0400	0	0	0	200
2019/11/30 06:28:01	BASE	3.28	332	4.48	315	-1.7	100	-1.7	5	0	992.8	NA	0.0000	FZFG	0400	0	0	0	200
2019/11/30 06:29:01	BASE	3.32	338	4.48	315	-1.7	100	-1.7	5	0	992.8	NA	0.0000	FZFG	0400	0	0	0	160
2019/11/30 06:30:01	BASE	3.54	344	4.48	315	-1.7	100	-1.7	5	0	992.8	NA	0.0000	FZFG	0400	0	0	0	160
2019/11/30 06:31:01	BASE	3.59	342	4.48	315	-1.7	100	-1.7	5	0	992.8	NA	0.0000	FZFG	0500	0	0	0	200
2019/11/30 06:32:01	BASE	3.30	331	4.48	315	-1.7	100	-1.7	5	0	992.8	NA	0.0000	FZFG	0500	0	0	0	200
2019/11/30 06:33:01	BASE	3.25	318	4.48	315	-1.6	100	-1.6	6	0	992.8	NA	0.0000	FZFG	0450	0	0	0	160
2019/11/30 06:34:01	BASE	3.24	320	4.48	315	-1.6	100	-1.6	6	0	992.8	NA	0.0000	FZFG	0400	0	0	0	160
2019/11/30 06:35:01	BASE	3.13	333	3.91	321	-1.6	100	-1.6	7	0	992.8	NA	0.0000	FZFG	0350	0	0	0	160
2019/11/30 06:36:01	BASE	3.12	339	3.86	343	-1.5	100	-1.5	7	0	992.8	NA	0.0000	FZFG	0400	0	0	0	160
2019/11/30 06:37:01	BASE	3.01	336	3.86	343	-1.5	100	-1.5	7	0	992.8	NA	0.0000	FZFG	0450	0	0	0	160
2019/11/30 06:38:00	BASE	3.12	329	4.12	310	-1.5	100	-1.5	7	0	992.8	NA	0.0000	FZFG	0450	0	0	0	160
2019/11/30 06:39:00	BASE	3.55	314	4.12	307	-1.5	100	-1.5	8	0	992.7	NA	0.0000	FZFG	0400	0	0	0	200
2019/11/30 06:40:00	BASE	3.73	308	4.12	312	-1.6	100	-1.6	8	0	992.7	NA	0.0000	FZFG	0400	0	0	0	200
2019/11/30 06:41:00	BASE	3.49	308	4.12	312	-1.6	100	-1.6	9	0	992.7	NA	0.0000	FZFG	0450	0	0	0	200
2019/11/30 06:42:00	BASE	3.30	311	4.12	312	-1.7	100	-1.7	10	0	992.7	NA	0.0000	FZFG	0450	0	0	0	200
2019/11/30 06:43:00	BASE	3.27	313	4.12	312	-1.8	100	-1.8	10	0	992.8	NA	0.0000	FZFG	0450	0	0	0	200
2019/11/30 06:44:00	BASE	3.39	310	4.12	312	-1.8	100	-1.8	10	0	992.8	NA	0.0000	FZFG	0400	0	0	0	160
2019/11/30 06:45:00	BASE	3.57	305	4.12	312	-1.9	100	-1.9	9	0	992.8	NA	0.0000	FZFG	0400	0	0	0	200
2019/11/30 06:46:00	BASE	3.53	303	4.12	312	-1.9	100	-1.9	10	0	992.8	NA	0.0000	FZFG	0450	0	0	0	200
2019/11/30 06:47:00	BASE	3.40	303	4.12	312	-1.9	100	-1.9	10	0	992.8	NA	0.0000	FZFG	0450	0	0	0	160
2019/11/30 06:48:00	BASE	3.19	305	4.12	312	-1.9	100	-1.9	10	0	992.8	NA	0.0000	FZFG	0450	0	0	0	200
2019/11/30 06:49:00	BASE	3.04	307	4.12	312	-1.9	100	-1.9	10	0	992.8	NA	0.0000	FZFG	0450	0	0	0	200
2019/11/30 06:50:00	BASE	3.41	308	4.37	319	-1.9	100	-1.9	10	0	992.8	NA	0.0000	FZFG	0400	0	0	0	160
2019/11/30 06:51:00	BASE	3.81	313	4.48	320	-1.9	100	-1.9	10	0	992.8	NA	0.0000	FZFG	0400	0	0	0	200
2019/11/30 06:52:01	BASE	3.91	315	4.48	320	-2.0	100	-2.0	11	0	992.8	NA	0.0000	FZFG	0400	0	0	0	200
2019/11/30 06:53:00	BASE	3.78	315	4.48	320	-2.0	100	-2.0	11	0	992.8	NA	0.0000	FZFG	0400	0	0	0	200
2019/11/30 06:54:00	BASE	3.58	313	4.48	320	-2.1	100	-2.1	11	0	992.8	NA	0.0000	FZFG	0400	0	0	0	200
2019/11/30 06:55:00	BASE	3.54	311	4.48	320	-2.1	100	-2.1	12	0	992.8	NA	0.0000	FZFG	0400	0	0	0	200
2019/11/30 06:56:00	BASE	3.76	312	4.68	308	-2.2	100	-2.2	12	0	992.7	NA	0.0000	FZFG	0400	0	0	0	200
2019/11/30 06:57:00	BASE	3.85	314	4.68	308	-2.2	100	-2.2	11	0	992.8	NA	0.0000	FZFG	0400	0	0	0	160
2019/11/30 06:58:00	BASE	3.58	316	4.68	308	-2.2	100	-2.2	12	0	992.8	NA	0.0000	FZFG	0400	0	0	0	200
2019/11/30 06:59:00	BASE	3.44	316	4.68	308	-2.2	100	-2.2	11	0	992.8	NA	0.0000	FZFG	0400	0	0	0	160
2019/11/30 07:00:00	BASE	3.73	314	4.68	308	-2.2	100	-2.2	11	0	992.8	NA	0.0000	FZFG	0350	0	0	0	200
2019/11/30 07:01:00	BASE	3.97	312	4.68	308	-2.2	100	-2.2	12	0	992.8	NA	0.0000	FZFG	0400	0	0	0	230
2019/11/30 07:02:00	BASE	3.81	313	4.68	308	-2.2	100	-2.2	13	0	992.8	NA	0.0000	FZFG	0450	0	0	0	200
2019/11/30 07:03:00	BASE	3.81	312	4.68	308	-2.2	100	-2.2	13	0	992.8	NA	0.0000	FZFG	0450	0	0	0	200
2019/11/30 07:04:00	BASE	3.73	309	4.68	308	-2.3	100	-2.3	15	0	992.8	NA	0.0000	FZFG	0450	0	0	0	200
2019/11/30 07:05:00	BASE	3.46	309	4.68	308	-2.3	100	-2.3	16	0	992.8	NA	0.0000	FZFG	0550	0	0	0	200
2019/11/30 07:06:00	BASE	3.45	307	4.58	312	-2.3	100	-2.3	15	0	992.8	NA	0.0000	FZFG	0500	0	0	0	200
2019/11/30 07:07:00	BASE	3.28	306	4.58	312	-2.3	100	-2.3	14	0	992.8	NA	0.0000	FZFG	0500	0	0	0	200
2019/11/30 07:08:01	BASE	3.35	308	4.58	312	-2.3	100	-2.3	13	0	992.8	NA	0.0000	FZFG	0450	0	0	0	200
2019/11/30 07:09:00	BASE	3.48	309	4.58	312	-2.3	100	-2.3	13	0	992.8	NA	0.0000	FZFG	0500	0	0	0	160
2019/11/30 07:10:00	BASE	3.32	309	4.27	310	-2.3	100	-2.3	12	0	992.7	NA	0.0000	FZFG	0500	0	0	0	200
2019/11/30 07:11:00	BASE	3.34	310	4.27	310	-2.4	100	-2.4	13	0	992.7	NA	0.0000	FZFG	0500	0	0	0	200
2019/11/30 07:12:00	BASE	3.58	315	4.12	326	-2.3	100	-2.3	13	0	992.7	NA	0.0000	FZFG	0500	0	0	0	200
2019/11/30 07:13:00	BASE	3.76	319	4.12	326	-2.3	100	-2.3	13	0	992.7	NA	0.0000	FZFG	0400	0	0	0	200
2019/11/30 07:14:01	BASE	3.67	316	4.12	326	-2.3	100	-2.3	15	0	992.7	NA	0.0000	FZFG	0350	0	0	0	200
2019/11/30 07:15:00	BASE	4.05	315	4.68	316	-2.3	100	-2.3	15	0	992.7	NA	0.0000	FZFG	0350	0	0	0	160
2019/11/30 07:16:00	BASE	4.04	317	4.68	316	-2.3	100	-2.3	18	0	992.7	NA	0.0000	FZFG	0350	0	0	0	200
2019/11/30 07:17:00	BASE	3.48	320	4.68	316	-2.4	100	-2.4	20	0	992.7	NA	0.0000	FZFG	0450	0	0	0	200
2019/11/30 07:18:00	BASE	3.57	322	4.68	316	-2.4	100	-2.4	21	0	992.6	NA	0.0000	FZFG	0400	0	0	0	200
2019/11/30 07:19:00	BASE	3.99	322	4.68	316	-2.4	100	-2.4	22	0	992.6	NA	0.0000	FZFG	0400	0	0	0	200
2019/11/30 07:20:00	BASE	4.15	324	4.68	316	-2.4	100	-2.4	22	0	992.6	NA	0.0000	FZFG	0500	0	0	0	200
2019/11/30 07:21:00	BASE	4.08	324	4.68	316	-2.4	100	-2.4	21	0	992.6	NA	0.0000	FZFG	0450	0	0	0	200
2019/11/30 07:22:00	BASE	4.24	320	4.73	314	-2.4	100	-2.4	24	0	992.6	NA	0.0000	FZFG	0400	0	0	0	200
2019/11/30 07:23:00	BASE	4.28	321	4.73	314	-2.4	100	-2.4	27	0	992.6	NA	0.0000	FZFG	0400	0	0	0	200
2019/11/30 07:24:00	BASE	3.95	321	4.73	314	-2.4	100	-2.4	27	0	992.6	NA	0.0000	FZFG	0400	0	0	0	200
2019/11/30 07:25:00	BASE	3.89	320	4.73	314	-2.4	100	-2.4	24	0	992.6	NA	0.0000	FZFG	0400	0	0	0	200
2019/11/30 07:26:00	BASE	4.04	320	4.73	314	-2.4	100	-2.4	25	0	992.6	NA	0.0000	FZFG	0400	0	0	0	200
2019/11/30 07:27:00	BASE	3.97	315	4.73	314	-2.5	100	-2.5	26	0	992.6	NA	0.0000	FZFG	0400	0	0	0	200
2019/11/30 07:28:00	BASE	3.93	314	4.73	314	-2.5	100	-2.5	25	0	992.6	NA	0.0000	FZFG	0450	0	0	0	230
2019/11/30 07:29:00	BASE	4.00	314	4.73	314	-2.5	100	-2.5	28	0	992.7	NA	0.0000	FZFG	0450	0	0	0	230
2019/11/30 07:30:00	BASE	3.80	311	4.73	314	-2.5	100	-2.5	29	0	992.7	NA	0.0000	FZFG	0500	0	0	0	200
2019/11/30 07:31:00	BASE	3.71	311	4.73	314	-2.5	100	-2.5	30	0	992.7	NA	0.0000	FZFG	0450	0	0	0	230
2019/11/30 07:32:00	BASE	3.79	316	4.48	322	-2.5	100	-2.5	28	0	992.7	NA	0.0000	FZFG	0500	0	0	0	200
2019/11/30 07:33:00	BASE	3.58	316	4.37	305	-2.4	100	-2.4	30	0	992.7	NA	0.0000	FZFG	0400	0	0	0	200
2019/11/30 07:34:00	BASE	3.57	316	4.37	305	-2.4	100	-2.4	30	0	992.6	NA	0.0000	FZFG	0400	0	0	0	200
2019/11/30 07:35:00	BASE	3.74	319	4.37	305	-2.4	100	-2.4	30	0	992.6	NA	0.0000	FZFG	0450	0	0	0	230
2019/11/30 07:36:00	BASE	3.68	314	4.37	305	-2.4	100	-2.4	30	0	992.6	NA	0.0000	FZFG	0400	0	0	0	200
2019/11/30 07:37:00	BASE	3.67	314	4.37	305	-2.4	100	-2.4	30	0	992.6	NA	0.0000	FZFG	0400	0	0	0	230
2019/11/30 07:38:00	BASE	3.60	320	4.37	305	-2.5	100	-2.5	31	0	992.6	NA	0.0000	FZFG	0400	0	0	0	230
2019/11/30 07:39:00	BASE	3.63	320	4.22	313	-2.5	100	-2.5	29	0	992.6	NA	0.0000	FZFG	0400	0	0	0	200
2019/11/30 07:40:00	BASE	3.73	316	4.22	313	-2.5	100	-2.5	31	0	992.6	NA	0.0000	FZFG	0350	0	0	0	200
2019/11/30 07:41:00	BASE	3.56	313	4.12	321	-2.6	100	-2.6	37	0	992.6	NA	0.0000	FZFG	0450	0	0	0	200
2019/11/30 07:42:00	BASE	3.63	310	4.17	315	-2.6	100	-2.6	37	0	992.6	NA	0.0000	FZFG	0450	0	0	0	160
2019/11/30 07:43:00	BASE	3.86	310	4.22	312	-2.5	100	-2.5	44	0	992.6	NA	0.0000	FZFG	0500	0	0	0	200
2019/11/30 07:44:00	BASE	3.78	316	4.22	312	-2.5	100	-2.5	45	0	992.6	NA	0.0000	FZFG	0500	0	0	0	230
2019/11/30 07:45:00	BASE	3.51	322	4.22	312	-2.6	100	-2.6	41	0	992.6	NA	0.0000	FZFG	0400	0	0	0	230
2019/11/30 07:46:00	BASE	3.49	322	4.22	312	-2.6	100	-2.6	43	0	992.6	NA	0.0000	FZFG	0400	0	0	0	200
2019/11/30 07:47:00	BASE	3.65	316	4.22	312	-2.6	100	-2.6	42	0	992.6	NA	0.0000	FZFG	0500	0	0	0	230
2019/11/30 07:48:00	BASE	3.56	308	4.22	312	-2.6	100	-2.6	41	0	992.6	NA	0.0000	FZFG	0500	0	0	0	200
2019/11/30 07:49:00	BASE	3.24	306	4.22	312	-2.6	100	-2.6	38	0	992.6	NA	0.0000	FZFG	0500	0	0	0	200
2019/11/30 07:50:00	BASE	3.04	309	4.22	312	-2.6	100	-2.6	39	0	992.6	NA	0.0000	FZFG	0450	0	0	0	230
2019/11/30 07:51:00	BASE	3.02	308	4.22	312	-2.6	100	-2.6	42	0	992.6	NA	0.0000	FZFG	0450	0	0	0	230
2019/11/30 07:52:00	BASE	3.19	304	4.22	312	-2.5	100	-2.5	43	0	992.6	NA	0.0000	FZFG	0450	0	0	0	230
2019/11/30 07:53:00	BASE	3.47	306	4.12	316	-2.5	100	-2.5	45	0	992.6	NA	0.0000	FZFG	0450	0	0	0	200
2019/11/30 07:54:00	BASE	3.65	309	4.01	308	-2.5	100	-2.5	47	0	992.6	NA	0.0000	FZFG	0450	0	0	0	260
2019/11/30 07:55:00	BASE	3.54	313	4.01	308	-2.5	100	-2.5	49	0	992.6	NA	0.0000	FZFG	0500	0	0	0	230
2019/11/30 07:56:01	BASE	3.46	319	4.01	308	-2.5	100	-2.5	49	0	992.6	NA	0.0000	FZFG	0400	0	0	0	230
2019/11/30 07:57:01	BASE	3.63	322	4.01	308	-2.6	100	-2.6	45	0	992.6	NA	0.0000	FZFG	0450	0	0	0	230
2019/11/30 07:58:00	BASE	3.63	323	4.01	308	-2.6	100	-2.6	45	0	992.6	NA	0.0000	FZFG	0450	0	0	0	230
2019/11/30 07:59:00	BASE	3.48	330	4.01	308	-2.6	100	-2.6	50	0	992.6	NA	0.0000	FZFG	0450	0	0	0	260
2019/11/30 08:00:00	BASE	3.52	332	4.01	308	-2.6	100	-2.6	50	0	992.6	NA	0.0000	FZFG	0450	0	0	0	230
2019/11/30 08:01:00	BASE	3.76	327	4.01	323	-2.6	100	-2.6	52	0	992.6	NA	0.0000	FZFG	0450	0	0	0	230
2019/11/30 08:02:00	BASE	3.65	327	4.01	323	-2.6	100	-2.6	54	0	992.6	NA	0.0000	FZFG	0450	0	0	0	230
2019/11/30 08:03:00	BASE	3.44	323	4.01	323	-2.6	100	-2.6	54	0	992.6	NA	0.0000	FZFG	0400	0	0	0	200
2019/11/30 08:04:00	BASE	3.24	315	4.01	323	-2.6	100	-2.6	51	0	992.6	NA	0.0000	FZFG	0450	0	0	0	200
2019/11/30 08:05:00	BASE	3.32	318	4.01	323	-2.6	100	-2.6	55	0	992.6	NA	0.0000	FZFG	0450	0	0	0	200
2019/11/30 08:06:01	BASE	3.40	324	4.01	323	-2.7	100	-2.7	58	0	992.6	NA	0.0000	FZFG	0450	0	0	0	230
2019/11/30 08:07:01	BASE	3.03	319	4.01	323	-2.7	100	-2.7	59	0	992.5	NA	0.0000	FZFG	0500	0	0	0	230
2019/11/30 08:08:00	BASE	3.07	321	4.01	323	-2.7	100	-2.7	63	0	992.4	NA	0.0000	FZFG	0500	0	0	0	230
2019/11/30 08:09:00	BASE	3.20	327	4.01	323	-2.7	100	-2.7	64	0	992.4	NA	0.0000	FZFG	0500	0	0	0	260
2019/11/30 08:10:00	BASE	2.96	328	4.01	323	-2.7	100	-2.7	65	0	992.4	NA	0.0000	FZFG	0550	0	0	0	230
2019/11/30 08:11:00	BASE	3.20	327	3.91	330	-2.7	100	-2.7	62	0	992.4	NA	0.0000	FZFG	0500	0	0	0	230
2019/11/30 08:12:00	BASE	3.71	326	4.12	326	-2.7	100	-2.7	61	0	992.4	NA	0.0000	FZFG	0450	0	0	0	230
2019/11/30 08:13:00	BASE	3.55	323	4.12	326	-2.7	100	-2.7	60	0	992.4	NA	0.0000	FZFG	0500	0	0	0	230
2019/11/30 08:14:01	BASE	3.09	324	4.12	326	-2.7	100	-2.7	62	0	992.4	NA	0.0000	FZFG	0450	0	0	0	200
2019/11/30 08:15:01	BASE	3.02	319	4.12	326	-2.6	100	-2.6	55	0	992.4	NA	0.0000	FZFG	0400	0	0	0	200
2019/11/30 08:16:01	BASE	3.29	308	4.12	326	-2.6	100	-2.6	50	0	992.4	NA	0.0000	FZFG	0400	0	0	0	200
2019/11/30 08:17:01	BASE	3.35	310	4.12	326	-2.6	100	-2.6	47	0	992.4	NA	0.0000	FZFG	0400	0	0	0	200
2019/11/30 08:18:01	BASE	3.33	313	4.12	326	-2.7	100	-2.7	48	0	992.4	NA	0.0000	FZFG	0400	0	0	0	200
2019/11/30 08:19:00	BASE	3.57	308	4.12	326	-2.6	100	-2.6	46	0	992.4	NA	0.0000	FZFG	0400	0	0	0	200
2019/11/30 08:20:00	BASE	3.62	306	4.12	326	-2.7	100	-2.7	49	0	992.4	NA	0.0000	FZFG	0500	0	0	0	230
2019/11/30 08:21:01	BASE	3.32	305	4.12	326	-2.7	100	-2.7	52	0	992.4	NA	0.0000	FZFG	0550	0	0	0	230
2019/11/30 08:22:01	BASE	3.04	307	4.06	307	-2.7	100	-2.7	61	0	992.4	NA	0.0000	FZFG	0500	0	0	0	230
2019/11/30 08:23:00	BASE	2.91	317	4.06	307	-2.7	100	-2.7	65	0	992.4	NA	0.0000	FZFG	0500	0	0	0	200
2019/11/30 08:24:00	BASE	2.93	327	4.06	307	-2.7	100	-2.7	60	0	992.4	NA	0.0000	FZFG	0450	0	0	0	200
2019/11/30 08:25:00	BASE	3.00	329	4.06	307	-2.6	100	-2.6	54	0	992.4	NA	0.0000	FZFG	0450	0	0	0	200
2019/11/30 08:26:00	BASE	3.27	325	4.06	322	-2.6	100	-2.6	52	0	992.4	NA	0.0000	FZFG	0500	0	0	0	200
2019/11/30 08:27:00	BASE	3.67	320	4.22	320	-2.6	100	-2.6	57	0	992.4	NA	0.0000	FZFG	0500	0	0	0	200
2019/11/30 08:28:00	BASE	3.67	315	4.22	320	-2.6	100	-2.6	55	0	992.4	NA	0.0000	FZFG	0450	0	0	0	200
2019/11/30 08:29:00	BASE	3.62	317	4.22	320	-2.6	100	-2.6	53	0	992.4	NA	0.0000	FZFG	0450	0	0	0	200
2019/11/30 08:30:00	BASE	3.55	323	4.22	320	-2.6	100	-2.6	59	0	992.4	NA	0.0000	FZFG	0400	0	0	0	200
2019/11/30 08:31:00	BASE	3.29	323	4.22	320	-2.6	100	-2.6	64	0	992.4	NA	0.0000	FZFG	0500	21690	0	0	0
2019/11/30 08:32:00	BASE	3.34	322	4.22	320	-2.7	100	-2.7	63	0	992.4	NA	0.0000	FZFG	0450	0	0	0	200
2019/11/30 08:33:00	BASE	3.62	320	4.22	318	-2.7	100	-2.7	63	0	992.4	NA	0.0000	FZFG	0500	0	0	0	200
2019/11/30 08:34:00	BASE	3.81	324	4.22	331	-2.7	100	-2.7	68	0	992.4	NA	0.0000	FZFG	0450	0	0	0	260
2019/11/30 08:35:00	BASE	3.76	334	4.22	331	-2.7	100	-2.7	74	0	992.4	NA	0.0000	FZFG	0500	0	0	0	230
2019/11/30 08:36:00	BASE	3.56	338	4.22	331	-2.7	100	-2.7	73	0	992.4	NA	0.0000	FZFG	0550	0	0	0	230
2019/11/30 08:37:00	BASE	3.35	337	4.22	331	-2.7	100	-2.7	72	0	992.4	NA	0.0000	FZFG	0700	0	0	0	230
2019/11/30 08:38:00	BASE	3.33	325	4.22	331	-2.7	100	-2.7	71	0	992.4	NA	0.0000	FZFG	0550	0	0	0	160
2019/11/30 08:39:00	BASE	3.59	313	4.22	331	-2.7	100	-2.7	70	0	992.4	NA	0.0000	FZFG	0400	0	0	0	200
2019/11/30 08:40:00	BASE	3.46	312	4.22	331	-2.7	100	-2.7	76	0	992.4	NA	0.0000	FZFG	0450	0	0	0	230
2019/11/30 08:41:00	BASE	2.97	312	4.22	331	-2.8	100	-2.8	78	0	992.4	NA	0.0000	FZFG	0450	0	0	0	200
2019/11/30 08:42:00	BASE	2.74	315	4.22	331	-2.8	100	-2.8	79	0	992.4	NA	0.0000	FZFG	0400	0	0	0	200
2019/11/30 08:43:00	BASE	2.75	316	4.22	331	-2.8	100	-2.8	87	0	992.4	NA	0.0000	FZFG	0450	0	0	0	200
2019/11/30 08:44:00	BASE	2.72	316	4.01	347	-2.8	100	-2.8	86	0	992.4	NA	0.0000	FZFG	0500	0	0	0	200
2019/11/30 08:45:00	BASE	2.78	315	3.96	318	-2.8	100	-2.8	84	0	992.4	NA	0.0000	FZFG	0450	0	0	0	200
2019/11/30 08:46:00	BASE	3.09	313	3.96	318	-2.8	100	-2.8	87	0	992.4	NA	0.0000	FZFG	0450	0	0	0	230
2019/11/30 08:47:00	BASE	3.27	312	3.96	318	-2.8	100	-2.8	91	0	992.4	NA	0.0000	FZFG	0500	0	0	0	200
2019/11/30 08:48:00	BASE	3.42	312	4.12	312	-2.8	100	-2.8	87	0	992.4	NA	0.0000	FZFG	0450	0	0	0	230
2019/11/30 08:49:00	BASE	3.69	313	4.12	312	-2.8	100	-2.8	86	0	992.4	NA	0.0000	FZFG	0450	0	0	0	200
2019/11/30 08:50:00	BASE	3.66	312	4.12	312	-2.7	100	-2.7	85	0	992.4	NA	0.0000	FZFG	0550	0	0	0	230
2019/11/30 08:51:00	BASE	3.44	312	4.12	312	-2.7	100	-2.7	84	0	992.3	NA	0.0000	FZFG	0550	0	0	0	230
2019/11/30 08:52:00	BASE	3.40	315	4.12	312	-2.7	100	-2.7	80	0	992.3	NA	0.0000	FZFG	0450	0	0	0	230
2019/11/30 08:53:00	BASE	3.67	316	4.12	316	-2.8	100	-2.8	79	0	992.3	NA	0.0000	FZFG	0450	0	0	0	230
2019/11/30 08:54:00	BASE	3.83	314	4.12	316	-2.8	100	-2.8	76	0	992.3	NA	0.0000	FZFG	0450	0	0	0	200
2019/11/30 08:55:00	BASE	3.86	312	4.32	314	-2.8	100	-2.8	74	0	992.3	NA	0.0000	FZFG	0500	0	0	0	230
2019/11/30 08:56:00	BASE	3.96	310	4.32	314	-2.8	100	-2.8	73	0	992.3	NA	0.0000	FZFG	0550	0	0	0	230
2019/11/30 08:57:00	BASE	3.87	313	4.32	313	-2.8	100	-2.8	71	0	992.3	NA	0.0000	FZFG	0550	0	0	0	230
2019/11/30 08:58:00	BASE	3.58	317	4.32	313	-2.8	100	-2.8	69	0	992.3	NA	0.0000	FZFG	0450	0	0	0	230
2019/11/30 08:59:00	BASE	3.10	318	4.32	313	-2.8	100	-2.8	74	0	992.3	NA	0.0000	FZFG	0450	0	0	0	230
2019/11/30 09:00:01	BASE	3.15	324	4.32	313	-2.8	100	-2.8	76	0	992.3	NA	0.0000	FZFG	0450	0	0	0	200
2019/11/30 09:01:01	BASE	3.77	329	4.37	329	-2.8	100	-2.8	75	0	992.3	NA	0.0000	FZFG	0550	0	0	0	200
2019/11/30 09:02:01	BASE	3.96	331	4.37	329	-2.8	100	-2.8	73	0	992.3	NA	0.0000	FZFG	0550	0	0	0	230
2019/11/30 09:03:01	BASE	3.89	329	4.53	326	-2.7	100	-2.7	72	0	992.3	NA	0.0000	FZFG	0550	0	0	0	200
2019/11/30 09:04:01	BASE	3.72	320	4.53	326	-2.7	100	-2.7	70	0	992.3	NA	0.0000	FZFG	0500	0	0	0	200
2019/11/30 09:05:01	BASE	3.32	312	4.53	326	-2.6	100	-2.6	70	0	992.3	NA	0.0000	FZFG	0500	0	0	0	230
2019/11/30 09:06:01	BASE	3.05	314	4.53	326	-2.6	100	-2.6	68	0	992.3	NA	0.0000	FZFG	0550	0	0	0	200
2019/11/30 09:07:00	BASE	3.14	318	4.53	326	-2.6	100	-2.6	68	0	992.3	NA	0.0000	FZFG	0550	0	0	0	200
2019/11/30 09:08:00	BASE	3.33	320	4.53	326	-2.6	100	-2.6	69	0	992.3	NA	0.0000	FZFG	0450	0	0	0	200
2019/11/30 09:09:00	BASE	3.31	321	4.53	326	-2.6	100	-2.6	75	0	992.3	NA	0.0000	FZFG	0500	0	0	0	230
2019/11/30 09:10:00	BASE	3.57	317	4.53	326	-2.6	100	-2.6	77	0	992.3	NA	0.0000	FZFG	0550	0	0	0	230
2019/11/30 09:11:00	BASE	3.85	315	4.53	326	-2.7	100	-2.7	82	0	992.3	NA	0.0000	FZFG	0450	0	0	0	230
2019/11/30 09:12:01	BASE	3.68	315	4.53	326	-2.8	100	-2.8	78	0	992.3	NA	0.0000	FZFG	0500	0	0	0	230
2019/11/30 09:13:01	BASE	3.54	319	4.32	322	-2.8	100	-2.8	76	0	992.3	NA	0.0000	FZFG	0550	0	0	0	300
2019/11/30 09:14:00	BASE	3.51	325	4.32	322	-2.9	100	-2.9	81	0	992.3	NA	0.0000	FZFG	0450	0	0	0	230
2019/11/30 09:15:00	BASE	3.49	327	4.32	322	-2.9	100	-2.9	82	0	992.3	NA	0.0000	FZFG	0500	0	0	0	230
2019/11/30 09:16:00	BASE	3.58	327	4.32	322	-2.9	100	-2.9	87	0	992.3	NA	0.0000	FZFG	0500	0	0	0	230
2019/11/30 09:17:00	BASE	3.57	327	4.32	322	-2.8	100	-2.8	86	0	992.3	NA	0.0000	FZFG	0500	0	0	0	230
2019/11/30 09:18:00	BASE	3.19	329	4.32	322	-2.8	100	-2.8	84	0	992.3	NA	0.0000	FZFG	0500	0	0	0	230
2019/11/30 09:19:00	BASE	3.06	335	4.32	322	-2.8	100	-2.8	87	0	992.3	NA	0.0000	FZFG	0450	0	0	0	230
2019/11/30 09:20:00	BASE	3.42	338	4.32	322	-2.8	100	-2.8	84	0	992.3	NA	0.0000	FZFG	0550	0	0	0	230
2019/11/30 09:21:00	BASE	3.62	328	4.32	322	-2.7	100	-2.7	77	0	992.3	NA	0.0000	FZFG	0650	0	0	0	200
2019/11/30 09:22:00	BASE	3.86	317	4.42	312	-2.7	100	-2.7	76	0	992.4	NA	0.0000	FZFG	0600	20010	0	0	0
2019/11/30 09:23:00	BASE	4.19	313	4.48	312	-2.7	100	-2.7	80	0	992.3	NA	0.0000	FZFG	0550	0	0	0	260
2019/11/30 09:24:00	BASE	4.05	312	4.48	312	-2.7	100	-2.7	84	0	992.4	NA	0.0000	FZFG	0500	0	0	0	260
2019/11/30 09:25:00	BASE	3.46	312	4.48	312	-2.8	100	-2.8	89	0	992.4	NA	0.0000	FZFG	0550	0	0	0	260
2019/11/30 09:26:00	BASE	3.10	317	4.48	312	-2.8	100	-2.8	96	0	992.4	NA	0.0000	FZFG	0600	0	0	0	230
2019/11/30 09:27:00	BASE	3.30	319	4.48	312	-2.8	100	-2.8	88	0	992.4	NA	0.0000	FZFG	0550	0	0	0	230
2019/11/30 09:28:00	BASE	3.88	314	4.58	310	-2.8	100	-2.8	89	0	992.4	NA	0.0000	FZFG	0550	0	0	0	230
2019/11/30 09:29:00	BASE	4.06	312	4.58	309	-2.8	100	-2.8	86	0	992.4	NA	0.0000	FZFG	0550	0	0	0	230
2019/11/30 09:30:00	BASE	3.96	315	4.58	319	-2.7	100	-2.7	83	0	992.4	NA	0.0000	FZFG	0600	0	0	0	230
2019/11/30 09:31:00	BASE	4.07	318	4.58	321	-2.7	100	-2.7	86	0	992.4	NA	0.0000	FZFG	0500	0	0	0	300
2019/11/30 09:32:00	BASE	4.16	321	4.58	321	-2.7	100	-2.7	89	0	992.3	NA	0.0000	FZFG	0550	0	0	0	260
2019/11/30 09:33:00	BASE	4.12	326	4.58	321	-2.7	100	-2.7	88	0	992.4	NA	0.0000	FZFG	0600	0	0	0	260
2019/11/30 09:34:00	BASE	4.10	332	4.58	321	-2.7	100	-2.7	87	0	992.3	NA	0.0000	FZFG	0650	0	0	0	230
2019/11/30 09:35:00	BASE	4.01	337	4.58	321	-2.7	100	-2.7	88	0	992.4	NA	0.0000	FZFG	0650	0	0	0	230
2019/11/30 09:36:00	BASE	3.75	337	4.58	321	-2.7	100	-2.7	88	0	992.4	NA	0.0000	FZFG	0550	0	0	0	230
2019/11/30 09:37:00	BASE	3.94	334	4.58	321	-2.7	100	-2.7	89	0	992.3	NA	0.0000	FZFG	0600	0	0	0	230
2019/11/30 09:38:00	BASE	4.19	330	4.58	321	-2.7	100	-2.7	89	0	992.3	NA	0.0000	FZFG	0600	0	0	0	230
2019/11/30 09:39:00	BASE	4.16	326	4.58	321	-2.6	100	-2.6	91	0	992.3	NA	0.0000	FZFG	0650	0	0	0	300
2019/11/30 09:40:00	BASE	3.87	328	4.58	321	-2.6	100	-2.6	102	0	992.3	NA	0.0000	FZFG	0800	0	0	0	300
2019/11/30 09:41:01	BASE	3.88	334	4.58	337	-2.6	100	-2.6	99	0	992.3	NA	0.0000	FZFG	0800	0	0	0	260
2019/11/30 09:42:01	BASE	4.14	337	4.58	337	-2.6	100	-2.6	99	0	992.3	NA	0.0000	FZFG	0700	0	0	0	260
2019/11/30 09:43:01	BASE	4.03	338	4.58	337	-2.6	100	-2.6	95	0	992.3	NA	0.0000	FZFG	0800	0	0	0	260
2019/11/30 09:44:01	BASE	3.84	336	4.58	337	-2.6	100	-2.6	95	0	992.3	NA	0.0000	FZFG	0800	0	0	0	230
2019/11/30 09:45:01	BASE	3.71	327	4.58	337	-2.6	100	-2.6	93	0	992.3	NA	0.0000	FZFG	0700	21790	0	0	0
2019/11/30 09:46:01	BASE	3.57	310	4.58	337	-2.6	100	-2.6	95	0	992.3	NA	0.0000	FZFG	0600	0	0	0	260
2019/11/30 09:47:00	BASE	3.44	303	4.58	337	-2.5	100	-2.5	95	0	992.3	NA	0.0000	FZFG	0800	0	0	0	260
2019/11/30 09:48:00	BASE	3.57	305	4.58	337	-2.5	100	-2.5	96	0	992.3	NA	0.0000	FZFG	0600	0	0	0	230
2019/11/30 09:49:00	BASE	3.99	309	4.99	326	-2.5	100	-2.5	92	0	992.3	NA	0.0000	FZFG	0550	0	0	0	230
2019/11/30 09:50:00	BASE	4.38	319	4.99	321	-2.5	100	-2.5	92	0	992.2	NA	0.0000	FZFG	0500	0	0	0	260
2019/11/30 09:51:00	BASE	4.56	322	4.99	321	-2.5	100	-2.5	96	0	992.2	NA	0.0000	FZFG	0550	0	0	0	300
2019/11/30 09:52:00	BASE	4.26	316	4.99	321	-2.5	100	-2.5	102	0	992.2	NA	0.0000	FZFG	0700	0	0	0	300
2019/11/30 09:53:00	BASE	3.72	317	4.99	321	-2.6	100	-2.6	106	0	992.3	NA	0.0000	FZFG	0750	0	0	0	300
2019/11/30 09:54:00	BASE	3.89	329	4.99	321	-2.6	100	-2.6	107	0	992.2	NA	0.0000	FZFG	0700	0	0	0	300
2019/11/30 09:55:00	BASE	4.35	334	4.99	321	-2.6	100	-2.6	117	0	992.2	NA	0.0000	FZFG	0800	0	0	0	330
2019/11/30 09:56:00	BASE	4.29	334	4.99	321	-2.6	100	-2.6	113	0	992.2	NA	0.0000	FZFG	0900	0	0	0	430
2019/11/30 09:57:00	BASE	3.73	338	4.99	321	-2.7	100	-2.7	124	0	992.2	NA	0.0000	FZFG	1200	0	0	0	330
2019/11/30 09:58:00	BASE	3.11	342	4.99	321	-2.7	100	-2.7	125	0	992.2	NA	0.0000	FZFG	1000	0	0	0	460
2019/11/30 09:59:00	BASE	3.22	342	4.99	321	-2.7	100	-2.7	128	0	992.2	NA	0.0000	FZFG	1200	0	0	0	360
2019/11/30 10:00:00	BASE	3.69	340	4.89	318	-2.7	100	-2.7	127	0	992.2	NA	0.0000	BR	1400	0	0	0	390
2019/11/30 10:01:00	BASE	3.82	343	4.73	336	-2.7	100	-2.7	126	0	992.2	NA	0.0000	BR	1800	0	0	0	300
2019/11/30 10:02:00	BASE	3.86	344	4.73	336	-2.6	100	-2.6	131	0	992.2	NA	0.0000	BR	2000	0	0	0	330
2019/11/30 10:03:00	BASE	3.79	346	4.73	336	-2.5	100	-2.5	128	0	992.2	NA	0.0000	BR	1500	0	0	0	330
2019/11/30 10:04:00	BASE	3.86	344	4.73	336	-2.5	100	-2.5	127	0	992.2	NA	0.0000	BR	1800	0	0	0	390
2019/11/30 10:05:00	BASE	4.10	343	4.73	336	-2.5	100	-2.5	130	0	992.2	NA	0.0000	BR	2300	0	0	0	360
2019/11/30 10:06:00	BASE	4.01	347	4.37	337	-2.5	100	-2.5	141	0	992.2	NA	0.0000	BR	2800	0	0	0	360
2019/11/30 10:07:00	BASE	3.83	348	4.37	337	-2.6	100	-2.6	142	0	992.2	NA	0.0000	BR	2700	0	0	0	330
2019/11/30 10:08:00	BASE	3.66	337	4.37	337	-2.6	100	-2.6	132	0	992.2	NA	0.0000	BR	1700	0	0	0	300
2019/11/30 10:09:00	BASE	3.43	322	4.37	337	-2.5	100	-2.5	130	0	992.2	NA	0.0000	BR	1200	0	0	0	300
2019/11/30 10:10:00	BASE	3.31	312	4.37	337	-2.5	100	-2.5	126	0	992.2	NA	0.0000	BR	0700	0	0	0	230
2019/11/30 10:11:00	BASE	3.53	312	4.37	337	-2.4	100	-2.4	125	0	992.2	NA	0.0000	BR	0650	0	0	0	330
2019/11/30 10:12:00	BASE	3.64	316	4.37	337	-2.4	100	-2.4	125	0	992.2	NA	0.0000	BR	0650	0	0	0	300
2019/11/30 10:13:00	BASE	3.35	317	4.37	337	-2.4	100	-2.4	128	0	992.2	NA	0.0000	BR	0600	0	0	0	230
2019/11/30 10:14:00	BASE	3.33	329	4.37	337	-2.4	100	-2.4	129	0	992.1	NA	0.0000	BR	0600	0	0	0	300
2019/11/30 10:15:00	BASE	3.54	343	4.27	344	-2.5	100	-2.5	132	0	992.1	NA	0.0000	BR	0800	0	0	0	300
2019/11/30 10:16:00	BASE	3.70	348	4.27	344	-2.5	100	-2.5	148	0	992.1	NA	0.0000	FZFG	0900	0	0	0	300
2019/11/30 10:17:00	BASE	3.60	349	4.27	344	-2.5	100	-2.5	157	0	992.1	NA	0.0000	FZFG	1300	0	0	0	300
2019/11/30 10:18:00	BASE	3.42	349	4.27	344	-2.5	100	-2.5	153	0	992.1	NA	0.0000	FZFG	1100	0	0	0	300
2019/11/30 10:19:00	BASE	3.62	352	4.37	352	-2.6	100	-2.6	147	0	992.1	NA	0.0000	FZFG	1200	0	0	0	300
2019/11/30 10:20:00	BASE	3.84	350	4.37	352	-2.6	100	-2.6	149	0	992.1	NA	0.0000	FZFG	0900	0	0	0	260
2019/11/30 10:21:00	BASE	3.85	345	4.37	352	-2.7	100	-2.7	143	0	992.1	NA	0.0000	FZFG	0800	0	0	0	300
2019/11/30 10:22:00	BASE	3.55	341	4.37	352	-2.7	100	-2.7	135	0	992.1	NA	0.0000	FZFG	0800	0	0	0	260
2019/11/30 10:23:00	BASE	3.42	332	4.37	352	-2.7	100	-2.7	134	0	992.0	NA	0.0000	BR	0800	0	0	0	260
2019/11/30 10:24:00	BASE	3.73	317	4.37	352	-2.7	100	-2.7	131	0	992.0	NA	0.0000	BR	0750	0	0	0	300
2019/11/30 10:25:00	BASE	3.63	307	4.37	352	-2.7	100	-2.7	134	0	992.0	NA	0.0000	BR	0700	0	0	0	260
2019/11/30 10:26:00	BASE	3.44	308	4.37	352	-2.7	100	-2.7	140	0	992.0	NA	0.0000	BR	0750	0	0	0	260
2019/11/30 10:27:00	BASE	3.55	313	4.37	352	-2.7	100	-2.7	137	0	992.0	NA	0.0000	FZFG	0900	0	0	0	260
2019/11/30 10:28:00	BASE	3.79	311	4.48	312	-2.7	100	-2.7	144	0	992.0	NA	0.0000	FZFG	0800	0	0	0	300
2019/11/30 10:29:00	BASE	3.91	309	4.48	312	-2.8	100	-2.8	148	0	992.0	NA	0.0000	FZFG	0900	0	0	0	360
2019/11/30 10:30:00	BASE	3.53	307	4.48	312	-2.8	100	-2.8	146	0	992.0	NA	0.0000	FZFG	1000	0	0	0	360
2019/11/30 10:31:00	BASE	3.01	304	4.48	312	-2.7	100	-2.8	151	0	992.0	NA	0.0000	FZFG	1600	0	0	0	360
2019/11/30 10:32:00	BASE	2.74	302	4.48	312	-2.8	100	-2.8	155	0	992.0	NA	0.0000	BR	2100	0	0	0	390
2019/11/30 10:33:00	BASE	2.51	302	4.48	312	-2.8	100	-2.8	157	0	992.0	NA	0.0000	BR	1700	0	0	0	430
2019/11/30 10:34:00	BASE	2.75	304	4.48	312	-2.8	100	-2.8	149	0	992.0	NA	0.0000	BR	1500	0	0	0	330
2019/11/30 10:35:00	BASE	3.31	312	4.48	312	-2.7	100	-2.7	155	0	992.0	NA	0.0000	BR	1800	0	0	0	360
2019/11/30 10:36:00	BASE	3.44	323	4.48	312	-2.7	100	-2.7	165	0	992.0	NA	0.0000	UP BR	2700	0	0	0	490
2019/11/30 10:37:00	BASE	3.24	327	4.48	312	-2.6	100	-2.6	169	0	992.0	NA	0.0000	UP BR	5000	0	0	0	430
2019/11/30 10:38:00	BASE	2.77	318	4.27	311	-2.6	100	-2.6	174	0	992.0	NA	0.0000	UP BR	5000	0	0	0	430
2019/11/30 10:39:00	BASE	3.06	311	4.37	302	-2.5	100	-2.5	173	0	992.0	NA	0.0000	UP BR	5000	0	0	0	460
2019/11/30 10:40:00	BASE	3.48	314	4.37	302	-2.5	100	-2.5	178	0	992.0	NA	0.0000	UP BR	6000	0	0	0	560
2019/11/30 10:41:00	BASE	3.20	311	4.37	302	-2.5	100	-2.5	182	0	992.0	NA	0.0000	UP BR	7000	0	0	0	690
2019/11/30 10:42:00	BASE	2.96	309	4.37	302	-2.5	100	-2.5	180	0	992.0	NA	0.0000	UP BR	9000	0	0	0	620
2019/11/30 10:43:00	BASE	3.10	314	4.37	302	-2.6	100	-2.6	166	0	992.0	NA	0.0000	UP BR	7000	0	0	0	560
2019/11/30 10:44:00	BASE	3.81	312	4.68	307	-2.6	100	-2.6	173	0	992.0	NA	0.0000	UP BR	7000	0	0	0	430
2019/11/30 10:45:00	BASE	4.30	305	4.68	307	-2.6	100	-2.6	175	0	992.0	NA	0.0000	UP BR	5000	0	0	0	590
2019/11/30 10:46:00	BASE	4.33	306	4.68	307	-2.7	100	-2.7	179	0	992.0	NA	0.0000	UP BR	4600	0	0	0	620
2019/11/30 10:47:00	BASE	4.12	305	4.68	307	-2.7	100	-2.7	176	0	992.0	NA	0.0000	UP BR	7000	0	0	0	590
2019/11/30 10:48:00	BASE	3.97	301	4.68	307	-2.7	100	-2.7	171	0	992.0	NA	0.0000	UP BR	7000	0	0	0	560
2019/11/30 10:49:00	BASE	3.84	299	4.68	307	-2.7	100	-2.7	175	0	992.0	NA	0.0000	UP BR	9000	0	0	0	590
2019/11/30 10:50:00	BASE	3.40	299	4.68	307	-2.7	100	-2.7	187	0	992.0	NA	0.0000	UP BR	9000	0	0	0	560
2019/11/30 10:51:00	BASE	3.29	301	4.68	307	-2.7	100	-2.7	185	0	992.0	NA	0.0000	UP BR	8000	0	0	0	590
2019/11/30 10:52:00	BASE	3.50	302	4.68	307	-2.7	100	-2.7	177	0	991.9	NA	0.0000	UP BR	5000	0	0	0	520
2019/11/30 10:53:00	BASE	3.59	303	4.68	307	-2.7	100	-2.7	184	0	991.8	NA	0.0000	UP BR	2000	0	0	0	560
2019/11/30 10:54:00	BASE	3.51	310	4.53	310	-2.7	100	-2.7	177	0	991.8	NA	0.0000	UP BR	1900	0	0	0	520
2019/11/30 10:55:00	BASE	3.38	320	4.53	310	-2.8	100	-2.8	191	0	991.9	NA	0.0000	UP BR	1800	0	0	0	430
2019/11/30 10:56:00	BASE	3.23	322	4.27	303	-2.8	100	-2.8	200	0	991.9	NA	0.0000	UP BR	2600	0	0	0	390
2019/11/30 10:57:00	BASE	2.78	319	4.27	303	-2.8	100	-2.8	204	0	991.9	NA	0.0000	BR	1900	0	0	0	430
2019/11/30 10:58:00	BASE	2.50	320	4.06	314	-2.8	100	-2.8	215	0	991.9	NA	0.0000	BR	9999	0	0	0	460
2019/11/30 10:59:00	BASE	2.83	313	4.06	314	-2.8	100	-2.8	206	0	991.8	NA	0.0000	BR	9999	0	0	0	520
2019/11/30 11:00:00	BASE	3.31	303	4.06	314	-2.8	100	-2.8	205	0	991.8	NA	0.0000	BR	9999	0	0	0	460
2019/11/30 11:01:00	BASE	3.58	301	4.06	314	-2.7	100	-2.7	202	0	991.8	NA	0.0000	BR	9999	0	0	0	520
2019/11/30 11:02:00	BASE	3.57	306	4.06	314	-2.7	100	-2.7	203	0	991.8	NA	0.0000	BR	9999	22440	0	0	0
2019/11/30 11:03:00	BASE	3.31	309	3.81	305	-2.7	100	-2.7	209	0	991.8	NA	0.0000	BR	9999	0	0	0	560
2019/11/30 11:04:00	BASE	3.04	311	3.81	305	-2.7	100	-2.7	203	0	991.8	NA	0.0000	BR	9999	0	0	0	490
2019/11/30 11:05:00	BASE	2.88	311	3.81	305	-2.7	100	-2.7	197	0	991.8	NA	0.0000	BR	9999	0	0	0	430
2019/11/30 11:06:00	BASE	3.02	305	3.81	305	-2.8	100	-2.8	200	0	991.8	NA	0.0000	UP BR	4800	0	0	0	430
2019/11/30 11:07:00	BASE	3.29	300	3.91	307	-2.8	100	-2.8	203	0	991.8	NA	0.0000	UP	6000	0	0	0	490
2019/11/30 11:08:00	BASE	3.40	304	3.91	307	-2.7	100	-2.7	202	0	991.8	NA	0.0000	UP BR	6000	0	0	0	490
2019/11/30 11:09:00	BASE	3.44	304	4.06	292	-2.7	100	-2.7	202	0	991.8	NA	0.0000	UP BR	6000	0	0	0	490
2019/11/30 11:10:00	BASE	3.69	298	4.12	291	-2.7	100	-2.7	207	0	991.8	NA	0.0000	UP BR	8000	0	0	0	520
2019/11/30 11:11:00	BASE	3.67	297	4.12	291	-2.8	100	-2.8	211	0	991.8	NA	0.0000	UP BR	8000	0	0	0	590
2019/11/30 11:12:00	BASE	3.42	296	4.12	291	-2.8	100	-2.8	217	0	991.8	NA	0.0000	UP BR	8000	0	0	0	520
2019/11/30 11:13:00	BASE	3.57	294	4.12	289	-2.9	100	-2.9	219	0	991.8	NA	0.0000	UP BR	8000	200	0	0	0
2019/11/30 11:14:00	BASE	3.57	291	4.12	289	-2.9	100	-2.9	209	0	991.8	NA	0.0000	UP BR	8000	200	0	0	0
2019/11/30 11:15:00	BASE	3.57	293	4.32	296	-2.9	100	-2.9	209	0	991.8	NA	0.0000	UP BR	9000	230	0	0	0
2019/11/30 11:16:00	BASE	3.78	294	4.32	289	-2.9	100	-2.9	209	0	991.8	NA	0.0000	UP BR	9999	230	0	0	0
2019/11/30 11:17:00	BASE	3.69	294	4.32	289	-2.9	100	-2.9	206	0	991.8	NA	0.0000	BR	9999	230	0	0	0
2019/11/30 11:18:00	BASE	3.36	295	4.32	289	-2.9	100	-2.9	210	0	991.8	NA	0.0000	BR	9999	200	0	0	0
2019/11/30 11:19:00	BASE	3.16	296	4.32	289	-2.8	100	-2.8	220	0	991.8	NA	0.0000	BR	9999	260	0	0	0
2019/11/30 11:20:00	BASE	2.97	295	4.32	289	-2.8	100	-2.8	216	0	991.8	NA	0.0000	BR	9999	200	0	0	0
2019/11/30 11:21:00	BASE	3.08	295	4.32	289	-2.8	100	-2.8	220	0	991.8	NA	0.0000		9999	200	0	0	0
2019/11/30 11:22:00	BASE	3.33	301	4.32	289	-2.8	100	-2.8	212	0	991.8	NA	0.0000		9999	230	0	0	0
2019/11/30 11:23:00	BASE	3.25	305	4.32	289	-2.8	100	-2.8	209	0	991.8	NA	0.0000		9999	160	0	0	0
2019/11/30 11:24:00	BASE	2.93	308	4.32	289	-2.8	100	-2.8	213	0	991.8	NA	0.0000		9999	160	0	0	0
2019/11/30 11:25:00	BASE	2.81	301	4.32	289	-2.8	100	-2.8	211	0	991.8	NA	0.0000		9999	160	0	0	0
2019/11/30 11:26:00	BASE	3.07	297	4.01	295	-2.8	100	-2.8	209	0	991.8	NA	0.0000		9999	160	0	0	0
2019/11/30 11:27:00	BASE	3.52	304	4.17	305	-2.9	100	-2.9	206	0	991.7	NA	0.0000		9999	160	0	0	0
2019/11/30 11:28:00	BASE	3.72	305	4.17	305	-2.9	100	-2.9	212	0	991.8	NA	0.0000		9999	160	0	0	0
2019/11/30 11:29:00	BASE	3.27	302	4.17	305	-2.9	100	-2.9	212	0	991.8	NA	0.0000		9999	160	0	0	0
2019/11/30 11:30:00	BASE	2.84	302	4.17	305	-2.9	100	-2.9	211	0	991.8	NA	0.0000		9999	160	18540	0	0
2019/11/30 11:31:00	BASE	3.09	303	4.27	298	-2.9	100	-2.9	209	0	991.8	NA	0.0000		9999	0	0	0	460
2019/11/30 11:32:00	BASE	3.74	303	4.27	298	-2.8	100	-2.8	212	0	991.7	NA	0.0000		9999	0	0	0	430
2019/11/30 11:33:00	BASE	3.94	303	4.27	298	-2.8	100	-2.8	210	0	991.8	NA	0.0000		9999	19060	0	0	0
2019/11/30 11:34:00	BASE	3.88	303	4.78	312	-2.8	100	-2.8	205	0	991.8	NA	0.0000		9999	0	0	0	430
2019/11/30 11:35:00	BASE	4.22	309	5.04	322	-2.8	100	-2.8	202	0	991.7	NA	0.0000		9999	0	0	0	430
2019/11/30 11:36:00	BASE	4.59	313	5.09	312	-2.8	100	-2.8	204	0	991.7	NA	0.0000		9999	20600	0	0	0
2019/11/30 11:37:00	BASE	4.07	312	5.09	312	-2.9	100	-2.9	212	0	991.8	NA	0.0000		9999	0	0	0	390
2019/11/30 11:38:00	BASE	3.60	308	5.09	312	-2.9	100	-2.9	216	0	991.7	NA	0.0000		9999	0	0	0	430
2019/11/30 11:39:00	BASE	3.34	305	5.09	312	-2.9	100	-2.9	217	0	991.8	NA	0.0000		9999	0	0	0	430
2019/11/30 11:40:00	BASE	2.98	310	5.09	312	-2.9	100	-2.9	218	0	991.8	NA	0.0000		9999	21290	23660	0	0
2019/11/30 11:41:00	BASE	3.34	310	5.09	312	-2.9	100	-2.9	213	0	991.7	NA	0.0000		9000	0	0	0	330
2019/11/30 11:42:00	BASE	3.81	306	5.09	312	-2.9	100	-2.9	206	0	991.7	NA	0.0000		7000	0	0	0	330
2019/11/30 11:43:00	BASE	4.02	307	5.09	312	-2.9	100	-2.9	198	0	991.7	NA	0.0000		8000	0	0	0	330
2019/11/30 11:44:00	BASE	4.30	311	5.09	317	-2.9	100	-2.9	210	0	991.7	NA	0.0000	BR	9000	0	0	0	330
2019/11/30 11:45:00	BASE	4.56	313	5.45	325	-2.9	100	-2.9	221	0	991.7	NA	0.0000	BR	9000	0	0	0	390
2019/11/30 11:46:00	BASE	4.41	317	5.45	325	-2.9	100	-2.9	235	0	991.8	NA	0.0000	BR	9999	0	0	0	360
2019/11/30 11:47:00	BASE	4.11	319	5.45	325	-2.9	100	-2.9	228	0	991.8	NA	0.0000	BR	8000	0	0	0	360
2019/11/30 11:48:00	BASE	4.20	315	5.45	325	-2.9	100	-2.9	223	0	991.7	NA	0.0000	BR	9999	0	0	0	360
2019/11/30 11:49:00	BASE	4.16	317	5.45	325	-2.9	100	-2.9	232	0	991.8	NA	0.0000	BR	9999	0	0	0	360
2019/11/30 11:50:00	BASE	3.84	319	5.45	325	-3.0	100	-3.0	249	0	991.8	NA	0.0000	BR	9000	0	0	0	360
2019/11/30 11:51:00	BASE	3.44	322	5.45	325	-3.0	100	-3.0	253	0	991.8	NA	0.0000	BR	8000	0	0	0	330
2019/11/30 11:52:00	BASE	3.00	325	5.45	325	-2.9	100	-2.9	250	0	991.8	NA	0.0000	BR	6000	0	0	0	360
2019/11/30 11:53:00	BASE	3.42	326	5.45	325	-2.9	100	-2.9	262	0	991.8	NA	0.0000	BR	9999	0	0	0	360
2019/11/30 11:54:00	BASE	4.07	331	5.45	325	-2.9	100	-2.9	250	0	991.7	NA	0.0000	BR	9999	0	0	0	360
2019/11/30 11:55:00	BASE	4.14	322	4.68	307	-2.8	100	-2.8	247	0	991.7	NA	0.0000	BR	8000	0	0	0	360
2019/11/30 11:56:00	BASE	3.75	312	4.68	307	-2.8	100	-2.8	257	0	991.7	NA	0.0000	BR	9999	0	0	0	330
2019/11/30 11:57:00	BASE	3.34	320	4.68	307	-2.8	100	-2.8	270	0	991.7	NA	0.0000	BR	9999	0	0	0	360
2019/11/30 11:58:00	BASE	3.47	335	4.63	310	-2.8	100	-2.8	264	0	991.7	NA	0.0000		9999	0	0	0	390
2019/11/30 11:59:01	BASE	3.65	336	4.63	310	-2.8	100	-2.8	259	0	991.7	NA	0.0000		9999	0	0	0	430
2019/11/30 12:00:00	BASE	3.94	324	4.63	310	-2.8	100	-2.8	247	0	991.7	NA	0.0000		9999	0	0	0	360
2019/11/30 12:01:00	BASE	4.08	318	4.63	310	-2.8	100	-2.8	248	0	991.7	NA	0.0000		9999	0	0	0	360
2019/11/30 12:02:00	BASE	3.64	322	4.63	310	-2.8	100	-2.8	236	0	991.7	NA	0.0000		9999	0	0	0	330
2019/11/30 12:03:00	BASE	3.81	324	4.84	332	-2.8	100	-2.8	232	0	991.7	NA	0.0000		9999	21850	22510	0	0
2019/11/30 12:04:00	BASE	4.41	331	4.84	332	-2.9	100	-2.9	254	0	991.7	NA	0.0000		9999	0	0	0	390
2019/11/30 12:05:00	BASE	4.26	338	4.84	332	-2.9	100	-2.9	254	0	991.7	NA	0.0000		9999	19390	0	0	0
2019/11/30 12:06:00	BASE	4.22	337	4.84	332	-2.9	100	-2.9	252	0	991.7	NA	0.0000		9999	0	0	0	300
2019/11/30 12:07:00	BASE	4.30	335	4.84	332	-2.9	100	-2.9	242	0	991.7	NA	0.0000		9999	0	0	0	300
2019/11/30 12:08:00	BASE	4.13	330	4.84	332	-2.9	100	-2.9	232	0	991.8	NA	0.0000		9999	0	0	0	300
2019/11/30 12:09:00	BASE	4.15	328	4.84	332	-2.8	100	-2.8	229	0	991.7	NA	0.0000		9999	0	0	0	300
2019/11/30 12:10:00	BASE	4.13	332	4.84	332	-2.9	100	-2.9	225	0	991.7	NA	0.0000		9999	0	0	0	330
2019/11/30 12:11:00	BASE	3.83	328	4.84	332	-2.9	100	-2.9	221	0	991.8	NA	0.0000		9999	22250	22900	0	0
2019/11/30 12:12:00	BASE	3.77	321	4.84	332	-2.9	100	-2.9	213	0	991.7	NA	0.0000		9999	0	0	0	360
2019/11/30 12:13:00	BASE	3.85	319	4.78	334	-2.9	100	-2.9	207	0	991.8	NA	0.0000		9999	0	0	0	330
2019/11/30 12:14:00	BASE	3.80	316	4.78	334	-2.9	100	-2.9	204	0	991.7	NA	0.0000		9999	21460	0	0	0
2019/11/30 12:15:00	BASE	4.12	313	4.99	313	-2.8	100	-2.8	215	0	991.7	NA	0.0000		9999	0	0	0	300
2019/11/30 12:16:00	BASE	4.59	310	4.99	309	-2.8	100	-2.8	223	0	991.7	NA	0.0000		9999	0	0	0	360
2019/11/30 12:17:00	BASE	4.65	307	5.25	310	-2.8	100	-2.8	230	0	991.7	NA	0.0000		5000	0	0	0	330
2019/11/30 12:18:00	BASE	4.62	308	5.35	311	-2.9	100	-2.9	242	0	991.7	NA	0.0000	BR	3000	0	0	0	360
2019/11/30 12:19:00	BASE	4.50	312	5.35	311	-2.9	100	-2.9	261	0	991.7	NA	0.0000	BR	8000	0	0	0	360
2019/11/30 12:20:00	BASE	4.02	321	5.35	311	-3.0	100	-3.0	264	0	991.8	NA	0.0000	BR	8000	0	0	0	360
2019/11/30 12:21:00	BASE	3.83	328	5.35	311	-3.0	100	-3.0	283	0	991.7	NA	0.0000	BR	9000	0	0	0	360
2019/11/30 12:22:00	BASE	3.78	329	5.35	311	-3.1	100	-3.1	325	0	991.7	NA	0.0000	BR	9999	0	0	0	390
2019/11/30 12:23:00	BASE	3.26	329	5.35	311	-3.1	100	-3.1	363	0	991.7	NA	0.0000	BR	9999	0	0	0	490
2019/11/30 12:24:00	BASE	3.43	334	5.35	311	-3.2	100	-3.2	321	0	991.7	NA	0.0000	BR	9999	21950	0	0	0
2019/11/30 12:25:00	BASE	3.86	337	5.35	311	-3.1	100	-3.1	282	0	991.7	NA	0.0000	BR	9999	0	0	0	430
2019/11/30 12:26:00	BASE	3.59	336	5.35	311	-3.1	100	-3.1	260	0	991.7	NA	0.0000	BR	9999	0	0	0	360
2019/11/30 12:27:00	BASE	3.57	337	5.35	311	-3.1	100	-3.1	248	0	991.7	NA	0.0000	BR	9999	0	0	0	360
2019/11/30 12:28:00	BASE	3.97	337	4.84	337	-3.0	100	-3.0	247	0	991.7	NA	0.0000		9999	0	0	0	330
2019/11/30 12:29:00	BASE	3.72	336	4.84	337	-2.9	100	-2.9	242	0	991.7	NA	0.0000		9999	0	0	0	330
2019/11/30 12:30:00	BASE	3.60	335	4.84	337	-2.9	100	-2.9	237	0	991.7	NA	0.0000		9999	0	0	0	330
2019/11/30 12:31:00	BASE	3.83	333	4.84	337	-2.9	100	-2.9	234	0	991.8	NA	0.0000		9999	0	0	0	300
2019/11/30 12:32:00	BASE	3.55	330	4.84	337	-2.9	100	-2.9	235	0	991.8	NA	0.0000		9999	0	0	0	330
2019/11/30 12:33:00	BASE	3.71	335	4.84	337	-2.9	100	-2.9	249	0	991.8	NA	0.0000		9999	0	0	0	330
2019/11/30 12:34:00	BASE	4.12	341	4.84	337	-2.9	100	-2.9	237	0	991.8	NA	0.0000		9999	0	0	0	430
2019/11/30 12:35:00	BASE	4.53	334	5.25	327	-2.8	100	-2.8	234	0	991.8	NA	0.0000		9999	0	0	0	300
2019/11/30 12:36:00	BASE	4.51	323	5.25	327	-2.8	100	-2.8	235	0	991.8	NA	0.0000		9999	0	0	0	300
2019/11/30 12:37:00	BASE	3.53	319	5.25	327	-2.8	100	-2.8	233	0	991.8	NA	0.0000		9999	0	0	0	300
2019/11/30 12:38:00	BASE	2.96	322	5.25	327	-2.8	100	-2.8	228	0	991.8	NA	0.0000		9999	0	0	0	330
2019/11/30 12:39:00	BASE	3.26	322	5.25	327	-2.8	100	-2.8	228	0	991.8	NA	0.0000		9999	0	0	0	330
2019/11/30 12:40:00	BASE	3.40	322	5.25	327	-2.8	100	-2.8	228	0	991.8	NA	0.0000		9999	0	0	0	330
2019/11/30 12:41:00	BASE	3.12	318	5.25	327	-2.8	100	-2.8	226	0	991.8	NA	0.0000		9999	0	0	0	360
2019/11/30 12:42:00	BASE	2.83	312	5.25	327	-2.8	100	-2.8	226	0	991.8	NA	0.0000		9999	0	0	0	360
2019/11/30 12:43:00	BASE	3.04	306	5.25	327	-2.7	100	-2.7	235	0	991.8	NA	0.0000		9999	0	0	0	360
2019/11/30 12:44:00	BASE	3.63	305	5.25	327	-2.7	100	-2.7	247	0	991.7	NA	0.0000		9999	0	0	0	430
2019/11/30 12:45:00	BASE	4.18	307	4.99	324	-2.6	100	-2.6	247	0	991.7	NA	0.0000		9999	0	0	0	390
2019/11/30 12:46:00	BASE	4.42	306	4.78	305	-2.7	100	-2.7	246	0	991.7	NA	0.0000		9999	0	0	0	430
2019/11/30 12:47:00	BASE	4.35	301	4.78	305	-2.7	100	-2.7	254	0	991.8	NA	0.0000		9999	0	0	0	430
2019/11/30 12:48:00	BASE	4.18	296	4.78	305	-2.7	100	-2.7	263	0	991.7	NA	0.0000		9999	0	0	0	430
2019/11/30 12:49:00	BASE	3.66	297	4.78	305	-2.8	100	-2.8	268	0	991.8	NA	0.0000		9999	0	0	0	390
2019/11/30 12:50:00	BASE	3.13	300	4.78	305	-2.8	100	-2.8	255	0	991.8	NA	0.0000		9999	0	0	0	390
2019/11/30 12:51:00	BASE	2.89	300	4.78	305	-2.8	100	-2.8	257	0	991.8	NA	0.0000		9999	0	0	0	430
2019/11/30 12:52:00	BASE	2.71	305	4.78	305	-2.7	100	-2.7	240	0	991.8	NA	0.0000		9999	0	0	0	430
2019/11/30 12:53:00	BASE	2.96	306	4.78	305	-2.7	100	-2.7	246	0	991.8	NA	0.0000		9999	0	0	0	360
2019/11/30 12:54:00	BASE	3.16	300	4.78	305	-2.7	100	-2.7	255	0	991.8	NA	0.0000		9999	0	0	0	430
2019/11/30 12:55:00	BASE	3.04	303	4.78	305	-2.7	100	-2.7	254	0	991.8	NA	0.0000		9999	0	0	0	390
2019/11/30 12:56:00	BASE	3.15	304	4.68	298	-2.7	100	-2.7	242	0	991.8	NA	0.0000		9999	0	0	0	390
2019/11/30 12:57:00	BASE	3.50	301	4.37	297	-2.7	100	-2.7	230	0	991.8	NA	0.0000		9999	0	0	0	390
2019/11/30 12:58:00	BASE	3.95	304	4.68	310	-2.7	100	-2.7	223	0	991.8	NA	0.0000		9999	22930	0	0	0
2019/11/30 12:59:00	BASE	3.94	306	4.68	310	-2.7	100	-2.7	216	0	991.8	NA	0.0000		9999	0	0	0	390
2019/11/30 13:00:00	BASE	3.55	310	4.68	310	-2.7	100	-2.7	222	0	991.9	NA	0.0000		9999	0	0	0	360
2019/11/30 13:01:00	BASE	3.26	318	4.68	310	-2.7	100	-2.7	224	0	991.9	NA	0.0000		9999	0	0	0	390
2019/11/30 13:02:00	BASE	3.40	322	4.68	310	-2.7	100	-2.7	219	0	991.9	NA	0.0000		9999	0	0	0	390
2019/11/30 13:03:00	BASE	3.44	325	4.68	310	-2.8	100	-2.8	207	0	991.8	NA	0.0000		9999	0	0	0	390
2019/11/30 13:04:00	BASE	3.33	325	4.68	310	-2.8	100	-2.8	208	0	991.8	NA	0.0000		9999	0	0	0	390
2019/11/30 13:05:00	BASE	3.46	325	4.68	310	-2.7	100	-2.7	204	0	991.9	NA	0.0000		9999	0	0	0	430
2019/11/30 13:06:00	BASE	3.29	324	4.68	310	-2.7	100	-2.7	191	0	991.8	NA	0.0000		9999	160	0	0	0
2019/11/30 13:07:00	BASE	3.17	316	4.68	310	-2.8	100	-2.8	199	0	991.8	NA	0.0000		9999	0	0	0	390
2019/11/30 13:08:00	BASE	3.28	309	4.22	323	-2.7	100	-2.7	210	0	991.8	NA	0.0000		9999	160	0	0	0
2019/11/30 13:09:00	BASE	3.24	310	4.22	323	-2.8	100	-2.8	221	0	991.8	NA	0.0000		9999	160	0	0	0
2019/11/30 13:10:00	BASE	3.09	319	4.22	323	-2.8	100	-2.8	241	0	991.8	NA	0.0000		9999	160	0	0	0
2019/11/30 13:11:00	BASE	2.95	323	4.22	323	-2.8	100	-2.8	262	0	991.8	NA	0.0000		9999	160	0	0	0
2019/11/30 13:12:00	BASE	3.08	324	4.12	313	-2.8	100	-2.8	283	0	991.8	NA	0.0000		9999	160	20930	0	0
2019/11/30 13:13:00	BASE	2.87	327	4.12	313	-2.8	100	-2.8	259	0	991.8	NA	0.0000		9999	160	0	0	0
2019/11/30 13:14:00	BASE	2.37	335	4.12	313	-2.8	100	-2.8	259	0	991.8	NA	0.0000		9999	160	0	0	0
2019/11/30 13:15:00	BASE	2.30	336	4.12	313	-2.8	100	-2.8	251	0	991.8	NA	0.0000		9999	0	0	0	430
2019/11/30 13:16:00	BASE	2.80	328	4.12	313	-2.8	100	-2.8	236	0	991.6	NA	0.0000		9999	160	21980	0	0
2019/11/30 13:17:00	BASE	3.19	320	3.81	329	-2.8	100	-2.8	235	0	991.7	NA	0.0000		9999	160	0	0	0
2019/11/30 13:18:00	BASE	3.04	305	3.81	329	-2.8	100	-2.8	233	0	991.8	NA	0.0000		9999	160	0	0	0
2019/11/30 13:19:01	BASE	2.91	305	3.81	329	-2.8	100	-2.8	247	0	991.8	NA	0.0000		9999	160	0	0	0
2019/11/30 13:20:00	BASE	2.96	309	3.86	322	-2.8	100	-2.8	248	0	991.8	NA	0.0000		9999	160	21160	0	0
2019/11/30 13:21:00	BASE	2.76	298	3.86	322	-2.7	100	-2.7	260	0	991.8	NA	0.0000		9999	160	0	0	0
2019/11/30 13:22:00	BASE	2.98	300	4.22	310	-2.7	100	-2.7	268	0	991.8	NA	0.0000		9999	160	0	0	0
2019/11/30 13:23:00	BASE	3.53	309	4.22	310	-2.7	100	-2.7	265	0	991.8	NA	0.0000		9999	160	0	0	0
2019/11/30 13:24:00	BASE	3.52	301	4.22	310	-2.6	100	-2.6	269	0	991.8	NA	0.0000		9999	160	0	0	0
2019/11/30 13:25:00	BASE	3.24	290	4.22	310	-2.6	100	-2.6	272	0	991.8	NA	0.0000		9999	160	0	0	0
2019/11/30 13:26:00	BASE	3.23	287	4.22	310	-2.7	100	-2.7	251	0	991.8	NA	0.0000		9999	160	0	0	0
2019/11/30 13:27:00	BASE	3.37	291	4.22	310	-2.6	100	-2.6	261	0	991.8	NA	0.0000		9999	160	0	0	0
2019/11/30 13:28:00	BASE	3.18	296	4.22	310	-2.6	100	-2.6	246	0	991.8	NA	0.0000		9999	160	0	0	0
2019/11/30 13:29:00	BASE	2.85	296	4.22	310	-2.7	100	-2.7	242	0	991.8	NA	0.0000		9999	160	0	0	0
2019/11/30 13:30:00	BASE	2.49	293	4.22	310	-2.7	100	-2.7	243	0	991.8	NA	0.0000		9999	160	0	0	0
2019/11/30 13:31:00	BASE	2.58	292	4.22	310	-2.7	100	-2.7	216	0	991.8	NA	0.0000		9999	160	0	0	0
2019/11/30 13:32:00	BASE	2.88	291	4.01	286	-2.7	100	-2.7	199	0	991.8	NA	0.0000		9999	0	0	0	430
2019/11/30 13:33:00	BASE	2.94	289	4.01	286	-2.7	100	-2.7	208	0	991.8	NA	0.0000		9999	160	0	0	0
2019/11/30 13:34:00	BASE	3.08	295	3.81	291	-2.7	100	-2.7	219	0	991.6	NA	0.0000		9999	160	0	0	0
2019/11/30 13:35:00	BASE	3.25	298	3.81	299	-2.7	100	-2.7	223	0	991.8	NA	0.0000		9999	0	0	0	430
2019/11/30 13:36:00	BASE	3.44	294	3.96	293	-2.7	100	-2.7	255	0	991.8	NA	0.0000		9999	0	0	0	430
2019/11/30 13:37:00	BASE	3.52	296	3.96	293	-2.6	100	-2.6	253	0	991.8	NA	0.0000		9999	0	0	0	430
2019/11/30 13:38:00	BASE	3.45	297	3.96	293	-2.6	100	-2.6	250	0	991.7	NA	0.0000		9999	0	0	0	430
2019/11/30 13:39:00	BASE	3.22	298	3.96	293	-2.6	100	-2.6	261	0	991.7	NA	0.0000		9999	0	0	0	430
2019/11/30 13:40:00	BASE	3.15	294	3.96	293	-2.6	100	-2.6	265	0	991.7	NA	0.0000		9999	0	0	0	430
2019/11/30 13:41:00	BASE	3.20	292	3.96	293	-2.6	100	-2.6	245	0	991.7	NA	0.0000		9999	0	0	0	430
2019/11/30 13:42:00	BASE	3.15	293	3.96	293	-2.6	100	-2.6	246	0	991.7	NA	0.0000		9999	160	19260	0	0
2019/11/30 13:43:00	BASE	3.08	297	3.96	293	-2.7	100	-2.7	270	0	991.7	NA	0.0000		9999	160	0	0	0
2019/11/30 13:44:00	BASE	3.01	301	3.96	293	-2.7	100	-2.7	258	0	991.7	NA	0.0000		9999	160	0	0	0
2019/11/30 13:45:00	BASE	2.93	299	3.96	293	-2.7	100	-2.7	260	0	991.7	NA	0.0000		9999	160	0	0	0
2019/11/30 13:46:00	BASE	2.98	299	3.76	296	-2.7	100	-2.7	285	0	991.7	NA	0.0000		9999	160	0	0	0
2019/11/30 13:47:00	BASE	3.27	303	3.76	296	-2.6	100	-2.6	266	0	991.7	NA	0.0000		9999	160	0	0	0
2019/11/30 13:48:00	BASE	3.07	301	3.65	308	-2.6	100	-2.6	218	0	991.7	NA	0.0000		9999	160	0	0	0
2019/11/30 13:49:00	BASE	2.69	299	3.65	308	-2.6	100	-2.6	204	0	991.7	NA	0.0000		9999	160	0	0	0
2019/11/30 13:50:00	BASE	2.93	303	3.65	308	-2.6	100	-2.6	206	0	991.7	NA	0.0000		9999	160	0	0	0
2019/11/30 13:51:00	BASE	3.32	302	3.65	308	-2.5	100	-2.5	225	0	991.7	NA	0.0000		9999	200	0	0	0
2019/11/30 13:52:00	BASE	3.26	299	3.65	308	-2.5	100	-2.5	257	0	991.7	NA	0.0000		9999	160	0	0	0
2019/11/30 13:53:00	BASE	2.94	304	3.65	308	-2.5	100	-2.5	313	0	991.6	NA	0.0000		9999	160	0	0	0
2019/11/30 13:54:00	BASE	2.96	312	3.65	308	-2.5	100	-2.5	363	0	991.7	NA	0.0000		9999	200	0	0	0
2019/11/30 13:55:00	BASE	3.09	321	3.65	308	-2.6	100	-2.6	357	0	991.7	NA	0.0000		9999	230	0	0	0
2019/11/30 13:56:00	BASE	2.78	329	3.65	308	-2.6	100	-2.6	315	0	991.7	NA	0.0000		9999	230	0	0	0
2019/11/30 13:57:00	BASE	2.17	333	3.60	296	-2.7	100	-2.7	285	0	991.7	NA	0.0000		9999	200	0	0	0
2019/11/30 13:58:00	BASE	2.10	333	3.60	296	-2.7	100	-2.7	305	0	991.7	NA	0.0000		9999	200	0	0	0
2019/11/30 13:59:00	BASE	2.76	329	3.60	296	-2.7	100	-2.7	336	0	991.7	NA	0.0000		9999	200	0	0	0
2019/11/30 14:00:00	BASE	3.13	331	3.60	296	-2.7	100	-2.7	365	0	991.7	NA	0.0000		9999	260	0	0	0
2019/11/30 14:01:00	BASE	3.01	329	3.55	324	-2.7	100	-2.7	375	0	991.5	NA	0.0000		9999	300	0	0	0
2019/11/30 14:02:00	BASE	2.78	320	3.55	324	-2.6	100	-2.6	395	0	991.7	NA	0.0000		9999	260	0	0	0
2019/11/30 14:03:00	BASE	2.74	318	3.55	324	-2.6	100	-2.6	405	0	991.7	NA	0.0000		9999	300	0	0	0
2019/11/30 14:04:00	BASE	2.72	315	3.55	324	-2.5	100	-2.5	448	0	991.7	NA	0.0000		9999	200	0	0	0
2019/11/30 14:05:00	BASE	2.53	310	3.55	324	-2.5	100	-2.5	468	0	991.7	NA	0.0000		9999	300	0	0	0
2019/11/30 14:06:00	BASE	2.31	316	3.55	324	-2.5	100	-2.5	479	0	991.7	NA	0.0000		9999	300	0	0	0
2019/11/30 14:07:00	BASE	2.26	318	3.55	324	-2.5	100	-2.5	476	0	991.7	NA	0.0000		9999	360	0	0	0
2019/11/30 14:08:00	BASE	2.54	317	3.55	324	-2.5	100	-2.5	450	0	991.7	NA	0.0000		9999	330	0	0	0
2019/11/30 14:09:00	BASE	2.63	324	3.45	331	-2.6	100	-2.6	469	0	991.7	NA	0.0000		9999	260	0	0	0
2019/11/30 14:10:00	BASE	2.36	328	3.40	333	-2.6	100	-2.6	486	0	991.5	NA	0.0000		9999	230	0	0	0
2019/11/30 14:11:00	BASE	2.14	327	3.09	315	-2.6	100	-2.6	450	0	991.7	NA	0.0000		9999	330	0	0	0
2019/11/30 14:12:00	BASE	2.15	314	3.09	315	-2.5	100	-2.5	414	0	991.7	NA	0.0000		9999	300	0	0	0
2019/11/30 14:13:00	BASE	2.04	305	3.09	315	-2.5	100	-2.5	405	0	991.6	NA	0.0000		9999	300	0	0	0
2019/11/30 14:14:00	BASE	1.75	322	2.93	315	-2.5	100	-2.5	421	0	991.7	NA	0.0000		9999	260	0	0	0
2019/11/30 14:15:00	BASE	2.28	339	3.40	325	-2.5	100	-2.5	422	0	991.6	NA	0.0000		9999	300	20010	0	0
2019/11/30 14:16:00	BASE	3.15	327	3.65	304	-2.5	100	-2.5	415	0	991.6	NA	0.0000		9999	330	21880	0	0
2019/11/30 14:17:00	BASE	3.24	309	3.65	304	-2.5	100	-2.5	426	0	991.6	NA	0.0000		9999	330	0	0	0
2019/11/30 14:18:00	BASE	2.94	303	3.65	304	-2.5	100	-2.5	433	0	991.6	NA	0.0000		9999	330	0	0	0
2019/11/30 14:19:00	BASE	2.93	302	3.65	304	-2.5	100	-2.5	424	0	991.6	NA	0.0000		9999	360	0	0	0
2019/11/30 14:20:00	BASE	3.26	303	3.76	307	-2.4	100	-2.4	421	0	991.6	NA	0.0000		9999	330	23130	0	0
2019/11/30 14:21:00	BASE	3.52	309	3.86	310	-2.4	100	-2.4	424	0	991.6	NA	0.0000		9999	360	0	0	0
2019/11/30 14:22:00	BASE	3.12	315	3.86	310	-2.4	100	-2.4	438	0	991.5	NA	0.0000		9999	330	0	0	0
2019/11/30 14:23:00	BASE	2.77	315	3.86	310	-2.4	100	-2.4	467	0	991.6	NA	0.0000		9999	390	0	0	0
2019/11/30 14:24:00	BASE	3.29	320	3.86	320	-2.4	100	-2.4	504	0	991.6	NA	0.0000		9999	390	0	0	0
2019/11/30 14:25:00	BASE	3.61	320	3.91	316	-2.5	100	-2.5	498	0	991.6	NA	0.0000		9999	430	0	0	0
2019/11/30 14:26:00	BASE	3.75	312	4.27	305	-2.5	100	-2.5	489	0	991.6	NA	0.0000		9999	430	0	0	0
2019/11/30 14:27:00	BASE	3.78	308	4.27	305	-2.5	100	-2.5	427	0	991.6	NA	0.0000		9999	390	0	0	0
2019/11/30 14:28:00	BASE	3.37	308	4.27	305	-2.5	100	-2.5	425	0	991.6	NA	0.0000		9999	390	0	0	0
2019/11/30 14:29:00	BASE	3.31	312	4.27	305	-2.4	100	-2.4	439	0	991.6	NA	0.0000		9999	360	0	0	0
2019/11/30 14:30:00	BASE	3.45	319	4.27	305	-2.4	100	-2.4	527	0	991.6	NA	0.0000		9999	390	0	0	0
2019/11/30 14:31:00	BASE	3.37	323	4.27	305	-2.4	100	-2.4	518	0	991.6	NA	0.0000		9999	430	0	0	0
2019/11/30 14:32:00	BASE	3.47	322	4.27	305	-2.4	100	-2.4	493	0	991.6	NA	0.0000		9999	390	0	0	0
2019/11/30 14:33:00	BASE	3.51	323	4.27	305	-2.4	100	-2.4	530	0	991.6	NA	0.0000		9999	430	0	0	0
2019/11/30 14:34:00	BASE	3.55	333	4.27	305	-2.4	100	-2.4	617	0	991.6	NA	0.0000		9999	390	0	0	0
2019/11/30 14:35:00	BASE	3.22	334	4.27	305	-2.4	100	-2.4	519	0	991.6	NA	0.0000		9999	360	0	0	0
2019/11/30 14:36:00	BASE	2.99	339	4.12	338	-2.4	100	-2.4	480	0	991.6	NA	0.0000		9999	460	0	0	0
2019/11/30 14:37:00	BASE	3.34	350	4.68	348	-2.4	100	-2.4	450	0	991.6	NA	0.0000		9999	430	0	0	0
2019/11/30 14:38:00	BASE	3.68	339	4.68	348	-2.4	100	-2.4	437	0	991.6	NA	0.0000		9999	390	0	0	0
2019/11/30 14:39:00	BASE	3.64	319	4.68	348	-2.3	100	-2.3	431	0	991.6	NA	0.0000		9999	360	0	0	0
2019/11/30 14:40:00	BASE	3.01	306	4.68	348	-2.3	100	-2.3	431	0	991.6	NA	0.0000		9999	360	0	0	0
2019/11/30 14:41:00	BASE	2.79	308	4.68	348	-2.3	100	-2.3	422	0	991.6	NA	0.0000		9999	360	0	0	0
2019/11/30 14:42:00	BASE	3.05	315	4.68	348	-2.2	100	-2.2	433	0	991.6	NA	0.0000		9999	390	0	0	0
2019/11/30 14:43:00	BASE	3.25	315	4.68	348	-2.2	100	-2.2	433	0	991.6	NA	0.0000		9999	430	0	0	0
2019/11/30 14:44:00	BASE	3.53	314	4.68	348	-2.3	100	-2.3	413	0	991.6	NA	0.0000		9999	390	0	0	0
2019/11/30 14:45:00	BASE	3.75	311	4.68	348	-2.3	100	-2.3	436	0	991.6	NA	0.0000		9999	430	0	0	0
2019/11/30 14:46:00	BASE	3.75	314	4.68	348	-2.3	100	-2.3	441	0	991.6	NA	0.0000		9999	360	0	0	0
2019/11/30 14:47:00	BASE	3.87	319	4.48	344	-2.3	100	-2.3	453	0	991.6	NA	0.0000		9999	330	0	0	0
2019/11/30 14:48:00	BASE	3.81	322	4.32	324	-2.3	100	-2.3	516	0	991.6	NA	0.0000		9999	330	0	0	0
2019/11/30 14:49:00	BASE	3.42	331	4.32	324	-2.4	100	-2.4	461	0	991.6	NA	0.0000		9999	330	0	0	0
2019/11/30 14:50:00	BASE	3.12	339	4.32	324	-2.4	100	-2.4	438	0	991.6	NA	0.0000		9999	330	21460	0	0
2019/11/30 14:51:00	BASE	3.26	342	4.32	324	-2.4	100	-2.4	417	0	991.6	NA	0.0000		9999	360	0	0	0
2019/11/30 14:52:00	BASE	3.48	332	4.63	313	-2.4	100	-2.4	394	0	991.6	NA	0.0000		9999	360	0	0	0
2019/11/30 14:53:00	BASE	3.73	317	4.63	313	-2.3	100	-2.3	390	0	991.6	NA	0.0000		9999	330	0	0	0
2019/11/30 14:54:00	BASE	3.63	311	4.63	313	-2.4	100	-2.4	384	0	991.6	NA	0.0000		9999	260	0	0	0
2019/11/30 14:55:00	BASE	3.18	309	4.63	313	-2.4	100	-2.4	379	0	991.6	NA	0.0000		9999	260	0	0	0
2019/11/30 14:56:00	BASE	3.13	313	4.63	313	-2.4	100	-2.4	380	0	991.6	NA	0.0000		9999	300	0	0	0
2019/11/30 14:57:00	BASE	3.11	311	4.63	313	-2.4	100	-2.4	373	0	991.6	NA	0.0000		9999	300	0	0	0
2019/11/30 14:58:00	BASE	3.20	306	4.63	313	-2.4	100	-2.4	374	0	991.6	NA	0.0000		9999	300	20410	0	0
2019/11/30 14:59:00	BASE	3.58	310	4.63	313	-2.3	100	-2.3	377	0	991.6	NA	0.0000		9999	300	0	0	0
2019/11/30 15:00:00	BASE	3.68	312	4.63	313	-2.3	100	-2.3	370	0	991.7	NA	0.0000		9999	300	0	0	0
2019/11/30 15:01:00	BASE	3.80	311	4.63	313	-2.2	100	-2.2	377	0	991.6	NA	0.0000		9999	260	0	0	0
2019/11/30 15:02:00	BASE	3.99	313	4.32	316	-2.2	100	-2.2	390	0	991.6	NA	0.0000		9999	260	0	0	0
2019/11/30 15:03:00	BASE	4.05	315	4.73	313	-2.3	100	-2.3	404	0	991.6	NA	0.0000		9999	260	0	0	0
2019/11/30 15:04:00	BASE	3.85	313	4.73	313	-2.3	100	-2.3	418	0	991.6	NA	0.0000		9999	230	0	0	0
2019/11/30 15:05:00	BASE	3.57	310	4.73	313	-2.4	100	-2.4	424	0	991.6	NA	0.0000		9999	300	0	0	0
2019/11/30 15:06:00	BASE	3.46	312	4.73	313	-2.4	100	-2.4	409	0	991.6	NA	0.0000		9999	300	0	0	0
2019/11/30 15:07:00	BASE	3.14	311	4.73	313	-2.5	100	-2.5	416	0	991.6	NA	0.0000		9999	260	0	0	0
2019/11/30 15:08:00	BASE	3.13	306	4.73	313	-2.5	100	-2.5	404	0	991.6	NA	0.0000		9999	330	20600	0	0
2019/11/30 15:09:00	BASE	3.39	306	4.73	313	-2.5	100	-2.5	398	0	991.6	NA	0.0000		9999	330	0	0	0
2019/11/30 15:10:00	BASE	3.63	307	4.73	313	-2.5	100	-2.5	409	0	991.6	NA	0.0000		9999	360	0	0	0
2019/11/30 15:11:00	BASE	3.83	306	4.73	313	-2.4	100	-2.4	406	0	991.6	NA	0.0000		9999	360	0	0	0
2019/11/30 15:12:00	BASE	3.76	307	4.73	313	-2.4	100	-2.4	420	0	991.6	NA	0.0000		9999	330	0	0	0
2019/11/30 15:13:00	BASE	3.67	309	4.37	308	-2.3	100	-2.3	432	0	991.6	NA	0.0000		9999	360	0	0	0
2019/11/30 15:14:00	BASE	3.39	308	4.37	308	-2.3	100	-2.3	455	0	991.6	NA	0.0000		9999	360	0	0	0
2019/11/30 15:15:00	BASE	3.11	304	4.37	308	-2.3	100	-2.3	502	0	991.6	NA	0.0000		9999	360	0	0	0
2019/11/30 15:16:00	BASE	3.40	303	4.37	308	-2.3	100	-2.3	523	0	991.6	NA	0.0000		9999	360	0	0	0
2019/11/30 15:17:00	BASE	3.40	306	4.37	308	-2.3	100	-2.3	554	0	991.6	NA	0.0000		9999	330	0	0	0
2019/11/30 15:18:00	BASE	3.37	317	4.37	308	-2.3	100	-2.3	530	0	991.6	NA	0.0000		9999	330	0	0	0
2019/11/30 15:19:00	BASE	3.39	326	4.37	308	-2.3	100	-2.3	504	0	991.6	NA	0.0000		9999	300	0	0	0
2019/11/30 15:20:00	BASE	3.20	320	4.37	308	-2.3	100	-2.3	459	0	991.6	NA	0.0000		9999	330	20440	0	0
2019/11/30 15:21:00	BASE	3.46	310	4.37	308	-2.4	100	-2.4	466	0	991.6	NA	0.0000		9999	360	23160	0	0
2019/11/30 15:22:00	BASE	3.70	309	4.37	308	-2.4	100	-2.4	484	0	991.6	NA	0.0000		9999	300	0	0	0
2019/11/30 15:23:00	BASE	3.66	312	4.22	311	-2.5	100	-2.5	466	0	991.5	NA	0.0000		9999	560	0	0	0
2019/11/30 15:24:00	BASE	3.44	306	4.22	311	-2.5	100	-2.5	457	0	991.6	NA	0.0000		9999	430	0	0	0
2019/11/30 15:25:00	BASE	3.20	300	4.22	311	-2.5	100	-2.5	449	0	991.6	NA	0.0000		9999	430	0	0	0
2019/11/30 15:26:00	BASE	3.33	297	4.22	311	-2.4	100	-2.4	440	0	991.6	NA	0.0000		9999	430	0	0	0
2019/11/30 15:27:00	BASE	3.24	295	4.22	311	-2.4	100	-2.4	435	0	991.6	NA	0.0000		9999	430	0	0	0
2019/11/30 15:28:00	BASE	3.18	300	4.27	304	-2.4	100	-2.4	467	0	991.6	NA	0.0000		9999	390	0	0	0
2019/11/30 15:29:00	BASE	3.65	310	4.27	304	-2.3	100	-2.3	521	0	991.6	NA	0.0000		9999	390	0	0	0
2019/11/30 15:30:00	BASE	3.53	317	4.27	304	-2.3	100	-2.3	525	0	991.6	NA	0.0000		9999	360	0	0	0
2019/11/30 15:31:00	BASE	3.08	318	4.27	304	-2.3	100	-2.3	517	0	991.6	NA	0.0000		9999	360	0	0	0
2019/11/30 15:32:00	BASE	2.82	327	4.27	304	-2.3	100	-2.3	531	0	991.6	NA	0.0000		9999	390	22570	0	0
2019/11/30 15:33:00	BASE	3.10	337	4.27	304	-2.2	100	-2.2	551	0	991.6	NA	0.0000		9999	360	0	0	0
2019/11/30 15:34:00	BASE	3.08	345	4.27	304	-2.3	100	-2.3	619	0	991.6	NA	0.0000		9999	360	0	0	0
2019/11/30 15:35:00	BASE	2.65	348	4.27	304	-2.3	100	-2.3	571	0	991.5	NA	0.0000		9999	360	0	0	0
2019/11/30 15:36:00	BASE	2.82	349	4.27	304	-2.3	100	-2.3	520	0	991.6	NA	0.0000		9999	390	0	0	0
2019/11/30 15:37:00	BASE	3.12	348	4.27	304	-2.3	100	-2.3	533	0	991.6	NA	0.0000		9999	390	0	0	0
2019/11/30 15:38:00	BASE	3.00	347	4.22	322	-2.4	100	-2.4	531	0	991.6	NA	0.0000		9999	390	0	0	0
2019/11/30 15:39:00	BASE	2.79	355	4.06	344	-2.3	100	-2.3	528	0	991.6	NA	0.0000		9999	390	0	0	0
2019/11/30 15:40:00	BASE	2.72	357	4.06	344	-2.3	100	-2.3	503	0	991.6	NA	0.0000		9999	390	0	0	0
2019/11/30 15:41:00	BASE	2.62	349	4.06	344	-2.2	100	-2.2	480	0	991.6	NA	0.0000		9999	390	22670	0	0
2019/11/30 15:42:00	BASE	2.66	347	4.06	344	-2.2	100	-2.2	469	0	991.6	NA	0.0000		9999	390	0	0	0
2019/11/30 15:43:00	BASE	2.46	348	3.60	341	-2.3	100	-2.3	449	0	991.6	NA	0.0000		9999	430	0	0	0
2019/11/30 15:44:00	BASE	2.26	348	3.60	341	-2.3	100	-2.3	437	0	991.6	NA	0.0000		9999	390	0	0	0
2019/11/30 15:45:00	BASE	2.24	330	3.60	341	-2.3	100	-2.3	414	0	991.6	NA	0.0000		9999	390	0	0	0
2019/11/30 15:46:00	BASE	1.88	308	3.60	341	-2.3	100	-2.3	405	0	991.6	NA	0.0000		9999	430	0	0	0
2019/11/30 15:47:00	BASE	1.58	307	3.34	348	-2.2	100	-2.2	408	0	991.6	NA	0.0000		9999	390	0	0	0
2019/11/30 15:48:00	BASE	1.70	307	3.24	360	-2.1	100	-2.1	417	0	991.6	NA	0.0000		9999	360	21330	0	0
2019/11/30 15:49:00	BASE	1.88	308	2.93	346	-2.0	100	-2.0	425	0	991.6	NA	0.0000		9999	390	0	0	0
2019/11/30 15:50:00	BASE	1.92	307	2.93	346	-2.0	100	-2.0	430	0	991.6	NA	0.0000		9999	360	0	0	0
2019/11/30 15:51:00	BASE	2.10	309	2.88	347	-2.0	100	-2.0	436	0	991.6	NA	0.0000		9999	360	0	0	0
2019/11/30 15:52:00	BASE	2.42	311	2.78	291	-2.0	100	-2.0	435	0	991.6	NA	0.0000		9999	360	0	0	0
2019/11/30 15:53:00	BASE	2.43	309	2.78	291	-2.0	100	-2.0	439	0	991.6	NA	0.0000		9999	360	0	0	0
2019/11/30 15:54:00	BASE	2.20	310	2.78	291	-2.0	100	-2.0	439	0	991.6	NA	0.0000		9999	360	0	0	0
2019/11/30 15:55:00	BASE	2.07	309	2.73	312	-2.1	100	-2.1	432	0	991.6	NA	0.0000		9999	390	0	0	0
2019/11/30 15:56:00	BASE	1.97	301	2.73	312	-2.1	100	-2.1	427	0	991.6	NA	0.0000		9999	360	19590	0	0
2019/11/30 15:57:00	BASE	1.66	295	2.73	312	-2.1	100	-2.1	421	0	991.6	NA	0.0000		9999	360	0	0	0
2019/11/30 15:58:00	BASE	1.73	302	2.73	312	-2.1	100	-2.1	422	0	991.5	NA	0.0000		9999	360	0	0	0
2019/11/30 15:59:00	BASE	2.03	314	2.88	315	-2.1	100	-2.1	426	0	991.5	NA	0.0000		9999	330	0	0	0
2019/11/30 16:00:00	BASE	2.57	315	3.40	314	-2.1	100	-2.1	431	0	991.5	NA	0.0000		9999	360	23100	0	0
2019/11/30 16:01:00	BASE	2.90	316	3.60	322	-2.2	100	-2.2	443	0	991.5	NA	0.0000		9999	360	0	0	0
2019/11/30 16:02:00	BASE	2.91	317	3.60	321	-2.2	100	-2.2	450	0	991.5	NA	0.0000		9999	360	0	0	0
2019/11/30 16:03:00	BASE	2.87	310	3.60	321	-2.2	100	-2.2	459	0	991.5	NA	0.0000		9999	360	0	0	0
2019/11/30 16:04:00	BASE	2.69	304	3.60	321	-2.2	100	-2.2	472	0	991.5	NA	0.0000		9999	390	0	0	0
2019/11/30 16:05:00	BASE	2.82	303	3.60	321	-2.2	100	-2.2	476	0	991.5	NA	0.0000		9999	390	0	0	0
2019/11/30 16:06:00	BASE	2.87	304	3.60	321	-2.2	100	-2.2	480	0	991.6	NA	0.0000		9999	390	0	0	0
2019/11/30 16:07:00	BASE	2.68	301	3.60	321	-2.2	100	-2.2	480	0	991.6	NA	0.0000		9999	390	0	0	0
2019/11/30 16:08:00	BASE	2.39	300	3.60	321	-2.1	100	-2.1	474	0	991.6	NA	0.0000		9999	390	0	0	0
2019/11/30 16:09:00	BASE	2.08	300	3.60	321	-2.2	100	-2.2	467	0	991.6	NA	0.0000		9999	430	0	0	0
2019/11/30 16:10:00	BASE	1.88	300	3.60	321	-2.2	100	-2.2	462	0	991.6	NA	0.0000		9999	360	0	0	0
2019/11/30 16:11:00	BASE	1.80	303	3.60	321	-2.2	100	-2.2	456	0	991.6	NA	0.0000		9999	360	0	0	0
2019/11/30 16:12:00	BASE	1.51	302	3.19	310	-2.2	100	-2.2	453	0	991.6	NA	0.0000		9999	390	0	0	0
2019/11/30 16:13:00	BASE	1.43	297	3.19	310	-2.2	100	-2.2	445	0	991.6	NA	0.0000		9999	360	22870	0	0
2019/11/30 16:14:00	BASE	1.62	292	3.19	310	-2.2	100	-2.2	441	0	991.6	NA	0.0000		9999	390	0	0	0
2019/11/30 16:15:00	BASE	1.78	290	2.98	300	-2.2	100	-2.2	436	0	991.6	NA	0.0000		9999	460	0	0	0
2019/11/30 16:16:00	BASE	1.97	290	2.78	302	-2.2	100	-2.2	446	0	991.6	NA	0.0000		9999	430	0	0	0
2019/11/30 16:17:00	BASE	2.24	296	2.78	302	-2.2	100	-2.2	444	0	991.6	NA	0.0000		9999	430	0	0	0
2019/11/30 16:18:00	BASE	2.24	302	2.78	302	-2.1	100	-2.1	443	0	991.6	NA	0.0000		9999	390	0	0	0
2019/11/30 16:19:00	BASE	2.00	303	2.78	302	-2.2	100	-2.2	455	0	991.6	NA	0.0000		9999	430	0	0	0
2019/11/30 16:20:00	BASE	2.23	302	2.88	291	-2.1	100	-2.1	450	0	991.6	NA	0.0000		9999	390	0	0	0
2019/11/30 16:21:00	BASE	2.44	296	2.88	291	-2.0	100	-2.0	446	0	991.6	NA	0.0000		9999	360	0	0	0
2019/11/30 16:22:00	BASE	2.20	290	2.88	291	-2.1	100	-2.1	438	0	991.6	NA	0.0000		9999	390	0	0	0
2019/11/30 16:23:00	BASE	1.80	291	2.88	291	-2.1	100	-2.1	436	0	991.6	NA	0.0000		9999	390	0	0	0
2019/11/30 16:24:00	BASE	1.77	293	2.88	291	-2.1	100	-2.1	450	0	991.6	NA	0.0000		9999	390	0	0	0
2019/11/30 16:25:00	BASE	2.03	299	2.88	298	-2.1	100	-2.1	461	0	991.6	NA	0.0000		9999	430	0	0	0
2019/11/30 16:26:00	BASE	2.37	300	2.88	296	-2.1	100	-2.1	469	0	991.6	NA	0.0000		9999	430	0	0	0
2019/11/30 16:27:00	BASE	2.72	301	3.19	306	-2.0	100	-2.0	471	0	991.6	NA	0.0000		9999	390	0	0	0
2019/11/30 16:28:00	BASE	2.92	305	3.55	302	-1.9	100	-1.9	477	0	991.6	NA	0.0000		9999	360	0	0	0
2019/11/30 16:29:00	BASE	2.75	301	3.55	302	-1.9	100	-1.9	490	0	991.6	NA	0.0000		9999	360	0	0	0
2019/11/30 16:30:00	BASE	2.43	297	3.55	302	-1.9	100	-1.9	486	0	991.5	NA	0.0000		9999	360	0	0	0
2019/11/30 16:31:00	BASE	2.31	301	3.55	302	-2.0	100	-2.0	476	0	991.6	NA	0.0000		9999	360	0	0	0
2019/11/30 16:32:00	BASE	2.25	307	3.55	302	-2.0	100	-2.0	468	0	991.6	NA	0.0000		9999	390	0	0	0
2019/11/30 16:33:00	BASE	2.11	312	3.55	302	-2.1	100	-2.1	453	0	991.6	NA	0.0000		9999	360	0	0	0
2019/11/30 16:34:00	BASE	2.10	310	3.55	302	-2.1	100	-2.1	461	0	991.6	NA	0.0000		9999	390	0	0	0
2019/11/30 16:35:00	BASE	2.17	307	3.55	302	-2.1	100	-2.1	490	0	991.6	NA	0.0000		9999	360	0	0	0
2019/11/30 16:36:00	BASE	1.93	305	3.55	302	-2.1	100	-2.1	490	0	991.6	NA	0.0000		9999	360	0	0	0
2019/11/30 16:37:00	BASE	1.88	300	3.55	302	-2.1	100	-2.1	462	0	991.6	NA	0.0000		9999	360	0	0	0
2019/11/30 16:38:00	BASE	1.98	300	3.04	299	-2.0	100	-2.0	455	0	991.6	NA	0.0000		9999	360	0	0	0
2019/11/30 16:39:00	BASE	2.07	301	3.04	299	-2.0	100	-2.0	456	0	991.6	NA	0.0000		9999	360	0	0	0
2019/11/30 16:40:00	BASE	2.15	300	2.68	305	-2.0	100	-2.0	459	0	991.6	NA	0.0000		9999	360	0	0	0
2019/11/30 16:41:00	BASE	2.17	298	2.62	292	-1.9	100	-1.9	452	0	991.6	NA	0.0000		9999	360	0	0	0
2019/11/30 16:42:00	BASE	2.31	293	2.88	284	-1.9	100	-1.9	468	0	991.6	NA	0.0000		9999	360	0	0	0
2019/11/30 16:43:00	BASE	2.34	291	2.98	288	-1.9	100	-1.9	480	0	991.6	NA	0.0000		9999	360	0	0	0
2019/11/30 16:44:00	BASE	2.17	296	2.98	288	-2.0	100	-2.0	486	0	991.6	NA	0.0000		9999	390	0	0	0
2019/11/30 16:45:00	BASE	2.29	297	2.98	288	-2.0	100	-2.0	480	0	991.6	NA	0.0000		9999	390	0	0	0
2019/11/30 16:46:00	BASE	2.72	294	3.14	297	-2.0	100	-2.0	462	0	991.6	NA	0.0000		9999	360	0	0	0
2019/11/30 16:47:00	BASE	2.66	299	3.14	297	-2.0	100	-2.0	457	0	991.6	NA	0.0000		9999	390	0	0	0
2019/11/30 16:48:00	BASE	2.35	306	3.14	297	-2.0	100	-2.0	460	0	991.6	NA	0.0000		9999	390	0	0	0
2019/11/30 16:49:00	BASE	2.36	303	3.14	297	-1.9	100	-1.9	468	0	991.6	NA	0.0000		9999	390	0	0	0
2019/11/30 16:50:00	BASE	2.28	296	3.14	297	-1.9	100	-1.9	462	0	991.6	NA	0.0000		9999	390	0	0	0
2019/11/30 16:51:00	BASE	2.27	294	3.14	297	-1.9	100	-1.9	458	0	991.6	NA	0.0000		9999	390	0	0	0
2019/11/30 16:52:00	BASE	2.66	294	3.34	298	-1.9	100	-1.9	453	0	991.6	NA	0.0000		9999	360	22340	0	0
2019/11/30 16:53:00	BASE	2.97	295	3.34	298	-1.9	100	-1.9	450	0	991.6	NA	0.0000		9999	390	0	0	0
2019/11/30 16:54:00	BASE	3.12	300	3.50	312	-1.9	100	-1.9	461	0	991.6	NA	0.0000		9999	390	0	0	0
2019/11/30 16:55:00	BASE	3.28	306	3.86	312	-1.9	100	-1.9	475	0	991.6	NA	0.0000		9999	430	0	0	0
2019/11/30 16:56:00	BASE	2.93	301	3.86	312	-1.9	100	-1.9	479	0	991.7	NA	0.0000		9999	390	0	0	0
2019/11/30 16:57:00	BASE	2.64	304	3.86	312	-1.9	100	-1.9	472	0	991.7	NA	0.0000		9999	390	0	0	0
2019/11/30 16:58:00	BASE	3.05	315	3.86	312	-1.9	100	-1.9	479	0	991.6	NA	0.0000		9999	390	0	0	0
2019/11/30 16:59:00	BASE	3.23	319	3.86	312	-1.9	100	-1.9	482	0	991.6	NA	0.0000		9999	390	0	0	0
2019/11/30 17:00:00	BASE	3.01	319	3.86	312	-2.0	100	-2.0	469	0	991.6	NA	0.0000		9999	390	0	0	0
2019/11/30 17:01:00	BASE	2.71	319	3.86	312	-2.0	100	-2.0	459	0	991.6	NA	0.0000		9999	390	0	0	0
2019/11/30 17:02:00	BASE	2.62	309	3.86	312	-2.0	100	-2.0	444	0	991.6	NA	0.0000		9999	360	0	0	0
2019/11/30 17:03:00	BASE	2.51	300	3.86	312	-1.9	100	-1.9	447	0	991.7	NA	0.0000		9999	360	0	0	0
2019/11/30 17:04:00	BASE	2.33	301	3.86	312	-2.0	100	-2.0	454	0	991.7	NA	0.0000		9999	330	0	0	0
2019/11/30 17:05:00	BASE	2.42	303	3.76	325	-2.0	100	-2.0	463	0	991.7	NA	0.0000		9999	360	0	0	0
2019/11/30 17:06:00	BASE	2.65	304	3.76	325	-2.0	100	-2.0	481	0	991.7	NA	0.0000		9999	390	0	0	0
2019/11/30 17:07:00	BASE	2.70	304	3.76	325	-2.0	100	-2.0	502	0	991.7	NA	0.0000		9999	360	0	0	0
2019/11/30 17:08:00	BASE	2.42	306	3.29	321	-2.0	100	-2.0	514	0	991.7	NA	0.0000		9999	390	0	0	0
2019/11/30 17:09:00	BASE	2.14	319	3.19	305	-2.0	100	-2.0	531	0	991.7	NA	0.0000		9999	390	0	0	0
2019/11/30 17:10:00	BASE	1.34	327	3.19	305	-2.1	100	-2.1	488	0	991.7	NA	0.0000		9999	390	0	0	0
2019/11/30 17:11:00	BASE	0.96	318	3.19	305	-2.1	100	-2.1	478	0	991.7	NA	0.0000		9999	430	0	0	0
2019/11/30 17:12:00	BASE	1.52	310	3.19	305	-2.1	100	-2.1	492	0	991.6	NA	0.0000		9999	460	0	0	0
2019/11/30 17:13:00	BASE	1.68	304	3.19	305	-2.1	100	-2.1	496	0	991.7	NA	0.0000		9999	430	0	0	0
2019/11/30 17:14:00	BASE	0.96	304	3.19	305	-2.0	100	-2.0	469	0	991.7	NA	0.0000		9999	430	20740	0	0
2019/11/30 17:15:00	BASE	0.94	299	3.19	305	-2.0	100	-2.0	464	0	991.7	NA	0.0000		9999	430	0	0	0
2019/11/30 17:16:00	BASE	1.45	301	2.83	304	-1.9	100	-1.9	463	0	991.7	NA	0.0000		9999	430	0	0	0
2019/11/30 17:17:00	BASE	1.55	311	2.47	307	-1.9	100	-1.9	449	0	991.7	NA	0.0000		9999	460	0	0	0
2019/11/30 17:18:00	BASE	1.57	309	2.42	327	-1.9	100	-1.9	446	0	991.6	NA	0.0000		9999	430	0	0	0
2019/11/30 17:19:00	BASE	1.66	308	2.52	306	-1.8	100	-1.8	450	0	991.6	NA	0.0000		9999	390	0	0	0
2019/11/30 17:20:00	BASE	1.98	310	2.52	306	-1.8	100	-1.8	452	0	991.6	NA	0.0000		9999	390	0	0	0
2019/11/30 17:21:00	BASE	1.56	301	2.52	306	-1.9	100	-1.9	444	0	991.6	NA	0.0000		9999	390	0	0	0
2019/11/30 17:22:00	BASE	1.05	295	2.52	306	-1.9	100	-1.9	452	0	991.6	NA	0.0000		9999	390	0	0	0
2019/11/30 17:23:00	BASE	1.37	302	2.52	306	-1.8	100	-1.8	456	0	991.7	NA	0.0000		9999	430	20080	0	0
2019/11/30 17:24:00	BASE	1.76	306	2.52	306	-1.8	100	-1.8	458	0	991.7	NA	0.0000		9999	360	0	0	0
2019/11/30 17:25:00	BASE	1.89	304	2.52	306	-1.9	100	-1.9	472	0	991.7	NA	0.0000		9999	390	0	0	0
2019/11/30 17:26:00	BASE	1.96	299	2.52	306	-1.8	100	-1.8	488	0	991.7	NA	0.0000		9999	430	0	0	0
2019/11/30 17:27:00	BASE	1.92	295	2.52	306	-1.8	100	-1.8	498	0	991.7	NA	0.0000		9999	430	22930	0	0
2019/11/30 17:28:00	BASE	1.86	301	2.52	306	-1.8	100	-1.8	486	0	991.7	NA	0.0000		9999	430	0	0	0
2019/11/30 17:29:00	BASE	1.89	310	2.47	293	-1.8	100	-1.8	463	0	991.7	NA	0.0000		9999	390	0	0	0
2019/11/30 17:30:00	BASE	2.06	304	2.52	295	-1.8	100	-1.8	467	0	991.7	NA	0.0000	UP	9999	390	0	0	0
2019/11/30 17:31:00	BASE	2.20	295	2.52	294	-1.8	100	-1.8	480	0	991.7	NA	0.0000	UP	9999	430	0	0	0
2019/11/30 17:32:00	BASE	2.14	292	2.52	294	-1.8	100	-1.8	480	0	991.7	NA	0.0000	UP	9999	430	0	0	0
2019/11/30 17:33:00	BASE	2.21	291	2.62	284	-1.8	100	-1.8	469	0	991.8	NA	0.0000	UP	9999	390	0	0	0
2019/11/30 17:34:00	BASE	2.34	293	2.62	284	-1.8	100	-1.8	446	0	991.8	NA	0.0000	UP	9999	390	0	0	0
2019/11/30 17:35:00	BASE	2.44	297	2.93	300	-1.8	100	-1.8	447	0	991.8	NA	0.0000	UP	9999	360	0	0	0
2019/11/30 17:36:00	BASE	2.87	302	3.34	312	-1.8	100	-1.8	459	0	991.7	NA	0.0000		9999	390	0	0	0
2019/11/30 17:37:00	BASE	2.98	302	3.34	312	-1.9	100	-1.9	471	0	991.7	NA	0.0000		9999	360	22770	0	0
2019/11/30 17:38:00	BASE	2.77	298	3.34	312	-1.9	100	-1.9	465	0	991.7	NA	0.0000		9999	360	0	0	0
2019/11/30 17:39:00	BASE	2.61	296	3.34	312	-1.9	100	-1.9	456	0	991.7	NA	0.0000		9999	360	0	0	0
2019/11/30 17:40:00	BASE	2.46	296	3.34	312	-1.9	100	-1.9	458	0	991.7	NA	0.0000		9999	390	0	0	0
2019/11/30 17:41:00	BASE	2.50	294	3.34	312	-1.9	100	-1.9	462	0	991.7	NA	0.0000		9999	390	0	0	0
2019/11/30 17:42:00	BASE	2.37	293	3.34	312	-1.9	100	-1.9	468	0	991.7	NA	0.0000		9999	390	0	0	0
2019/11/30 17:43:00	BASE	2.29	293	3.34	312	-1.8	100	-1.8	465	0	991.7	NA	0.0000		9999	390	0	0	0
2019/11/30 17:44:00	BASE	2.22	298	3.34	312	-1.8	100	-1.8	462	0	991.7	NA	0.0000		9999	390	0	0	0
2019/11/30 17:45:00	BASE	1.93	300	3.34	312	-1.8	100	-1.8	465	0	991.7	NA	0.0000		9999	390	0	0	0
2019/11/30 17:46:00	BASE	2.08	291	3.29	298	-1.8	100	-1.8	461	0	991.7	NA	0.0000		9999	360	0	0	0
2019/11/30 17:47:00	BASE	2.28	292	2.93	287	-1.8	100	-1.8	457	0	991.7	NA	0.0000		9999	430	0	0	0
2019/11/30 17:48:00	BASE	2.37	297	2.93	287	-1.8	100	-1.8	453	0	991.7	NA	0.0000		9999	390	0	0	0
2019/11/30 17:49:00	BASE	2.52	294	2.93	290	-1.7	100	-1.7	440	0	991.7	NA	0.0000		9999	390	0	0	0
2019/11/30 17:50:00	BASE	2.31	295	2.93	290	-1.7	100	-1.7	433	0	991.7	NA	0.0000		9999	390	0	0	0
2019/11/30 17:51:00	BASE	2.27	295	2.93	290	-1.7	100	-1.7	436	0	991.7	NA	0.0000		9999	360	0	0	0
2019/11/30 17:52:00	BASE	2.41	289	2.93	290	-1.7	100	-1.7	442	0	991.7	NA	0.0000		9999	390	0	0	0
2019/11/30 17:53:00	BASE	2.28	286	2.93	290	-1.8	100	-1.8	440	0	991.7	NA	0.0000		9999	390	0	0	0
2019/11/30 17:54:00	BASE	2.04	287	2.93	290	-1.8	100	-1.8	430	0	991.6	NA	0.0000		9999	390	0	0	0
2019/11/30 17:55:00	BASE	2.04	278	2.93	290	-1.9	100	-1.9	425	0	991.7	NA	0.0000		9999	390	0	0	0
2019/11/30 17:56:00	BASE	2.09	261	2.93	290	-2.0	100	-2.0	432	0	991.7	NA	0.0000		9999	390	0	0	0
2019/11/30 17:57:00	BASE	1.36	248	2.93	290	-2.1	100	-2.1	443	0	991.7	NA	0.0000		9999	390	0	0	0
2019/11/30 17:58:00	BASE	1.07	244	2.93	290	-2.3	100	-2.3	437	0	991.7	NA	0.0000		9999	390	0	0	0
2019/11/30 17:59:00	BASE	1.30	245	2.78	278	-2.3	100	-2.3	426	0	991.8	NA	0.0000		9999	460	0	0	0
2019/11/30 18:00:00	BASE	0.60	254	2.78	278	-2.4	100	-2.4	423	0	991.8	NA	0.0000		9999	460	0	0	0
2019/11/30 18:01:00	BASE	0.65	271	2.78	278	-2.3	100	-2.3	412	0	991.8	NA	0.0000		9999	430	0	0	0
2019/11/30 18:02:00	BASE	1.49	289	2.62	273	-2.2	100	-2.2	405	0	991.8	NA	0.0000		9999	430	0	0	0
2019/11/30 18:03:00	BASE	1.77	294	2.62	273	-2.1	100	-2.1	404	0	991.7	NA	0.0000		9999	430	0	0	0
2019/11/30 18:04:00	BASE	2.15	287	2.88	281	-2.0	100	-2.0	401	0	991.7	NA	0.0000		9999	360	23100	0	0
2019/11/30 18:05:00	BASE	2.31	283	2.88	281	-2.0	100	-2.0	402	0	991.7	NA	0.0000		9999	330	0	0	0
2019/11/30 18:06:00	BASE	2.15	281	2.88	281	-1.9	100	-1.9	403	0	991.7	NA	0.0000		9999	360	0	0	0
2019/11/30 18:07:00	BASE	1.97	276	2.88	281	-2.0	100	-2.0	404	0	991.8	NA	0.0000		9999	360	0	0	0
2019/11/30 18:08:00	BASE	1.88	264	2.88	281	-2.1	100	-2.1	402	0	991.8	NA	0.0000		9999	360	0	0	0
2019/11/30 18:09:00	BASE	1.94	255	2.88	281	-2.3	100	-2.3	397	0	991.8	NA	0.0000		9999	360	0	0	0
2019/11/30 18:10:00	BASE	1.78	252	2.88	281	-2.4	100	-2.4	393	0	991.8	NA	0.0000		9999	360	0	0	0
2019/11/30 18:11:00	BASE	1.60	255	2.88	281	-2.4	100	-2.4	393	0	991.8	NA	0.0000		9999	360	0	0	0
2019/11/30 18:12:00	BASE	1.27	254	2.88	281	-2.5	100	-2.5	396	0	991.8	NA	0.0000		9999	330	0	0	0
2019/11/30 18:13:00	BASE	1.37	262	2.88	281	-2.5	100	-2.5	399	0	991.7	NA	0.0000		9999	300	0	0	0
2019/11/30 18:14:00	BASE	1.80	263	2.68	287	-2.5	100	-2.5	398	0	991.7	NA	0.0000		9999	360	0	0	0
2019/11/30 18:15:00	BASE	1.61	251	2.42	269	-2.6	100	-2.6	397	0	991.7	NA	0.0000		9999	330	0	0	0
2019/11/30 18:16:00	BASE	1.07	239	2.26	257	-2.6	100	-2.6	399	0	991.7	NA	0.0000		9999	360	0	0	0
2019/11/30 18:17:00	BASE	0.52	235	2.26	257	-2.6	100	-2.6	406	0	991.7	NA	0.0000		9999	360	0	0	0
2019/11/30 18:18:00	BASE	0.26	257	2.16	262	-2.5	100	-2.5	407	0	991.7	NA	0.0000		9999	430	0	0	0
2019/11/30 18:19:00	BASE	0.09	265	2.16	262	-2.5	100	-2.5	410	0	991.7	NA	0.0000		9999	430	0	0	0
2019/11/30 18:20:00	BASE	0.38	261	2.16	262	-2.4	100	-2.4	408	0	991.7	NA	0.0000		9999	430	22700	0	0
2019/11/30 18:21:00	BASE	0.47	262	2.16	262	-2.4	100	-2.4	402	0	991.7	NA	0.0000		9999	390	0	0	0
2019/11/30 18:22:00	BASE	0.54	266	2.16	262	-2.3	100	-2.3	395	0	991.7	NA	0.0000		9999	430	0	0	0
2019/11/30 18:23:00	BASE	0.57	271	1.85	254	-2.3	100	-2.3	390	0	991.7	NA	0.0000		9999	390	0	0	0
2019/11/30 18:24:00	BASE	0.80	266	1.65	253	-2.4	100	-2.4	388	0	991.7	NA	0.0000		9999	390	0	0	0
2019/11/30 18:25:00	BASE	1.74	268	2.62	274	-2.4	100	-2.4	394	0	991.7	NA	0.0000		9999	390	0	0	0
2019/11/30 18:26:00	BASE	2.12	275	2.62	274	-2.4	100	-2.4	400	0	991.8	NA	0.0000		9999	430	0	0	0
2019/11/30 18:27:00	BASE	2.12	275	2.62	274	-2.4	100	-2.4	398	0	991.7	NA	0.0000		9999	390	0	0	0
2019/11/30 18:28:00	BASE	2.06	271	2.62	274	-2.4	100	-2.4	394	0	991.8	NA	0.0000		9999	390	0	0	0
2019/11/30 18:29:00	BASE	1.93	259	2.62	274	-2.4	100	-2.4	390	0	991.8	NA	0.0000		9999	390	0	0	0
2019/11/30 18:30:00	BASE	1.89	253	2.62	274	-2.5	100	-2.5	388	0	991.8	NA	0.0000		9999	390	0	0	0
2019/11/30 18:31:00	BASE	1.58	255	2.62	274	-2.5	100	-2.5	393	0	991.8	NA	0.0000		9999	300	0	0	0
2019/11/30 18:32:00	BASE	1.16	259	2.62	274	-2.5	100	-2.5	401	0	991.7	NA	0.0000		9999	300	20900	0	0
2019/11/30 18:33:00	BASE	1.37	269	2.62	274	-2.5	100	-2.5	406	0	991.7	NA	0.0000		9999	300	0	0	0
2019/11/30 18:34:00	BASE	1.60	276	2.62	274	-2.5	100	-2.5	406	0	991.7	NA	0.0000		9999	300	0	0	0
2019/11/30 18:35:00	BASE	1.61	272	2.52	272	-2.5	100	-2.5	405	0	991.7	NA	0.0000		9999	330	0	0	0
2019/11/30 18:36:00	BASE	1.83	263	2.52	272	-2.5	100	-2.5	406	0	991.7	NA	0.0000		9999	360	0	0	0
2019/11/30 18:37:00	BASE	1.88	263	2.31	260	-2.5	100	-2.5	409	0	991.7	NA	0.0000		9999	390	0	0	0
2019/11/30 18:38:00	BASE	1.75	266	2.31	260	-2.6	100	-2.6	411	0	991.8	NA	0.0000		9999	390	0	0	0
2019/11/30 18:39:00	BASE	1.82	260	2.31	260	-2.5	100	-2.5	408	0	991.8	NA	0.0000		9999	360	0	0	0
2019/11/30 18:40:00	BASE	1.93	259	2.31	260	-2.5	100	-2.5	402	0	991.8	NA	0.0000		9999	390	0	0	0
2019/11/30 18:41:00	BASE	1.63	266	2.31	260	-2.5	100	-2.5	394	0	991.8	NA	0.0000		9999	390	0	0	0
2019/11/30 18:42:00	BASE	1.39	271	2.31	260	-2.4	100	-2.4	391	0	991.8	NA	0.0000		9999	360	0	0	0
2019/11/30 18:43:00	BASE	1.39	280	2.31	260	-2.4	100	-2.4	393	0	991.8	NA	0.0000		9999	360	0	0	0
2019/11/30 18:44:00	BASE	1.66	282	2.31	260	-2.4	100	-2.4	397	0	991.8	NA	0.0000		9999	260	0	0	0
2019/11/30 18:45:00	BASE	1.88	282	2.31	260	-2.4	100	-2.4	398	0	991.8	NA	0.0000		9999	300	0	0	0
2019/11/30 18:46:00	BASE	1.74	281	2.21	269	-2.4	100	-2.4	397	0	991.8	NA	0.0000		9999	330	0	0	0
2019/11/30 18:47:00	BASE	1.41	282	2.11	285	-2.4	100	-2.4	395	0	991.8	NA	0.0000		9999	360	0	0	0
2019/11/30 18:48:00	BASE	1.51	293	2.11	293	-2.3	100	-2.3	390	0	991.8	NA	0.0000		9999	390	0	0	0
2019/11/30 18:49:00	BASE	1.51	299	2.11	293	-2.3	100	-2.3	384	0	991.8	NA	0.0000		9999	390	0	0	0
2019/11/30 18:50:00	BASE	1.26	289	2.11	293	-2.2	100	-2.2	382	0	991.6	NA	0.0000		9999	390	0	0	0
2019/11/30 18:51:00	BASE	1.54	272	2.11	293	-2.2	100	-2.2	386	0	991.8	NA	0.0000		9999	360	0	0	0
2019/11/30 18:52:00	BASE	1.76	264	2.21	253	-2.2	100	-2.2	392	0	991.8	NA	0.0000		9999	390	0	0	0
2019/11/30 18:53:00	BASE	1.74	272	2.21	253	-2.2	100	-2.2	398	0	991.9	NA	0.0000		9999	390	0	0	0
2019/11/30 18:54:00	BASE	1.62	278	2.21	253	-2.1	100	-2.1	398	0	992.0	NA	0.0000		9999	360	0	0	0
2019/11/30 18:55:00	BASE	1.59	276	2.21	253	-2.1	100	-2.1	400	0	992.0	NA	0.0000		9999	360	0	0	0
2019/11/30 18:56:00	BASE	1.54	274	2.21	253	-2.1	100	-2.1	400	0	991.7	NA	0.0000		9999	330	23030	0	0
2019/11/30 18:57:00	BASE	1.52	275	2.21	253	-2.2	100	-2.2	396	0	992.0	NA	0.0000		9999	360	0	0	0
2019/11/30 18:58:00	BASE	1.76	280	2.21	273	-2.2	100	-2.2	387	0	992.0	NA	0.0000		9999	430	0	0	0
2019/11/30 18:59:00	BASE	1.98	277	2.26	273	-2.2	100	-2.2	380	0	992.0	NA	0.0000		9999	360	0	0	0
2019/11/30 19:00:00	BASE	1.99	268	2.26	273	-2.3	100	-2.3	378	0	992.0	NA	0.0000		9999	390	0	0	0
2019/11/30 19:01:00	BASE	1.97	266	2.26	273	-2.3	100	-2.3	373	0	992.0	NA	0.0000		9999	390	0	0	0
2019/11/30 19:02:00	BASE	1.86	267	2.26	273	-2.4	100	-2.4	369	0	992.0	NA	0.0000		9999	390	0	0	0
2019/11/30 19:03:00	BASE	1.48	268	2.26	273	-2.4	100	-2.4	370	0	992.0	NA	0.0000		9999	390	0	0	0
2019/11/30 19:04:00	BASE	1.23	273	2.26	273	-2.3	100	-2.3	378	0	992.0	NA	0.0000		9999	330	0	0	0
2019/11/30 19:05:00	BASE	1.39	288	2.26	273	-2.3	100	-2.3	379	0	992.0	NA	0.0000		9999	330	0	0	0
2019/11/30 19:06:00	BASE	1.36	303	2.26	273	-2.3	100	-2.3	376	0	992.0	NA	0.0000		9999	330	0	0	0
2019/11/30 19:07:00	BASE	0.72	309	2.26	273	-2.3	100	-2.3	372	0	992.0	NA	0.0000		9999	360	0	0	0
2019/11/30 19:08:00	BASE	0.82	298	2.26	273	-2.2	100	-2.2	367	0	992.0	NA	0.0000		9999	390	0	0	0
2019/11/30 19:09:00	BASE	1.66	273	2.31	258	-2.2	100	-2.2	362	0	992.1	NA	0.0000		9999	360	0	0	0
2019/11/30 19:10:00	BASE	1.98	258	2.31	254	-2.2	100	-2.2	360	0	992.0	NA	0.0000		9999	390	0	0	0
2019/11/30 19:11:00	BASE	1.93	259	2.31	254	-2.2	100	-2.2	358	0	992.0	NA	0.0000		9999	330	0	0	0
2019/11/30 19:12:00	BASE	1.39	265	2.31	254	-2.2	100	-2.2	352	0	992.0	NA	0.0000		9999	330	0	0	0
2019/11/30 19:13:00	BASE	1.22	272	2.31	254	-2.3	100	-2.3	344	0	992.0	NA	0.0000		9999	300	0	0	0
2019/11/30 19:14:00	BASE	1.49	277	2.31	254	-2.4	100	-2.4	339	0	992.0	NA	0.0000		9999	330	21360	0	0
2019/11/30 19:15:00	BASE	1.18	268	2.31	254	-2.4	100	-2.4	333	0	991.9	NA	0.0000		9999	360	0	0	0
2019/11/30 19:16:00	BASE	1.19	267	2.31	254	-2.4	100	-2.4	329	0	992.1	NA	0.0000		9999	300	0	0	0
2019/11/30 19:17:00	BASE	1.52	274	2.31	254	-2.4	100	-2.4	326	0	992.1	NA	0.0000		9999	300	0	0	0
2019/11/30 19:18:00	BASE	1.61	279	2.31	254	-2.4	100	-2.4	318	0	992.1	NA	0.0000		9999	300	0	0	0
2019/11/30 19:19:00	BASE	1.98	288	2.78	283	-2.3	100	-2.3	309	0	992.1	NA	0.0000		9999	260	0	0	0
2019/11/30 19:20:00	BASE	1.86	284	2.78	283	-2.2	100	-2.2	301	0	992.1	NA	0.0000		9999	330	0	0	0
2019/11/30 19:21:00	BASE	1.77	269	2.78	283	-2.2	100	-2.2	297	0	992.2	NA	0.0000		9999	260	0	0	0
2019/11/30 19:22:00	BASE	1.98	263	2.78	283	-2.2	100	-2.2	294	0	992.0	NA	0.0000		9999	260	0	0	0
2019/11/30 19:23:00	BASE	1.90	272	2.78	283	-2.1	100	-2.1	299	0	992.2	NA	0.0000		9999	230	0	0	0
2019/11/30 19:24:00	BASE	1.76	274	2.78	283	-2.2	100	-2.2	306	0	992.2	NA	0.0000		9999	230	0	0	0
2019/11/30 19:25:00	BASE	1.63	266	2.78	283	-2.2	100	-2.2	309	0	992.2	NA	0.0000		9999	300	0	0	0
2019/11/30 19:26:00	BASE	1.80	260	2.78	283	-2.2	100	-2.2	309	0	992.2	NA	0.0000		9999	300	0	0	0
2019/11/30 19:27:00	BASE	1.54	255	2.78	283	-2.2	100	-2.2	306	0	992.2	NA	0.0000		9999	330	0	0	0
2019/11/30 19:28:00	BASE	0.62	251	2.78	283	-2.3	100	-2.3	304	0	992.2	NA	0.0000		9999	330	0	0	0
2019/11/30 19:29:00	BASE	0.51	249	2.37	263	-2.3	100	-2.3	303	0	992.2	NA	0.0000		9999	300	0	0	0
2019/11/30 19:30:00	BASE	1.22	237	2.57	238	-2.3	100	-2.3	304	0	992.2	NA	0.0000		9999	260	0	0	0
2019/11/30 19:31:00	BASE	1.44	244	2.57	238	-2.3	100	-2.3	304	0	992.2	NA	0.0000		9999	230	0	0	0
2019/11/30 19:32:00	BASE	1.26	263	2.57	238	-2.3	100	-2.3	306	0	992.2	NA	0.0000		9999	300	0	0	0
2019/11/30 19:33:00	BASE	1.51	266	2.57	238	-2.3	100	-2.3	311	0	992.2	NA	0.0000		9999	300	0	0	0
2019/11/30 19:34:00	BASE	1.80	273	2.57	238	-2.3	100	-2.3	314	0	992.2	NA	0.0000		9999	260	0	0	0
2019/11/30 19:35:00	BASE	1.77	269	2.57	238	-2.3	100	-2.3	318	0	992.2	NA	0.0000		9999	260	0	0	0
2019/11/30 19:36:00	BASE	1.75	257	2.57	238	-2.3	100	-2.3	320	0	992.2	NA	0.0000		9999	260	0	0	0
2019/11/30 19:37:00	BASE	1.74	254	2.57	238	-2.3	100	-2.3	316	0	992.2	NA	0.0000		9999	330	0	0	0
2019/11/30 19:38:00	BASE	1.53	257	2.57	238	-2.4	100	-2.4	309	0	992.2	NA	0.0000		9999	300	0	0	0
2019/11/30 19:39:00	BASE	1.40	260	2.57	238	-2.4	100	-2.4	306	0	992.2	NA	0.0000		9999	260	0	0	0
2019/11/30 19:40:00	BASE	1.27	258	2.21	277	-2.4	100	-2.4	303	0	992.2	NA	0.0000		9999	230	0	0	0
2019/11/30 19:41:00	BASE	1.24	260	2.21	277	-2.4	100	-2.4	298	0	992.2	NA	0.0000		9999	300	22770	0	0
2019/11/30 19:42:00	BASE	1.66	265	2.21	277	-2.4	100	-2.4	293	0	992.2	NA	0.0000		9999	260	22380	0	0
2019/11/30 19:43:00	BASE	1.91	267	2.26	278	-2.4	100	-2.4	286	0	992.2	NA	0.0000		9999	330	0	0	0
2019/11/30 19:44:00	BASE	1.57	261	2.26	278	-2.4	100	-2.4	280	0	992.2	NA	0.0000		9999	300	0	0	0
2019/11/30 19:45:00	BASE	0.70	266	2.26	278	-2.5	100	-2.5	278	0	992.2	NA	0.0000		9999	260	0	0	0
2019/11/30 19:46:00	BASE	0.54	294	2.26	278	-2.4	100	-2.4	277	0	992.2	NA	0.0000		9999	200	0	0	0
2019/11/30 19:47:00	BASE	0.64	302	2.26	278	-2.4	100	-2.4	272	0	992.2	NA	0.0000		9999	200	0	0	0
2019/11/30 19:48:00	BASE	0.35	291	2.26	278	-2.3	100	-2.3	270	0	992.2	NA	0.0000		9999	200	0	0	0
2019/11/30 19:49:00	BASE	0.59	281	2.26	278	-2.2	100	-2.2	268	0	992.2	NA	0.0000		9999	200	0	0	0
2019/11/30 19:50:00	BASE	0.93	272	2.26	278	-2.1	100	-2.1	262	0	992.2	NA	0.0000		9999	200	0	0	0
2019/11/30 19:51:00	BASE	1.06	280	2.26	278	-2.1	100	-2.1	257	0	992.2	NA	0.0000		9999	230	0	0	0
2019/11/30 19:52:00	BASE	1.24	295	2.26	278	-2.1	100	-2.1	253	0	992.2	NA	0.0000		9999	260	0	0	0
2019/11/30 19:53:00	BASE	1.38	312	2.06	257	-2.1	100	-2.1	251	0	992.2	NA	0.0000		9999	230	0	0	0
2019/11/30 19:54:00	BASE	1.60	326	2.11	321	-2.1	100	-2.1	251	0	992.2	NA	0.0000		9999	230	0	0	0
2019/11/30 19:55:00	BASE	1.65	335	2.11	321	-2.1	100	-2.1	254	0	992.2	NA	0.0000		9999	200	0	0	0
2019/11/30 19:56:00	BASE	1.22	349	2.11	321	-2.1	100	-2.1	257	0	992.2	NA	0.0000		9999	200	0	0	0
2019/11/30 19:57:00	BASE	0.74	348	2.11	321	-2.1	100	-2.1	259	0	992.2	NA	0.0000		9999	200	0	0	0
2019/11/30 19:58:00	BASE	0.93	331	2.11	321	-2.0	100	-2.0	262	0	992.2	NA	0.0000		9999	260	0	0	0
2019/11/30 19:59:00	BASE	0.69	331	2.11	321	-2.0	100	-2.0	265	0	992.3	NA	0.0000		9999	260	0	0	0
2019/11/30 20:00:00	BASE	0.04	344	2.11	321	-2.0	100	-2.0	266	0	992.3	NA	0.0000		9999	230	0	0	0
2019/11/30 20:01:00	BASE	0.00	341	2.11	321	-2.1	100	-2.1	266	0	992.3	NA	0.0000		9999	230	0	0	0
2019/11/30 20:02:00	BASE	0.00	337	2.11	321	-2.1	100	-2.1	267	0	992.3	NA	0.0000		9999	230	0	0	0
2019/11/30 20:03:00	BASE	0.00	341	2.11	321	-2.2	100	-2.2	268	0	992.3	NA	0.0000		9999	300	0	0	0
2019/11/30 20:04:00	BASE	0.00	337	1.85	336	-2.2	100	-2.2	267	0	992.3	NA	0.0000		9999	330	0	0	0
2019/11/30 20:05:00	BASE	0.04	323	1.65	340	-2.1	100	-2.1	265	0	992.3	NA	0.0000		9999	330	0	0	0
2019/11/30 20:06:00	BASE	0.32	313	1.49	316	-2.1	100	-2.1	266	0	992.2	NA	0.0000		9999	300	0	0	0
2019/11/30 20:07:00	BASE	0.66	322	1.49	316	-2.1	100	-2.1	273	0	992.2	NA	0.0000		9999	300	0	0	0
2019/11/30 20:08:00	BASE	0.39	325	1.49	316	-2.1	100	-2.1	282	0	992.2	NA	0.0000		9999	300	0	0	0
2019/11/30 20:09:00	BASE	0.00	327	1.49	316	-2.2	100	-2.2	282	0	992.2	NA	0.0000		9999	360	0	0	0
2019/11/30 20:10:00	BASE	0.00	348	1.49	316	-2.2	100	-2.2	277	0	992.2	NA	0.0000		9999	230	0	0	0
2019/11/30 20:11:00	BASE	0.00	6	1.49	316	-2.3	100	-2.3	278	0	992.2	NA	0.0000		9999	160	0	0	0
2019/11/30 20:12:00	BASE	0.00	6	1.49	316	-2.4	100	-2.4	283	0	992.2	NA	0.0000		9999	230	0	0	0
2019/11/30 20:13:00	BASE	0.00	267	1.49	316	-2.4	100	-2.4	286	0	992.2	NA	0.0000		9999	330	0	0	0
2019/11/30 20:14:00	BASE	0.00	272	1.49	316	-2.3	100	-2.3	286	0	992.2	NA	0.0000		9999	360	0	0	0
2019/11/30 20:15:00	BASE	0.00	301	1.49	316	-2.2	100	-2.2	285	0	992.2	NA	0.0000		9999	360	0	0	0
2019/11/30 20:16:00	BASE	0.67	306	1.59	299	-2.1	100	-2.1	279	0	992.2	NA	0.0000		9999	330	0	0	0
2019/11/30 20:17:00	BASE	1.38	314	1.70	326	-2.0	100	-2.0	266	0	992.3	NA	0.0000		9999	330	0	0	0
2019/11/30 20:18:00	BASE	0.92	320	1.70	326	-2.0	100	-2.0	252	0	992.3	NA	0.0000		9999	300	0	0	0
2019/11/30 20:19:00	BASE	0.22	336	1.70	326	-2.1	100	-2.1	246	0	992.3	NA	0.0000		9999	230	0	0	0
2019/11/30 20:20:00	BASE	0.00	345	1.70	326	-2.2	100	-2.2	246	0	992.3	NA	0.0000		9999	300	23890	0	0
2019/11/30 20:21:00	BASE	0.00	217	1.70	326	-2.3	100	-2.3	246	0	992.3	NA	0.0000		9999	300	0	0	0
2019/11/30 20:22:00	BASE	0.00	179	1.70	326	-2.4	100	-2.4	244	0	992.3	NA	0.0000		9999	330	0	0	0
2019/11/30 20:23:00	BASE	0.00	181	1.70	326	-2.3	100	-2.3	240	0	992.3	NA	0.0000		9999	330	0	0	0
2019/11/30 20:24:00	BASE	0.19	216	1.95	255	-2.3	100	-2.3	238	0	992.3	NA	0.0000		9999	330	0	0	0
2019/11/30 20:25:00	BASE	0.67	253	1.95	255	-2.2	100	-2.2	235	0	992.3	NA	0.0000		9999	360	0	0	0
2019/11/30 20:26:00	BASE	1.41	262	2.37	264	-2.2	100	-2.2	227	0	992.3	NA	0.0000		9999	360	0	0	0
2019/11/30 20:27:00	BASE	1.84	265	2.37	264	-2.2	100	-2.2	224	0	992.4	NA	0.0000		9999	200	0	0	0
2019/11/30 20:28:00	BASE	1.79	266	2.37	264	-2.3	100	-2.3	222	0	992.4	NA	0.0000		9999	200	0	0	0
2019/11/30 20:29:00	BASE	1.46	270	2.37	264	-2.4	100	-2.4	218	0	992.4	NA	0.0000		9999	260	0	0	0
2019/11/30 20:30:00	BASE	1.00	287	2.37	264	-2.4	100	-2.4	214	0	992.4	NA	0.0000		9999	200	0	0	0
2019/11/30 20:31:00	BASE	0.89	307	2.37	264	-2.3	100	-2.3	211	0	992.4	NA	0.0000		9999	230	0	0	0
2019/11/30 20:32:00	BASE	1.35	317	2.37	264	-2.2	100	-2.2	210	0	992.4	NA	0.0000		9999	260	0	0	0
2019/11/30 20:33:00	BASE	1.38	322	2.37	264	-2.2	100	-2.2	212	0	992.4	NA	0.0000		9999	200	0	0	0
2019/11/30 20:34:00	BASE	0.65	327	2.37	264	-2.2	100	-2.2	210	0	992.4	NA	0.0000		9999	200	0	0	0
2019/11/30 20:35:00	BASE	0.33	324	2.37	264	-2.2	100	-2.2	203	0	992.4	NA	0.0000		9999	200	0	0	0
2019/11/30 20:36:00	BASE	0.53	321	2.21	315	-2.2	100	-2.2	199	0	992.5	NA	0.0000		9999	230	0	0	0
2019/11/30 20:37:00	BASE	0.59	296	2.21	315	-2.3	100	-2.3	198	0	992.6	NA	0.0000		9999	260	0	0	0
2019/11/30 20:38:00	BASE	1.21	258	2.21	253	-2.2	100	-2.2	197	0	992.6	NA	0.0000		9999	200	0	0	0
2019/11/30 20:39:00	BASE	1.89	258	2.26	254	-2.3	100	-2.3	194	0	992.6	NA	0.0000		9999	230	0	0	0
2019/11/30 20:40:00	BASE	1.13	264	2.26	254	-2.3	100	-2.3	190	0	992.6	NA	0.0000		9999	230	0	0	0
2019/11/30 20:41:00	BASE	0.43	248	2.26	254	-2.3	100	-2.3	188	0	992.6	NA	0.0000		9999	230	0	0	0
2019/11/30 20:42:00	BASE	0.98	230	2.26	254	-2.3	100	-2.3	185	0	992.6	NA	0.0000		9999	300	0	0	0
2019/11/30 20:43:00	BASE	1.30	225	2.26	254	-2.3	100	-2.3	182	0	992.6	NA	0.0000		9999	230	0	0	0
2019/11/30 20:44:00	BASE	0.58	232	2.26	254	-2.2	100	-2.2	181	0	992.6	NA	0.0000		9999	200	0	0	0
2019/11/30 20:45:00	BASE	0.78	251	2.26	254	-2.2	100	-2.2	181	0	992.6	NA	0.0000		9999	230	0	0	0
2019/11/30 20:46:00	BASE	1.62	256	2.26	254	-2.2	100	-2.2	182	0	992.6	NA	0.0000		9999	230	0	0	0
2019/11/30 20:47:00	BASE	1.63	265	2.26	254	-2.3	100	-2.3	184	0	992.6	NA	0.0000		9999	200	0	0	0
2019/11/30 20:48:00	BASE	1.45	269	2.26	254	-2.3	100	-2.3	183	0	992.6	NA	0.0000		9999	200	0	0	0
2019/11/30 20:49:00	BASE	1.57	257	2.11	252	-2.3	100	-2.3	180	0	992.6	NA	0.0000		9999	200	0	0	0
2019/11/30 20:50:00	BASE	1.75	258	2.11	252	-2.3	100	-2.3	180	0	992.6	NA	0.0000		9999	200	0	0	0
2019/11/30 20:51:00	BASE	1.76	260	2.11	252	-2.3	100	-2.3	180	0	992.6	NA	0.0000		9999	200	0	0	0
2019/11/30 20:52:00	BASE	1.77	259	2.11	261	-2.3	100	-2.3	178	0	992.6	NA	0.0000		9999	200	0	0	0
2019/11/30 20:53:00	BASE	2.03	257	2.42	252	-2.3	100	-2.3	177	0	992.6	NA	0.0000		9999	200	0	0	0
2019/11/30 20:54:00	BASE	2.11	253	2.62	251	-2.3	100	-2.3	176	0	992.6	NA	0.0000		9999	200	0	0	0
2019/11/30 20:55:00	BASE	1.89	253	2.62	251	-2.3	100	-2.3	171	0	992.6	NA	0.0000		9999	160	0	0	0
2019/11/30 20:56:00	BASE	1.99	257	2.62	251	-2.4	100	-2.4	165	0	992.7	NA	0.0000		9999	200	0	0	0
2019/11/30 20:57:00	BASE	1.99	255	2.62	251	-2.4	100	-2.4	164	0	992.7	NA	0.0000		9999	200	0	0	0
2019/11/30 20:58:00	BASE	1.61	240	2.62	251	-2.4	100	-2.4	161	0	992.7	NA	0.0000		9999	200	0	0	0
2019/11/30 20:59:00	BASE	1.63	238	2.62	251	-2.4	100	-2.4	157	0	992.7	NA	0.0000		9999	200	0	0	0
2019/11/30 21:00:00	BASE	1.71	244	2.62	251	-2.4	100	-2.4	154	0	992.7	NA	0.0000		9999	200	0	0	0
2019/11/30 21:01:00	BASE	1.20	226	2.62	251	-2.4	100	-2.4	153	0	992.7	NA	0.0000		9999	160	0	0	0
2019/11/30 21:02:00	BASE	0.64	217	2.62	251	-2.4	100	-2.4	152	0	992.7	NA	0.0000		9999	160	0	0	0
2019/11/30 21:03:00	BASE	0.95	240	2.62	251	-2.4	100	-2.4	151	0	992.7	NA	0.0000		9999	200	0	0	0
2019/11/30 21:04:00	BASE	0.87	257	2.52	209	-2.4	100	-2.4	151	0	992.7	NA	0.0000		9999	200	0	0	0
2019/11/30 21:05:00	BASE	0.15	268	2.52	209	-2.4	100	-2.4	150	0	992.8	NA	0.0000		9999	200	0	0	0
2019/11/30 21:06:00	BASE	0.00	284	2.52	209	-2.3	100	-2.3	150	0	992.8	NA	0.0000		9999	200	0	0	0
2019/11/30 21:07:00	BASE	0.00	288	2.52	209	-2.3	100	-2.3	153	0	992.8	NA	0.0000		9999	200	0	0	0
2019/11/30 21:08:00	BASE	0.23	288	2.21	254	-2.2	100	-2.2	157	0	992.8	NA	0.0000		9999	300	0	0	0
2019/11/30 21:09:00	BASE	1.07	298	2.06	293	-2.2	100	-2.2	157	0	992.8	NA	0.0000		9999	300	0	0	0
2019/11/30 21:10:00	BASE	1.83	300	2.31	291	-2.1	100	-2.1	153	0	992.8	NA	0.0000		9999	200	0	0	0
2019/11/30 21:11:00	BASE	2.03	297	2.31	291	-2.1	100	-2.1	151	0	992.8	NA	0.0000		9999	160	0	0	0
2019/11/30 21:12:00	BASE	1.73	293	2.31	291	-2.1	100	-2.1	150	0	992.8	NA	0.0000		9999	200	0	0	0
2019/11/30 21:13:00	BASE	1.11	278	2.31	291	-2.2	100	-2.2	149	0	992.8	NA	0.0000		9999	200	0	0	0
2019/11/30 21:14:00	BASE	0.67	263	2.31	291	-2.2	100	-2.2	146	0	992.8	NA	0.0000		9999	200	0	0	0
2019/11/30 21:15:00	BASE	0.25	264	2.31	291	-2.3	100	-2.3	141	0	992.8	NA	0.0000		9999	200	0	0	0